<?xml version='1.0' encoding='UTF-8'?><gpx version="1.1" creator="JPX - https://github.com/jenetics/jpx" xmlns="http://www.topografix.com/GPX/1/1"><trk><trkseg><trkpt lat="45.837822677877" lon="12.25028951603401"><ele>65.0</ele><time>2026-04-25T03:50:31Z</time></trkpt><trkpt lat="45.83775838721892" lon="12.250184964969"><ele>65.0</ele><time>2026-04-25T03:51:18.999Z</time></trkpt><trkpt lat="45.83783290277474" lon="12.250179858846558"><ele>65.0</ele><time>2026-04-25T03:51:34.999Z</time></trkpt><trkpt lat="45.83785660827441" lon="12.250264878890661"><ele>65.0</ele><time>2026-04-25T03:51:55.999Z</time></trkpt><trkpt lat="45.83780805775341" lon="12.25020286830478"><ele>65.0</ele><time>2026-04-25T03:54:12.999Z</time></trkpt><trkpt lat="45.83774898995372" lon="12.250257174865792"><ele>65.0</ele><time>2026-04-25T03:54:17.999Z</time></trkpt><trkpt lat="45.83767586495058" lon="12.250312353914149"><ele>65.00000000000001</ele><time>2026-04-25T03:54:21.999Z</time></trkpt><trkpt lat="45.83761446484246" lon="12.250343241413388"><ele>65.0</ele><time>2026-04-25T03:54:24.999Z</time></trkpt><trkpt lat="45.837550281058796" lon="12.250363227729919"><ele>65.0</ele><time>2026-04-25T03:54:27.999Z</time></trkpt><trkpt lat="45.83748086263489" lon="12.250388447348367"><ele>65.0</ele><time>2026-04-25T03:54:32.999Z</time></trkpt><trkpt lat="45.83746648818111" lon="12.250479136009623"><ele>65.0</ele><time>2026-04-25T03:54:37.999Z</time></trkpt><trkpt lat="45.837537864146526" lon="12.250446639906412"><ele>65.00000000000001</ele><time>2026-04-25T03:54:42.999Z</time></trkpt><trkpt lat="45.83759965908997" lon="12.250389310380951"><ele>65.0</ele><time>2026-04-25T03:55:30Z</time></trkpt><trkpt lat="45.83766438471961" lon="12.250348726754824"><ele>65.00000000000001</ele><time>2026-04-25T03:55:35Z</time></trkpt><trkpt lat="45.837728443104524" lon="12.250300185816977"><ele>65.0</ele><time>2026-04-25T03:55:40Z</time></trkpt><trkpt lat="45.83778866333777" lon="12.2503540696854"><ele>65.0</ele><time>2026-04-25T03:55:44Z</time></trkpt><trkpt lat="45.83781671334886" lon="12.250452920893382"><ele>65.0</ele><time>2026-04-25T03:55:49Z</time></trkpt><trkpt lat="45.837821795720025" lon="12.25035054510283"><ele>65.0</ele><time>2026-04-25T03:55:58Z</time></trkpt><trkpt lat="45.83782066831784" lon="12.250253439529157"><ele>65.00000000000001</ele><time>2026-04-25T03:56:02Z</time></trkpt><trkpt lat="45.83789467066358" lon="12.250208330686121"><ele>65.0</ele><time>2026-04-25T03:56:06Z</time></trkpt><trkpt lat="45.837958494968085" lon="12.250175505597966"><ele>65.00000000000001</ele><time>2026-04-25T03:56:09Z</time></trkpt><trkpt lat="45.83803131897219" lon="12.250131805971737"><ele>65.0</ele><time>2026-04-25T03:56:13Z</time></trkpt><trkpt lat="45.83810782236759" lon="12.250085349658004"><ele>65.0</ele><time>2026-04-25T03:56:17Z</time></trkpt><trkpt lat="45.83816861140035" lon="12.250051937380443"><ele>65.0</ele><time>2026-04-25T03:56:20Z</time></trkpt><trkpt lat="45.83822094909181" lon="12.249989410084739"><ele>65.0</ele><time>2026-04-25T03:56:23Z</time></trkpt><trkpt lat="45.83828928767251" lon="12.249955887418702"><ele>65.00000000000001</ele><time>2026-04-25T03:56:26Z</time></trkpt><trkpt lat="45.838358873255686" lon="12.249898927556753"><ele>65.0</ele><time>2026-04-25T03:56:30Z</time></trkpt><trkpt lat="45.838425251189555" lon="12.249854616195684"><ele>65.00000000000001</ele><time>2026-04-25T03:56:34Z</time></trkpt><trkpt lat="45.838480215722015" lon="12.249806345817513"><ele>65.0</ele><time>2026-04-25T03:56:38Z</time></trkpt><trkpt lat="45.83854556964176" lon="12.249788146367996"><ele>65.0</ele><time>2026-04-25T03:56:49.001Z</time></trkpt><trkpt lat="45.838478358506954" lon="12.249785787043951"><ele>65.0</ele><time>2026-04-25T03:57:01.001Z</time></trkpt><trkpt lat="45.83841136734362" lon="12.24982403508584"><ele>65.0</ele><time>2026-04-25T03:57:05.001Z</time></trkpt><trkpt lat="45.83834959001841" lon="12.249870312101411"><ele>65.00000000000001</ele><time>2026-04-25T03:57:09.001Z</time></trkpt><trkpt lat="45.838277978619956" lon="12.249916577966133"><ele>65.0</ele><time>2026-04-25T03:57:13.001Z</time></trkpt><trkpt lat="45.83820958080573" lon="12.249970482423134"><ele>65.00000000000001</ele><time>2026-04-25T03:57:17.001Z</time></trkpt><trkpt lat="45.83815158289874" lon="12.250008075227457"><ele>65.0</ele><time>2026-04-25T03:57:21.001Z</time></trkpt><trkpt lat="45.83809640515668" lon="12.249938328150376"><ele>65.0</ele><time>2026-04-25T03:57:28Z</time></trkpt><trkpt lat="45.83806282406332" lon="12.249861349304998"><ele>65.0</ele><time>2026-04-25T03:57:31Z</time></trkpt><trkpt lat="45.83803837285954" lon="12.249754692051683"><ele>65.0</ele><time>2026-04-25T03:57:35Z</time></trkpt><trkpt lat="45.8379988835745" lon="12.249676196464574"><ele>65.00000000000001</ele><time>2026-04-25T03:57:39Z</time></trkpt><trkpt lat="45.83800354377386" lon="12.249770873092189"><ele>65.0</ele><time>2026-04-25T03:57:46Z</time></trkpt><trkpt lat="45.83804442311821" lon="12.249839933395043"><ele>65.00000000000001</ele><time>2026-04-25T03:57:50Z</time></trkpt><trkpt lat="45.83806498288881" lon="12.249935845513551"><ele>65.0</ele><time>2026-04-25T03:57:54Z</time></trkpt><trkpt lat="45.838092210490494" lon="12.250030699145517"><ele>65.0</ele><time>2026-04-25T03:57:59Z</time></trkpt><trkpt lat="45.83816729446608" lon="12.25004139768409"><ele>65.0</ele><time>2026-04-25T03:58:07Z</time></trkpt><trkpt lat="45.83822928438329" lon="12.25000043942421"><ele>65.0</ele><time>2026-04-25T03:58:12Z</time></trkpt><trkpt lat="45.83829205636165" lon="12.249952468414318"><ele>65.00000000000001</ele><time>2026-04-25T03:58:17Z</time></trkpt><trkpt lat="45.83834731885351" lon="12.249907946186319"><ele>65.0</ele><time>2026-04-25T03:58:22Z</time></trkpt><trkpt lat="45.83840887434176" lon="12.249863165779713"><ele>65.00000000000001</ele><time>2026-04-25T03:58:28Z</time></trkpt><trkpt lat="45.838469193146295" lon="12.249820355218233"><ele>65.0</ele><time>2026-04-25T03:58:33Z</time></trkpt><trkpt lat="45.838398393609815" lon="12.249831970084747"><ele>65.0</ele><time>2026-04-25T03:58:49.001Z</time></trkpt><trkpt lat="45.83834250924346" lon="12.249879905205106"><ele>65.0</ele><time>2026-04-25T03:58:53.001Z</time></trkpt><trkpt lat="45.838281135191586" lon="12.249903966632726"><ele>65.0</ele><time>2026-04-25T03:58:57.001Z</time></trkpt><trkpt lat="45.83822497389153" lon="12.24995392284206"><ele>65.00000000000001</ele><time>2026-04-25T03:59:01.001Z</time></trkpt><trkpt lat="45.83816532793368" lon="12.250007234896167"><ele>65.0</ele><time>2026-04-25T03:59:06.001Z</time></trkpt><trkpt lat="45.838094651685125" lon="12.250001016535181"><ele>65.00000000000001</ele><time>2026-04-25T03:59:12.001Z</time></trkpt><trkpt lat="45.83808104222351" lon="12.249891730230662"><ele>65.0</ele><time>2026-04-25T03:59:17.001Z</time></trkpt><trkpt lat="45.8380530482083" lon="12.24979849005677"><ele>65.0</ele><time>2026-04-25T03:59:21.001Z</time></trkpt><trkpt lat="45.83801557510702" lon="12.249711970952324"><ele>65.0</ele><time>2026-04-25T03:59:26.001Z</time></trkpt><trkpt lat="45.83800467860823" lon="12.249606856944773"><ele>65.0</ele><time>2026-04-25T03:59:31.001Z</time></trkpt><trkpt lat="45.837973977022585" lon="12.249685775787645"><ele>65.00000000000001</ele><time>2026-04-25T03:59:40Z</time></trkpt><trkpt lat="45.838025429674985" lon="12.249783201961947"><ele>65.0</ele><time>2026-04-25T03:59:44Z</time></trkpt><trkpt lat="45.83805063020859" lon="12.249871458607517"><ele>65.00000000000001</ele><time>2026-04-25T03:59:47Z</time></trkpt><trkpt lat="45.83807401136705" lon="12.249965792836278"><ele>65.0</ele><time>2026-04-25T03:59:51Z</time></trkpt><trkpt lat="45.838098105722345" lon="12.250049585571821"><ele>65.0</ele><time>2026-04-25T03:59:56Z</time></trkpt><trkpt lat="45.838188305009865" lon="12.250031981624517"><ele>65.0</ele><time>2026-04-25T04:00:04Z</time></trkpt><trkpt lat="45.83825071865155" lon="12.24999372241857"><ele>65.0</ele><time>2026-04-25T04:00:10Z</time></trkpt><trkpt lat="45.83831351660524" lon="12.24994572355813"><ele>65.00000000000001</ele><time>2026-04-25T04:00:16Z</time></trkpt><trkpt lat="45.838375801057815" lon="12.249902656907791"><ele>65.0</ele><time>2026-04-25T04:00:23Z</time></trkpt><trkpt lat="45.83843595698023" lon="12.2498677363835"><ele>65.16666666666667</ele><time>2026-04-25T04:01:54Z</time></trkpt><trkpt lat="45.83849544900993" lon="12.249824625295998"><ele>65.33333333333334</ele><time>2026-04-25T04:01:58Z</time></trkpt><trkpt lat="45.83855202573291" lon="12.249781361010042"><ele>65.5</ele><time>2026-04-25T04:02:06Z</time></trkpt><trkpt lat="45.83862361299159" lon="12.249730089727358"><ele>65.66666666666667</ele><time>2026-04-25T04:02:09Z</time></trkpt><trkpt lat="45.83870190570162" lon="12.249678718768115"><ele>65.83333333333333</ele><time>2026-04-25T04:02:12Z</time></trkpt><trkpt lat="45.83878302426414" lon="12.249622533199119"><ele>66.0</ele><time>2026-04-25T04:02:15Z</time></trkpt><trkpt lat="45.83884320977671" lon="12.249582667396355"><ele>66.0</ele><time>2026-04-25T04:02:17Z</time></trkpt><trkpt lat="45.838904231017764" lon="12.249538281435425"><ele>66.0</ele><time>2026-04-25T04:02:19Z</time></trkpt><trkpt lat="45.838968406825714" lon="12.249502214463034"><ele>66.0</ele><time>2026-04-25T04:02:21Z</time></trkpt><trkpt lat="45.83903345456041" lon="12.249453586336147"><ele>66.0</ele><time>2026-04-25T04:02:23Z</time></trkpt><trkpt lat="45.839092974768924" lon="12.249409418869265"><ele>66.0</ele><time>2026-04-25T04:02:25Z</time></trkpt><trkpt lat="45.83916145948976" lon="12.249365471804072"><ele>66.0</ele><time>2026-04-25T04:02:27Z</time></trkpt><trkpt lat="45.83922086675513" lon="12.249311671247902"><ele>66.0</ele><time>2026-04-25T04:02:29Z</time></trkpt><trkpt lat="45.83929664311395" lon="12.249263368741714"><ele>66.16666666666667</ele><time>2026-04-25T04:02:31Z</time></trkpt><trkpt lat="45.8393707494702" lon="12.249218601696024"><ele>66.33333333333333</ele><time>2026-04-25T04:02:33Z</time></trkpt><trkpt lat="45.839442669374144" lon="12.249160981143527"><ele>66.5</ele><time>2026-04-25T04:02:35Z</time></trkpt><trkpt lat="45.83951316818528" lon="12.249114777821967"><ele>66.66666666666666</ele><time>2026-04-25T04:02:37Z</time></trkpt><trkpt lat="45.83958823305853" lon="12.249059146104072"><ele>66.83333333333333</ele><time>2026-04-25T04:02:39Z</time></trkpt><trkpt lat="45.83966489422547" lon="12.249017003952412"><ele>67.0</ele><time>2026-04-25T04:02:41Z</time></trkpt><trkpt lat="45.839741523631346" lon="12.248954821013603"><ele>67.0</ele><time>2026-04-25T04:02:43Z</time></trkpt><trkpt lat="45.83982117011392" lon="12.248908287256448"><ele>67.0</ele><time>2026-04-25T04:02:45Z</time></trkpt><trkpt lat="45.839897373758646" lon="12.248851776888289"><ele>67.0</ele><time>2026-04-25T04:02:47Z</time></trkpt><trkpt lat="45.839975155116555" lon="12.248799258106507"><ele>67.0</ele><time>2026-04-25T04:02:49Z</time></trkpt><trkpt lat="45.840051495456684" lon="12.24874533336874"><ele>67.0</ele><time>2026-04-25T04:02:51Z</time></trkpt><trkpt lat="45.84012848491269" lon="12.248695605496938"><ele>67.0</ele><time>2026-04-25T04:02:53Z</time></trkpt><trkpt lat="45.840210541530055" lon="12.248642286047714"><ele>67.0</ele><time>2026-04-25T04:02:55Z</time></trkpt><trkpt lat="45.840284818655235" lon="12.248587522474926"><ele>67.0</ele><time>2026-04-25T04:02:57Z</time></trkpt><trkpt lat="45.840359792574745" lon="12.248528557312374"><ele>67.0</ele><time>2026-04-25T04:02:59Z</time></trkpt><trkpt lat="45.840440236028975" lon="12.248473305531071"><ele>67.0</ele><time>2026-04-25T04:03:01.001Z</time></trkpt><trkpt lat="45.84051521915258" lon="12.248427522765702"><ele>67.0</ele><time>2026-04-25T04:03:03.001Z</time></trkpt><trkpt lat="45.84059827339096" lon="12.248367590162362"><ele>67.0</ele><time>2026-04-25T04:03:05.001Z</time></trkpt><trkpt lat="45.840682467104536" lon="12.248322455247571"><ele>67.0</ele><time>2026-04-25T04:03:07.001Z</time></trkpt><trkpt lat="45.840761519311364" lon="12.248266778022655"><ele>67.0</ele><time>2026-04-25T04:03:09.001Z</time></trkpt><trkpt lat="45.84084352730891" lon="12.24820615647143"><ele>67.0</ele><time>2026-04-25T04:03:11.001Z</time></trkpt><trkpt lat="45.840934319596656" lon="12.2481591029194"><ele>67.0</ele><time>2026-04-25T04:03:13.001Z</time></trkpt><trkpt lat="45.84100870776408" lon="12.24810702756392"><ele>67.0</ele><time>2026-04-25T04:03:15.001Z</time></trkpt><trkpt lat="45.84109810312381" lon="12.248050693037266"><ele>67.2</ele><time>2026-04-25T04:03:17.001Z</time></trkpt><trkpt lat="45.841175046641965" lon="12.247992566939999"><ele>67.4</ele><time>2026-04-25T04:03:19.001Z</time></trkpt><trkpt lat="45.84126288702522" lon="12.247939896434486"><ele>67.6</ele><time>2026-04-25T04:03:21Z</time></trkpt><trkpt lat="45.84134481873632" lon="12.247876757760471"><ele>67.8</ele><time>2026-04-25T04:03:23Z</time></trkpt><trkpt lat="45.8414305411745" lon="12.24781700646324"><ele>68.0</ele><time>2026-04-25T04:03:25Z</time></trkpt><trkpt lat="45.84151560056659" lon="12.247756381580409"><ele>68.0</ele><time>2026-04-25T04:03:27Z</time></trkpt><trkpt lat="45.84160583444543" lon="12.247700703954552"><ele>68.0</ele><time>2026-04-25T04:03:29Z</time></trkpt><trkpt lat="45.84168738260063" lon="12.247640294170479"><ele>68.0</ele><time>2026-04-25T04:03:31Z</time></trkpt><trkpt lat="45.841774636498165" lon="12.24757505015099"><ele>68.0</ele><time>2026-04-25T04:03:33Z</time></trkpt><trkpt lat="45.841851355169815" lon="12.247520058810162"><ele>68.0</ele><time>2026-04-25T04:03:35Z</time></trkpt><trkpt lat="45.84194594786845" lon="12.247462850302417"><ele>68.2</ele><time>2026-04-25T04:03:37Z</time></trkpt><trkpt lat="45.84203566945074" lon="12.247413749382421"><ele>68.4</ele><time>2026-04-25T04:03:39Z</time></trkpt><trkpt lat="45.84212477192407" lon="12.247339649931336"><ele>68.60000000000001</ele><time>2026-04-25T04:03:41Z</time></trkpt><trkpt lat="45.84221589038663" lon="12.247276587634888"><ele>68.8</ele><time>2026-04-25T04:03:43Z</time></trkpt><trkpt lat="45.84230460346013" lon="12.247214711930608"><ele>69.0</ele><time>2026-04-25T04:03:45Z</time></trkpt><trkpt lat="45.84238691868531" lon="12.24715933518877"><ele>69.0</ele><time>2026-04-25T04:03:47Z</time></trkpt><trkpt lat="45.84247433496282" lon="12.247108760656587"><ele>69.0</ele><time>2026-04-25T04:03:49Z</time></trkpt><trkpt lat="45.84256136363518" lon="12.247051129645774"><ele>69.0</ele><time>2026-04-25T04:03:51Z</time></trkpt><trkpt lat="45.84264936902342" lon="12.246988284567612"><ele>69.0</ele><time>2026-04-25T04:03:53Z</time></trkpt><trkpt lat="45.842734548106606" lon="12.246925859500218"><ele>69.0</ele><time>2026-04-25T04:03:55Z</time></trkpt><trkpt lat="45.84282303621017" lon="12.246874995055768"><ele>69.2</ele><time>2026-04-25T04:03:57Z</time></trkpt><trkpt lat="45.84290800564065" lon="12.246821481399886"><ele>69.4</ele><time>2026-04-25T04:03:59Z</time></trkpt><trkpt lat="45.842992244591066" lon="12.246752463172315"><ele>69.6</ele><time>2026-04-25T04:04:01Z</time></trkpt><trkpt lat="45.84308326129303" lon="12.24668614671645"><ele>69.8</ele><time>2026-04-25T04:04:03Z</time></trkpt><trkpt lat="45.84318187220149" lon="12.246623251946227"><ele>70.0</ele><time>2026-04-25T04:04:05Z</time></trkpt><trkpt lat="45.843286637859435" lon="12.246577860129955"><ele>70.0</ele><time>2026-04-25T04:04:07Z</time></trkpt><trkpt lat="45.84338345397456" lon="12.246508970685719"><ele>70.0</ele><time>2026-04-25T04:04:09Z</time></trkpt><trkpt lat="45.84347844626591" lon="12.246441175743312"><ele>70.0</ele><time>2026-04-25T04:04:11Z</time></trkpt><trkpt lat="45.843577874387975" lon="12.246370215009808"><ele>70.0</ele><time>2026-04-25T04:04:13Z</time></trkpt><trkpt lat="45.843664825842474" lon="12.246284139193296"><ele>70.0</ele><time>2026-04-25T04:04:15Z</time></trkpt><trkpt lat="45.84377188654057" lon="12.246231750688695"><ele>70.4</ele><time>2026-04-25T04:04:17Z</time></trkpt><trkpt lat="45.843859615610874" lon="12.246152236159077"><ele>70.8</ele><time>2026-04-25T04:04:19Z</time></trkpt><trkpt lat="45.84395717523297" lon="12.246076253575964"><ele>71.2</ele><time>2026-04-25T04:04:21Z</time></trkpt><trkpt lat="45.844053668853626" lon="12.246014182090038"><ele>71.6</ele><time>2026-04-25T04:04:23Z</time></trkpt><trkpt lat="45.844149603734934" lon="12.245944869248166"><ele>72.0</ele><time>2026-04-25T04:04:25Z</time></trkpt><trkpt lat="45.844240192101154" lon="12.245879439763769"><ele>71.8</ele><time>2026-04-25T04:04:27Z</time></trkpt><trkpt lat="45.84433007327597" lon="12.245825561434511"><ele>71.6</ele><time>2026-04-25T04:04:29Z</time></trkpt><trkpt lat="45.844425220705745" lon="12.245752154184565"><ele>71.39999999999999</ele><time>2026-04-25T04:04:31Z</time></trkpt><trkpt lat="45.84451963685512" lon="12.245684814171698"><ele>71.2</ele><time>2026-04-25T04:04:33Z</time></trkpt><trkpt lat="45.84461084994071" lon="12.245619081645827"><ele>71.0</ele><time>2026-04-25T04:04:35Z</time></trkpt><trkpt lat="45.84471131444752" lon="12.245551656689484"><ele>71.39999999999999</ele><time>2026-04-25T04:04:37Z</time></trkpt><trkpt lat="45.8448078769186" lon="12.245488332137013"><ele>71.8</ele><time>2026-04-25T04:04:39Z</time></trkpt><trkpt lat="45.84491103087227" lon="12.245423674203975"><ele>72.19999999999999</ele><time>2026-04-25T04:04:41Z</time></trkpt><trkpt lat="45.845005949122786" lon="12.245361202317108"><ele>72.6</ele><time>2026-04-25T04:04:43Z</time></trkpt><trkpt lat="45.84510116079184" lon="12.245293850819909"><ele>73.0</ele><time>2026-04-25T04:04:45Z</time></trkpt><trkpt lat="45.84519810002161" lon="12.245232640682238"><ele>73.6</ele><time>2026-04-25T04:04:47Z</time></trkpt><trkpt lat="45.84528907321109" lon="12.245172636290256"><ele>74.19999999999999</ele><time>2026-04-25T04:04:49Z</time></trkpt><trkpt lat="45.84538253717237" lon="12.245113299393418"><ele>74.8</ele><time>2026-04-25T04:04:50.999Z</time></trkpt><trkpt lat="45.845471902896584" lon="12.24505211599181"><ele>75.39999999999999</ele><time>2026-04-25T04:04:52.999Z</time></trkpt><trkpt lat="45.84556962610218" lon="12.244988335884061"><ele>76.0</ele><time>2026-04-25T04:04:54.999Z</time></trkpt><trkpt lat="45.845658218064564" lon="12.244925358785427"><ele>76.0</ele><time>2026-04-25T04:04:56.999Z</time></trkpt><trkpt lat="45.84574621709573" lon="12.244862642614905"><ele>76.0</ele><time>2026-04-25T04:04:58.999Z</time></trkpt><trkpt lat="45.84583251393673" lon="12.244808768931883"><ele>76.0</ele><time>2026-04-25T04:05:00.999Z</time></trkpt><trkpt lat="45.845906454730915" lon="12.244762797588246"><ele>76.0</ele><time>2026-04-25T04:05:02.999Z</time></trkpt><trkpt lat="45.84591587926029" lon="12.244669525474812"><ele>76.0</ele><time>2026-04-25T04:05:04.999Z</time></trkpt><trkpt lat="45.84584493498368" lon="12.24459464969776"><ele>76.0</ele><time>2026-04-25T04:05:07Z</time></trkpt><trkpt lat="45.84575004929209" lon="12.2445528612058"><ele>76.0</ele><time>2026-04-25T04:05:09Z</time></trkpt><trkpt lat="45.84564658465916" lon="12.244530096727617"><ele>76.0</ele><time>2026-04-25T04:05:11Z</time></trkpt><trkpt lat="45.84554329819209" lon="12.244492059602953"><ele>76.0</ele><time>2026-04-25T04:05:13Z</time></trkpt><trkpt lat="45.84544710906201" lon="12.244471113050789"><ele>76.0</ele><time>2026-04-25T04:05:15Z</time></trkpt><trkpt lat="45.84535777345885" lon="12.244427680538294"><ele>76.0</ele><time>2026-04-25T04:05:17Z</time></trkpt><trkpt lat="45.845299276038695" lon="12.244360188129091"><ele>76.0</ele><time>2026-04-25T04:05:20Z</time></trkpt><trkpt lat="45.84519817269514" lon="12.244331078016817"><ele>76.0</ele><time>2026-04-25T04:05:22Z</time></trkpt><trkpt lat="45.84509323836242" lon="12.244300587215358"><ele>76.0</ele><time>2026-04-25T04:05:24Z</time></trkpt><trkpt lat="45.84499296435452" lon="12.244270747150631"><ele>76.0</ele><time>2026-04-25T04:05:26Z</time></trkpt><trkpt lat="45.84488236929554" lon="12.24423783567389"><ele>76.0</ele><time>2026-04-25T04:05:28Z</time></trkpt><trkpt lat="45.844790465587074" lon="12.244210486475653"><ele>75.6</ele><time>2026-04-25T04:05:30Z</time></trkpt><trkpt lat="45.844723214149276" lon="12.244190473422544"><ele>75.19999999999999</ele><time>2026-04-25T04:05:31Z</time></trkpt><trkpt lat="45.844615732840204" lon="12.244159721088993"><ele>74.80000000000001</ele><time>2026-04-25T04:05:33Z</time></trkpt><trkpt lat="45.844501565051594" lon="12.244128791027306"><ele>74.4</ele><time>2026-04-25T04:05:35Z</time></trkpt><trkpt lat="45.84438859875494" lon="12.244098186483441"><ele>74.0</ele><time>2026-04-25T04:05:37Z</time></trkpt><trkpt lat="45.844280644217484" lon="12.244068137117585"><ele>73.66666666666667</ele><time>2026-04-25T04:05:39Z</time></trkpt><trkpt lat="45.84416355871174" lon="12.244033703748922"><ele>73.33333333333334</ele><time>2026-04-25T04:05:41Z</time></trkpt><trkpt lat="45.84404024762406" lon="12.243998043811043"><ele>73.0</ele><time>2026-04-25T04:05:43Z</time></trkpt><trkpt lat="45.84397786057303" lon="12.243980172990083"><ele>72.66666666666667</ele><time>2026-04-25T04:05:44Z</time></trkpt><trkpt lat="45.84391607582186" lon="12.243962474696636"><ele>72.33333333333333</ele><time>2026-04-25T04:05:45Z</time></trkpt><trkpt lat="45.84385261429821" lon="12.243944296108886"><ele>72.0</ele><time>2026-04-25T04:05:46Z</time></trkpt><trkpt lat="45.8437893812219" lon="12.243926182942976"><ele>71.66666666666667</ele><time>2026-04-25T04:05:47Z</time></trkpt><trkpt lat="45.843721831806114" lon="12.24390683337425"><ele>71.33333333333333</ele><time>2026-04-25T04:05:48Z</time></trkpt><trkpt lat="45.84359866948105" lon="12.243872197852312"><ele>71.0</ele><time>2026-04-25T04:05:50Z</time></trkpt><trkpt lat="45.843536635856104" lon="12.243854781843755"><ele>70.66666666666666</ele><time>2026-04-25T04:05:51Z</time></trkpt><trkpt lat="45.84347464541339" lon="12.243837378009248"><ele>70.33333333333333</ele><time>2026-04-25T04:05:52Z</time></trkpt><trkpt lat="45.843410322632224" lon="12.243819319346008"><ele>70.0</ele><time>2026-04-25T04:05:53Z</time></trkpt><trkpt lat="45.84334800971336" lon="12.24380182494191"><ele>70.0</ele><time>2026-04-25T04:05:54Z</time></trkpt><trkpt lat="45.84328003440853" lon="12.24378274080781"><ele>70.0</ele><time>2026-04-25T04:05:55Z</time></trkpt><trkpt lat="45.843160683994384" lon="12.243749233096214"><ele>70.0</ele><time>2026-04-25T04:05:57Z</time></trkpt><trkpt lat="45.8430471255903" lon="12.243717095140926"><ele>70.0</ele><time>2026-04-25T04:05:59Z</time></trkpt><trkpt lat="45.84297986666372" lon="12.243697351701545"><ele>70.0</ele><time>2026-04-25T04:06:00Z</time></trkpt><trkpt lat="45.84291344856637" lon="12.243677855034585"><ele>70.0</ele><time>2026-04-25T04:06:01Z</time></trkpt><trkpt lat="45.842794784082194" lon="12.243643021776402"><ele>70.0</ele><time>2026-04-25T04:06:03Z</time></trkpt><trkpt lat="45.8426750014048" lon="12.243607860268838"><ele>70.0</ele><time>2026-04-25T04:06:05Z</time></trkpt><trkpt lat="45.84248763439653" lon="12.243553971668488"><ele>70.0</ele><time>2026-04-25T04:06:08Z</time></trkpt><trkpt lat="45.84236635934101" lon="12.243519514894734"><ele>70.0</ele><time>2026-04-25T04:06:10Z</time></trkpt><trkpt lat="45.84229627904758" lon="12.243499603622647"><ele>70.2</ele><time>2026-04-25T04:06:11Z</time></trkpt><trkpt lat="45.84217605136717" lon="12.243465444433493"><ele>70.4</ele><time>2026-04-25T04:06:13Z</time></trkpt><trkpt lat="45.842060367859126" lon="12.243390831455542"><ele>70.6</ele><time>2026-04-25T04:06:15Z</time></trkpt><trkpt lat="45.8419912545642" lon="12.24336982833047"><ele>70.8</ele><time>2026-04-25T04:06:16Z</time></trkpt><trkpt lat="45.84187091563844" lon="12.24333955161297"><ele>71.0</ele><time>2026-04-25T04:06:18Z</time></trkpt><trkpt lat="45.84174778069681" lon="12.243310874344136"><ele>71.39999999999999</ele><time>2026-04-25T04:06:20Z</time></trkpt><trkpt lat="45.84168122929308" lon="12.24329860497632"><ele>71.8</ele><time>2026-04-25T04:06:21Z</time></trkpt><trkpt lat="45.84155564836635" lon="12.243264835837097"><ele>72.19999999999999</ele><time>2026-04-25T04:06:23Z</time></trkpt><trkpt lat="45.84149329715027" lon="12.243242704214252"><ele>72.6</ele><time>2026-04-25T04:06:24Z</time></trkpt><trkpt lat="45.841427844994094" lon="12.243214164359205"><ele>73.0</ele><time>2026-04-25T04:06:24.999Z</time></trkpt><trkpt lat="45.8413058838417" lon="12.24314009317661"><ele>73.2</ele><time>2026-04-25T04:06:26.999Z</time></trkpt><trkpt lat="45.841206051686534" lon="12.24304825057471"><ele>73.4</ele><time>2026-04-25T04:06:28.999Z</time></trkpt><trkpt lat="45.84114608774853" lon="12.243001103094839"><ele>73.60000000000001</ele><time>2026-04-25T04:06:29.999Z</time></trkpt><trkpt lat="45.841043511778075" lon="12.242895940897373"><ele>73.8</ele><time>2026-04-25T04:06:31.999Z</time></trkpt><trkpt lat="45.840955488584754" lon="12.242777261567564"><ele>74.0</ele><time>2026-04-25T04:06:33.999Z</time></trkpt><trkpt lat="45.840903262918665" lon="12.24271701985012"><ele>73.5</ele><time>2026-04-25T04:06:34.999Z</time></trkpt><trkpt lat="45.840815524749985" lon="12.242590963107483"><ele>73.0</ele><time>2026-04-25T04:06:36.999Z</time></trkpt><trkpt lat="45.84071833899962" lon="12.242483020337025"><ele>72.5</ele><time>2026-04-25T04:06:38.999Z</time></trkpt><trkpt lat="45.84062928504123" lon="12.242357519918889"><ele>72.0</ele><time>2026-04-25T04:06:40.999Z</time></trkpt><trkpt lat="45.84055210470835" lon="12.242248719750876"><ele>72.0</ele><time>2026-04-25T04:06:42.999Z</time></trkpt><trkpt lat="45.840505180852695" lon="12.242182571761182"><ele>72.0</ele><time>2026-04-25T04:06:43.999Z</time></trkpt><trkpt lat="45.84045859739471" lon="12.24211690363069"><ele>72.0</ele><time>2026-04-25T04:06:44.999Z</time></trkpt><trkpt lat="45.84041282812159" lon="12.242052383218851"><ele>72.0</ele><time>2026-04-25T04:06:45.999Z</time></trkpt><trkpt lat="45.84033275734799" lon="12.24190854981729"><ele>72.0</ele><time>2026-04-25T04:06:47.999Z</time></trkpt><trkpt lat="45.84023770750251" lon="12.241820326124682"><ele>72.0</ele><time>2026-04-25T04:06:49.999Z</time></trkpt><trkpt lat="45.840155597799004" lon="12.241685364244198"><ele>72.5</ele><time>2026-04-25T04:06:51.999Z</time></trkpt><trkpt lat="45.84010446211129" lon="12.241620957117624"><ele>73.0</ele><time>2026-04-25T04:06:52.999Z</time></trkpt><trkpt lat="45.84002489314873" lon="12.241475680621042"><ele>73.5</ele><time>2026-04-25T04:06:54.999Z</time></trkpt><trkpt lat="45.83998498443147" lon="12.24139443649867"><ele>74.0</ele><time>2026-04-25T04:06:55.999Z</time></trkpt><trkpt lat="45.83994808620115" lon="12.241315500450707"><ele>74.5</ele><time>2026-04-25T04:06:56.999Z</time></trkpt><trkpt lat="45.83991008576661" lon="12.241233132233042"><ele>75.0</ele><time>2026-04-25T04:06:57.999Z</time></trkpt><trkpt lat="45.839886141175825" lon="12.241146322375155"><ele>74.99999999999999</ele><time>2026-04-25T04:06:58.999Z</time></trkpt><trkpt lat="45.83985318568203" lon="12.241060118858204"><ele>75.0</ele><time>2026-04-25T04:06:59.999Z</time></trkpt><trkpt lat="45.8398212180944" lon="12.240977407032638"><ele>75.0</ele><time>2026-04-25T04:07:00.999Z</time></trkpt><trkpt lat="45.83979513773351" lon="12.240893476261977"><ele>75.0</ele><time>2026-04-25T04:07:01.999Z</time></trkpt><trkpt lat="45.839764818412704" lon="12.240810023936906"><ele>75.0</ele><time>2026-04-25T04:07:02.999Z</time></trkpt><trkpt lat="45.83973308311838" lon="12.240727808927598"><ele>74.99999999999999</ele><time>2026-04-25T04:07:03.999Z</time></trkpt><trkpt lat="45.839698452033154" lon="12.240641519636355"><ele>75.0</ele><time>2026-04-25T04:07:04.999Z</time></trkpt><trkpt lat="45.839675096157904" lon="12.2405524481925"><ele>74.85714285714285</ele><time>2026-04-25T04:07:05.999Z</time></trkpt><trkpt lat="45.83964667464697" lon="12.240466931061357"><ele>74.71428571428571</ele><time>2026-04-25T04:07:06.999Z</time></trkpt><trkpt lat="45.8396130664802" lon="12.24038075863186"><ele>74.57142857142857</ele><time>2026-04-25T04:07:07.999Z</time></trkpt><trkpt lat="45.83957845929598" lon="12.240295290793357"><ele>74.42857142857142</ele><time>2026-04-25T04:07:08.999Z</time></trkpt><trkpt lat="45.83954455355256" lon="12.240207118210648"><ele>74.28571428571428</ele><time>2026-04-25T04:07:09.999Z</time></trkpt><trkpt lat="45.839518835417906" lon="12.240119026844832"><ele>74.14285714285714</ele><time>2026-04-25T04:07:10.999Z</time></trkpt><trkpt lat="45.83949544635236" lon="12.240034207282454"><ele>74.0</ele><time>2026-04-25T04:07:11.999Z</time></trkpt><trkpt lat="45.839465351048766" lon="12.23994912143018"><ele>74.0</ele><time>2026-04-25T04:07:13Z</time></trkpt><trkpt lat="45.83940894088633" lon="12.239777156564994"><ele>74.0</ele><time>2026-04-25T04:07:15Z</time></trkpt><trkpt lat="45.83937774445534" lon="12.239689463931857"><ele>74.0</ele><time>2026-04-25T04:07:16Z</time></trkpt><trkpt lat="45.83934276524018" lon="12.23960319455053"><ele>74.0</ele><time>2026-04-25T04:07:17Z</time></trkpt><trkpt lat="45.839316907029904" lon="12.239519339179152"><ele>74.0</ele><time>2026-04-25T04:07:18Z</time></trkpt><trkpt lat="45.8392885712852" lon="12.239431502981699"><ele>74.0</ele><time>2026-04-25T04:07:19Z</time></trkpt><trkpt lat="45.839261183540295" lon="12.239345125958122"><ele>74.0</ele><time>2026-04-25T04:07:20Z</time></trkpt><trkpt lat="45.83922502498304" lon="12.239258348446418"><ele>74.0</ele><time>2026-04-25T04:07:21Z</time></trkpt><trkpt lat="45.83919171470097" lon="12.239169516460692"><ele>74.0</ele><time>2026-04-25T04:07:22Z</time></trkpt><trkpt lat="45.83916424253401" lon="12.239086299755796"><ele>74.0</ele><time>2026-04-25T04:07:23Z</time></trkpt><trkpt lat="45.83912916902339" lon="12.238998214624658"><ele>74.0</ele><time>2026-04-25T04:07:24Z</time></trkpt><trkpt lat="45.83909831401096" lon="12.238907902855825"><ele>74.0</ele><time>2026-04-25T04:07:25Z</time></trkpt><trkpt lat="45.83906606688574" lon="12.238823556429022"><ele>74.0</ele><time>2026-04-25T04:07:26Z</time></trkpt><trkpt lat="45.839033246366675" lon="12.238734850343908"><ele>74.14285714285714</ele><time>2026-04-25T04:07:27Z</time></trkpt><trkpt lat="45.83900635067413" lon="12.238647623163029"><ele>74.28571428571428</ele><time>2026-04-25T04:07:28Z</time></trkpt><trkpt lat="45.838975233381085" lon="12.238561515717336"><ele>74.42857142857142</ele><time>2026-04-25T04:07:29Z</time></trkpt><trkpt lat="45.83894437143027" lon="12.238476158695656"><ele>74.57142857142857</ele><time>2026-04-25T04:07:30Z</time></trkpt><trkpt lat="45.838906508712356" lon="12.238383710611407"><ele>74.71428571428571</ele><time>2026-04-25T04:07:31Z</time></trkpt><trkpt lat="45.83887289117304" lon="12.238304716033038"><ele>74.85714285714285</ele><time>2026-04-25T04:07:32Z</time></trkpt><trkpt lat="45.838836655037134" lon="12.238223378479567"><ele>75.0</ele><time>2026-04-25T04:07:33Z</time></trkpt><trkpt lat="45.838814916656446" lon="12.238135676669502"><ele>74.71428571428571</ele><time>2026-04-25T04:07:34Z</time></trkpt><trkpt lat="45.83878320188125" lon="12.238048274433405"><ele>74.42857142857143</ele><time>2026-04-25T04:07:35Z</time></trkpt><trkpt lat="45.83875417903596" lon="12.237966755393467"><ele>74.14285714285714</ele><time>2026-04-25T04:07:36Z</time></trkpt><trkpt lat="45.83872442117068" lon="12.237880949523907"><ele>73.85714285714286</ele><time>2026-04-25T04:07:37Z</time></trkpt><trkpt lat="45.83869551809628" lon="12.237797812565956"><ele>73.57142857142857</ele><time>2026-04-25T04:07:38Z</time></trkpt><trkpt lat="45.83866774592677" lon="12.237713456808837"><ele>73.28571428571428</ele><time>2026-04-25T04:07:39Z</time></trkpt><trkpt lat="45.8386406632294" lon="12.23763018337383"><ele>73.0</ele><time>2026-04-25T04:07:40Z</time></trkpt><trkpt lat="45.83860837410581" lon="12.237548969867062"><ele>73.0</ele><time>2026-04-25T04:07:41Z</time></trkpt><trkpt lat="45.838576579178614" lon="12.237469927638726"><ele>73.0</ele><time>2026-04-25T04:07:42Z</time></trkpt><trkpt lat="45.83852129972639" lon="12.237306121230382"><ele>73.0</ele><time>2026-04-25T04:07:44Z</time></trkpt><trkpt lat="45.83849458190204" lon="12.237217671885924"><ele>73.0</ele><time>2026-04-25T04:07:45Z</time></trkpt><trkpt lat="45.838466675440905" lon="12.237134104851512"><ele>73.0</ele><time>2026-04-25T04:07:46Z</time></trkpt><trkpt lat="45.838433976565256" lon="12.237051486357396"><ele>73.0</ele><time>2026-04-25T04:07:47Z</time></trkpt><trkpt lat="45.83841066333494" lon="12.23696401891372"><ele>72.83333333333333</ele><time>2026-04-25T04:07:48Z</time></trkpt><trkpt lat="45.83837649586666" lon="12.236887109461447"><ele>72.66666666666666</ele><time>2026-04-25T04:07:49Z</time></trkpt><trkpt lat="45.83835010213292" lon="12.236801498370337"><ele>72.5</ele><time>2026-04-25T04:07:50Z</time></trkpt><trkpt lat="45.838314491617595" lon="12.236718657105849"><ele>72.33333333333333</ele><time>2026-04-25T04:07:51Z</time></trkpt><trkpt lat="45.83828769462417" lon="12.236636376063545"><ele>72.16666666666667</ele><time>2026-04-25T04:07:52Z</time></trkpt><trkpt lat="45.83823544896487" lon="12.236473309346913"><ele>72.0</ele><time>2026-04-25T04:07:54Z</time></trkpt><trkpt lat="45.83820464150253" lon="12.236388674577775"><ele>72.5</ele><time>2026-04-25T04:07:55Z</time></trkpt><trkpt lat="45.838168323846396" lon="12.236307655709588"><ele>73.0</ele><time>2026-04-25T04:07:56Z</time></trkpt><trkpt lat="45.83810562433347" lon="12.236158323758861"><ele>73.5</ele><time>2026-04-25T04:07:58Z</time></trkpt><trkpt lat="45.83806710414075" lon="12.236060720090325"><ele>74.0</ele><time>2026-04-25T04:07:59Z</time></trkpt><trkpt lat="45.838009602697824" lon="12.235913821038956"><ele>74.5</ele><time>2026-04-25T04:08:01Z</time></trkpt><trkpt lat="45.83797398913974" lon="12.235836824167519"><ele>75.0</ele><time>2026-04-25T04:08:02Z</time></trkpt><trkpt lat="45.83791364672212" lon="12.235683445383918"><ele>75.0</ele><time>2026-04-25T04:08:04Z</time></trkpt><trkpt lat="45.83785009051122" lon="12.235536272423326"><ele>75.0</ele><time>2026-04-25T04:08:06Z</time></trkpt><trkpt lat="45.83781405911619" lon="12.235456293391694"><ele>75.0</ele><time>2026-04-25T04:08:07Z</time></trkpt><trkpt lat="45.83774537235464" lon="12.235304674940569"><ele>75.0</ele><time>2026-04-25T04:08:09Z</time></trkpt><trkpt lat="45.83770731484993" lon="12.23523161775865"><ele>75.0</ele><time>2026-04-25T04:08:10Z</time></trkpt><trkpt lat="45.837647976274624" lon="12.23508155440684"><ele>75.0</ele><time>2026-04-25T04:08:12Z</time></trkpt><trkpt lat="45.837611924947815" lon="12.235006665803432"><ele>75.0</ele><time>2026-04-25T04:08:13Z</time></trkpt><trkpt lat="45.837545027064095" lon="12.234855622826942"><ele>75.0</ele><time>2026-04-25T04:08:15Z</time></trkpt><trkpt lat="45.837510432235376" lon="12.234773638983093"><ele>75.0</ele><time>2026-04-25T04:08:16Z</time></trkpt><trkpt lat="45.83747116059191" lon="12.234699540965114"><ele>75.0</ele><time>2026-04-25T04:08:17Z</time></trkpt><trkpt lat="45.83741739053277" lon="12.234564571013394"><ele>75.0</ele><time>2026-04-25T04:08:18.999Z</time></trkpt><trkpt lat="45.83736339021182" lon="12.234437945841087"><ele>75.2</ele><time>2026-04-25T04:08:20.999Z</time></trkpt><trkpt lat="45.837313775332994" lon="12.234322900716824"><ele>75.4</ele><time>2026-04-25T04:08:22.999Z</time></trkpt><trkpt lat="45.837261539539085" lon="12.234216326635526"><ele>75.6</ele><time>2026-04-25T04:08:24.999Z</time></trkpt><trkpt lat="45.83726716829645" lon="12.234103576790108"><ele>75.8</ele><time>2026-04-25T04:08:26.999Z</time></trkpt><trkpt lat="45.83735775758487" lon="12.234037097395706"><ele>76.0</ele><time>2026-04-25T04:08:28.999Z</time></trkpt><trkpt lat="45.83744157147836" lon="12.233968517395876"><ele>76.2</ele><time>2026-04-25T04:08:30.999Z</time></trkpt><trkpt lat="45.83752016327432" lon="12.233875895568836"><ele>76.39999999999999</ele><time>2026-04-25T04:08:32.999Z</time></trkpt><trkpt lat="45.837614515557775" lon="12.233803478112716"><ele>76.6</ele><time>2026-04-25T04:08:34.999Z</time></trkpt><trkpt lat="45.83768243162104" lon="12.233678663822708"><ele>76.8</ele><time>2026-04-25T04:08:36.999Z</time></trkpt><trkpt lat="45.83777208146441" lon="12.233613184542843"><ele>77.0</ele><time>2026-04-25T04:08:38.999Z</time></trkpt><trkpt lat="45.83785657764858" lon="12.233526964562573"><ele>77.66666666666667</ele><time>2026-04-25T04:08:40.999Z</time></trkpt><trkpt lat="45.83788741680222" lon="12.233443167432393"><ele>78.33333333333334</ele><time>2026-04-25T04:08:41.999Z</time></trkpt><trkpt lat="45.83798607880444" lon="12.23341967754359"><ele>79.0</ele><time>2026-04-25T04:08:43.999Z</time></trkpt><trkpt lat="45.8380494882121" lon="12.233296670723973"><ele>79.66666666666667</ele><time>2026-04-25T04:08:45.999Z</time></trkpt><trkpt lat="45.838124948524886" lon="12.233224531324044"><ele>80.33333333333333</ele><time>2026-04-25T04:08:47.999Z</time></trkpt><trkpt lat="45.83818999759446" lon="12.233147573185603"><ele>81.0</ele><time>2026-04-25T04:08:49.999Z</time></trkpt><trkpt lat="45.83825110531448" lon="12.233053347519963"><ele>81.0</ele><time>2026-04-25T04:08:51.999Z</time></trkpt><trkpt lat="45.83831653272686" lon="12.232974577226257"><ele>81.0</ele><time>2026-04-25T04:08:53.999Z</time></trkpt><trkpt lat="45.83839764864044" lon="12.232913993616174"><ele>81.0</ele><time>2026-04-25T04:08:55.999Z</time></trkpt><trkpt lat="45.83845626710126" lon="12.232815199078372"><ele>81.0</ele><time>2026-04-25T04:08:57.999Z</time></trkpt><trkpt lat="45.83851545291401" lon="12.232712221484292"><ele>81.0</ele><time>2026-04-25T04:08:59.999Z</time></trkpt><trkpt lat="45.838577752804625" lon="12.232628436437434"><ele>81.0</ele><time>2026-04-25T04:09:01.999Z</time></trkpt><trkpt lat="45.83859866477358" lon="12.232475572441299"><ele>81.0</ele><time>2026-04-25T04:09:03.999Z</time></trkpt><trkpt lat="45.83862981109652" lon="12.232355930970051"><ele>81.0</ele><time>2026-04-25T04:09:05.999Z</time></trkpt><trkpt lat="45.838670656630825" lon="12.23224801396367"><ele>81.0</ele><time>2026-04-25T04:09:07.999Z</time></trkpt><trkpt lat="45.838713300955" lon="12.232152042082044"><ele>81.0</ele><time>2026-04-25T04:09:09.999Z</time></trkpt><trkpt lat="45.83875337161548" lon="12.232060239866028"><ele>81.0</ele><time>2026-04-25T04:09:11.999Z</time></trkpt><trkpt lat="45.838785112884096" lon="12.231962937845365"><ele>81.0</ele><time>2026-04-25T04:09:13.999Z</time></trkpt><trkpt lat="45.838814775996184" lon="12.23187451587627"><ele>81.42857142857143</ele><time>2026-04-25T04:09:15.999Z</time></trkpt><trkpt lat="45.83884023694202" lon="12.23178611243131"><ele>81.85714285714286</ele><time>2026-04-25T04:09:17.999Z</time></trkpt><trkpt lat="45.838862210663265" lon="12.231695635378932"><ele>82.28571428571428</ele><time>2026-04-25T04:09:20Z</time></trkpt><trkpt lat="45.838899609104" lon="12.231621458071643"><ele>82.71428571428572</ele><time>2026-04-25T04:09:22Z</time></trkpt><trkpt lat="45.83895641112068" lon="12.231552920819428"><ele>83.14285714285714</ele><time>2026-04-25T04:09:24Z</time></trkpt><trkpt lat="45.83902102052821" lon="12.231503709718268"><ele>83.57142857142857</ele><time>2026-04-25T04:09:26Z</time></trkpt><trkpt lat="45.83909328571455" lon="12.23146072847097"><ele>84.0</ele><time>2026-04-25T04:09:28Z</time></trkpt><trkpt lat="45.83916236181177" lon="12.231424685593629"><ele>84.42857142857143</ele><time>2026-04-25T04:09:30Z</time></trkpt><trkpt lat="45.839233092036274" lon="12.231384782137924"><ele>84.85714285714286</ele><time>2026-04-25T04:09:32Z</time></trkpt><trkpt lat="45.83930058148063" lon="12.231341375979087"><ele>85.28571428571428</ele><time>2026-04-25T04:09:34Z</time></trkpt><trkpt lat="45.839372680118075" lon="12.231300591828477"><ele>85.71428571428572</ele><time>2026-04-25T04:09:36Z</time></trkpt><trkpt lat="45.83943662217841" lon="12.231257001139953"><ele>86.14285714285714</ele><time>2026-04-25T04:09:38Z</time></trkpt><trkpt lat="45.83950133548092" lon="12.231222494160846"><ele>86.57142857142857</ele><time>2026-04-25T04:09:40Z</time></trkpt><trkpt lat="45.83956722902212" lon="12.231180082490354"><ele>87.0</ele><time>2026-04-25T04:09:42Z</time></trkpt><trkpt lat="45.83963185137944" lon="12.231136752312427"><ele>87.42857142857143</ele><time>2026-04-25T04:09:44Z</time></trkpt><trkpt lat="45.83968898159972" lon="12.231097673985545"><ele>87.85714285714286</ele><time>2026-04-25T04:09:46Z</time></trkpt><trkpt lat="45.839752263857775" lon="12.231060760172207"><ele>88.28571428571428</ele><time>2026-04-25T04:09:48Z</time></trkpt><trkpt lat="45.839812915814065" lon="12.231019400569297"><ele>88.71428571428572</ele><time>2026-04-25T04:09:50Z</time></trkpt><trkpt lat="45.83988217777972" lon="12.230985411464905"><ele>89.14285714285715</ele><time>2026-04-25T04:09:52Z</time></trkpt><trkpt lat="45.83995086706337" lon="12.230942783322115"><ele>89.57142857142857</ele><time>2026-04-25T04:09:54Z</time></trkpt><trkpt lat="45.8400108597633" lon="12.230910141586758"><ele>90.0</ele><time>2026-04-25T04:09:56Z</time></trkpt><trkpt lat="45.84007291951669" lon="12.23086246611364"><ele>90.28571428571428</ele><time>2026-04-25T04:09:58Z</time></trkpt><trkpt lat="45.840139986623456" lon="12.230822532373642"><ele>90.57142857142858</ele><time>2026-04-25T04:10:00Z</time></trkpt><trkpt lat="45.84020510231568" lon="12.230782223362647"><ele>90.85714285714286</ele><time>2026-04-25T04:10:02Z</time></trkpt><trkpt lat="45.84027023568836" lon="12.23074581199581"><ele>91.14285714285714</ele><time>2026-04-25T04:10:04Z</time></trkpt><trkpt lat="45.840339365679796" lon="12.230700261441472"><ele>91.42857142857142</ele><time>2026-04-25T04:10:06Z</time></trkpt><trkpt lat="45.84040494525081" lon="12.230647690136054"><ele>91.71428571428572</ele><time>2026-04-25T04:10:08Z</time></trkpt><trkpt lat="45.84047758930133" lon="12.230612417239014"><ele>92.0</ele><time>2026-04-25T04:10:10Z</time></trkpt><trkpt lat="45.84054730227066" lon="12.230558225016363"><ele>92.0</ele><time>2026-04-25T04:10:12Z</time></trkpt><trkpt lat="45.84061939399391" lon="12.230507426538457"><ele>92.0</ele><time>2026-04-25T04:10:14Z</time></trkpt><trkpt lat="45.840691819066386" lon="12.230461037356461"><ele>92.0</ele><time>2026-04-25T04:10:16Z</time></trkpt><trkpt lat="45.84076349579476" lon="12.230466257312523"><ele>92.0</ele><time>2026-04-25T04:10:18Z</time></trkpt><trkpt lat="45.84085052389657" lon="12.230534345061345"><ele>92.0</ele><time>2026-04-25T04:10:19.999Z</time></trkpt><trkpt lat="45.8408981713128" lon="12.230671062808202"><ele>92.0</ele><time>2026-04-25T04:10:21.999Z</time></trkpt><trkpt lat="45.84101071921112" lon="12.230680660439491"><ele>92.39999999999999</ele><time>2026-04-25T04:10:23.999Z</time></trkpt><trkpt lat="45.8410908779209" lon="12.230611605284789"><ele>92.8</ele><time>2026-04-25T04:10:25.999Z</time></trkpt><trkpt lat="45.8411596918492" lon="12.230515231351497"><ele>93.2</ele><time>2026-04-25T04:10:27.999Z</time></trkpt><trkpt lat="45.8412305384954" lon="12.230436269092122"><ele>93.6</ele><time>2026-04-25T04:10:29.999Z</time></trkpt><trkpt lat="45.841303171886615" lon="12.230337663849241"><ele>94.0</ele><time>2026-04-25T04:10:31.999Z</time></trkpt><trkpt lat="45.84140381311014" lon="12.230262321848675"><ele>94.0</ele><time>2026-04-25T04:10:33.999Z</time></trkpt><trkpt lat="45.84150885745664" lon="12.230239448100683"><ele>94.0</ele><time>2026-04-25T04:10:35.999Z</time></trkpt><trkpt lat="45.8416284577416" lon="12.230243220801912"><ele>94.0</ele><time>2026-04-25T04:10:37.999Z</time></trkpt><trkpt lat="45.84174869059341" lon="12.230292811713111"><ele>94.0</ele><time>2026-04-25T04:10:39.999Z</time></trkpt><trkpt lat="45.841876677201654" lon="12.230317942603541"><ele>93.80000000000001</ele><time>2026-04-25T04:10:41.999Z</time></trkpt><trkpt lat="45.84199540747255" lon="12.230363718732894"><ele>93.60000000000001</ele><time>2026-04-25T04:10:43.999Z</time></trkpt><trkpt lat="45.842058987385634" lon="12.230372438207533"><ele>93.4</ele><time>2026-04-25T04:10:44.999Z</time></trkpt><trkpt lat="45.842153977795576" lon="12.230431763090056"><ele>93.2</ele><time>2026-04-25T04:10:46.999Z</time></trkpt><trkpt lat="45.84226533153407" lon="12.230494592433034"><ele>93.0</ele><time>2026-04-25T04:10:48.999Z</time></trkpt><trkpt lat="45.84234229202378" lon="12.230473883795586"><ele>93.0</ele><time>2026-04-25T04:10:50.999Z</time></trkpt><trkpt lat="45.84238540952139" lon="12.230316442262396"><ele>93.0</ele><time>2026-04-25T04:10:52.999Z</time></trkpt><trkpt lat="45.84239207361525" lon="12.230202363736723"><ele>93.0</ele><time>2026-04-25T04:10:54.999Z</time></trkpt><trkpt lat="45.842376006763864" lon="12.230105357905169"><ele>93.0</ele><time>2026-04-25T04:10:56.999Z</time></trkpt><trkpt lat="45.84239253626794" lon="12.22998133309755"><ele>93.0</ele><time>2026-04-25T04:10:59.999Z</time></trkpt><trkpt lat="45.8424159187329" lon="12.229871347965014"><ele>93.0</ele><time>2026-04-25T04:11:02.999Z</time></trkpt><trkpt lat="45.84245262421297" lon="12.229781956487432"><ele>93.14285714285715</ele><time>2026-04-25T04:11:05.999Z</time></trkpt><trkpt lat="45.84250120720326" lon="12.22969023229532"><ele>93.28571428571429</ele><time>2026-04-25T04:11:08.999Z</time></trkpt><trkpt lat="45.84256148508097" lon="12.229621981467814"><ele>93.42857142857143</ele><time>2026-04-25T04:11:11.999Z</time></trkpt><trkpt lat="45.842622733014956" lon="12.229597254944231"><ele>93.57142857142858</ele><time>2026-04-25T04:11:14.999Z</time></trkpt><trkpt lat="45.84268867955269" lon="12.229586479237314"><ele>93.71428571428571</ele><time>2026-04-25T04:11:17.999Z</time></trkpt><trkpt lat="45.84275322147848" lon="12.229572994668194"><ele>93.85714285714286</ele><time>2026-04-25T04:11:20.999Z</time></trkpt><trkpt lat="45.84282834564395" lon="12.22955460173657"><ele>94.0</ele><time>2026-04-25T04:11:23.999Z</time></trkpt><trkpt lat="45.842893931850334" lon="12.229556814881732"><ele>95.71428571428571</ele><time>2026-04-25T04:11:27Z</time></trkpt><trkpt lat="45.842976521214545" lon="12.22955018797874"><ele>97.42857142857142</ele><time>2026-04-25T04:11:31Z</time></trkpt><trkpt lat="45.84304689352075" lon="12.229556457902905"><ele>99.14285714285714</ele><time>2026-04-25T04:11:34Z</time></trkpt><trkpt lat="45.843113748799745" lon="12.229556162085382"><ele>100.85714285714286</ele><time>2026-04-25T04:11:37Z</time></trkpt><trkpt lat="45.843178203852126" lon="12.229560866893234"><ele>102.57142857142857</ele><time>2026-04-25T04:11:40Z</time></trkpt><trkpt lat="45.84324519028612" lon="12.229547346740212"><ele>104.28571428571429</ele><time>2026-04-25T04:11:43Z</time></trkpt><trkpt lat="45.84332580331543" lon="12.229549658059481"><ele>106.0</ele><time>2026-04-25T04:11:47Z</time></trkpt><trkpt lat="45.84338981045157" lon="12.229543617487415"><ele>106.0</ele><time>2026-04-25T04:11:50Z</time></trkpt><trkpt lat="45.843454856937434" lon="12.22954339405463"><ele>106.0</ele><time>2026-04-25T04:11:53Z</time></trkpt><trkpt lat="45.843528977161284" lon="12.22952663742228"><ele>106.0</ele><time>2026-04-25T04:11:56Z</time></trkpt><trkpt lat="45.84359539647459" lon="12.229511644410238"><ele>106.0</ele><time>2026-04-25T04:11:59Z</time></trkpt><trkpt lat="45.843660671289726" lon="12.229502002705566"><ele>106.0</ele><time>2026-04-25T04:12:02Z</time></trkpt><trkpt lat="45.84372433168213" lon="12.229495300887502"><ele>106.0</ele><time>2026-04-25T04:12:05Z</time></trkpt><trkpt lat="45.84378739301323" lon="12.229501960604546"><ele>106.0</ele><time>2026-04-25T04:12:08Z</time></trkpt><trkpt lat="45.8438552852223" lon="12.229501309124402"><ele>107.83333333333334</ele><time>2026-04-25T04:12:11Z</time></trkpt><trkpt lat="45.84391587149039" lon="12.229449691096459"><ele>109.66666666666667</ele><time>2026-04-25T04:12:14Z</time></trkpt><trkpt lat="45.8439423796582" lon="12.229334847965642"><ele>111.5</ele><time>2026-04-25T04:12:17Z</time></trkpt><trkpt lat="45.84395852156773" lon="12.22921478240275"><ele>113.33333333333334</ele><time>2026-04-25T04:12:20Z</time></trkpt><trkpt lat="45.84398033473255" lon="12.229086177784582"><ele>115.16666666666667</ele><time>2026-04-25T04:12:23Z</time></trkpt><trkpt lat="45.84399550550044" lon="12.228997637202998"><ele>117.0</ele><time>2026-04-25T04:12:25Z</time></trkpt><trkpt lat="45.844026465665976" lon="12.22891789950204"><ele>117.28571428571429</ele><time>2026-04-25T04:12:26.999Z</time></trkpt><trkpt lat="45.844057105111794" lon="12.228827344268243"><ele>117.57142857142858</ele><time>2026-04-25T04:12:28.999Z</time></trkpt><trkpt lat="45.84408691192916" lon="12.228740806586684"><ele>117.85714285714286</ele><time>2026-04-25T04:12:30.999Z</time></trkpt><trkpt lat="45.84411084024251" lon="12.228652683800437"><ele>118.14285714285714</ele><time>2026-04-25T04:12:32.999Z</time></trkpt><trkpt lat="45.84413335549097" lon="12.228557587563142"><ele>118.42857142857143</ele><time>2026-04-25T04:12:34.999Z</time></trkpt><trkpt lat="45.84415528300855" lon="12.22845774139227"><ele>118.71428571428572</ele><time>2026-04-25T04:12:36.999Z</time></trkpt><trkpt lat="45.84418284756549" lon="12.228355785946718"><ele>119.0</ele><time>2026-04-25T04:12:38.999Z</time></trkpt><trkpt lat="45.84422030408218" lon="12.228260777452968"><ele>119.0</ele><time>2026-04-25T04:12:40.999Z</time></trkpt><trkpt lat="45.844256753187764" lon="12.2281720100359"><ele>119.0</ele><time>2026-04-25T04:12:42.999Z</time></trkpt><trkpt lat="45.84431239091307" lon="12.228108924163255"><ele>119.0</ele><time>2026-04-25T04:12:44.999Z</time></trkpt><trkpt lat="45.84438246923281" lon="12.228112076812556"><ele>119.0</ele><time>2026-04-25T04:12:46.999Z</time></trkpt><trkpt lat="45.844456019491965" lon="12.228098343082602"><ele>119.0</ele><time>2026-04-25T04:12:48.999Z</time></trkpt><trkpt lat="45.844530968346106" lon="12.228107201989708"><ele>119.0</ele><time>2026-04-25T04:12:51.999Z</time></trkpt><trkpt lat="45.84460819395481" lon="12.228069756387073"><ele>119.0</ele><time>2026-04-25T04:12:54.999Z</time></trkpt><trkpt lat="45.844674358598795" lon="12.228005196348622"><ele>119.66666666666666</ele><time>2026-04-25T04:12:57.999Z</time></trkpt><trkpt lat="45.84472661820195" lon="12.227949972721895"><ele>120.33333333333333</ele><time>2026-04-25T04:12:59.999Z</time></trkpt><trkpt lat="45.844761827604756" lon="12.227820121918194"><ele>121.0</ele><time>2026-04-25T04:13:03.999Z</time></trkpt><trkpt lat="45.84481508505492" lon="12.22769037191037"><ele>121.66666666666666</ele><time>2026-04-25T04:13:05.999Z</time></trkpt><trkpt lat="45.84484751397032" lon="12.227600909624872"><ele>122.33333333333333</ele><time>2026-04-25T04:13:07.999Z</time></trkpt><trkpt lat="45.844873545649044" lon="12.227497117973357"><ele>123.0</ele><time>2026-04-25T04:13:09.999Z</time></trkpt><trkpt lat="45.84492193261891" lon="12.227414886084306"><ele>123.00000000000001</ele><time>2026-04-25T04:13:11.999Z</time></trkpt><trkpt lat="45.84495469181571" lon="12.227328685449251"><ele>123.0</ele><time>2026-04-25T04:13:13.999Z</time></trkpt><trkpt lat="45.84499038271175" lon="12.22723847902886"><ele>123.00000000000001</ele><time>2026-04-25T04:13:15.999Z</time></trkpt><trkpt lat="45.84501513344005" lon="12.227138485213397"><ele>123.00000000000001</ele><time>2026-04-25T04:13:17.999Z</time></trkpt><trkpt lat="45.84504710666193" lon="12.22705852669257"><ele>123.0</ele><time>2026-04-25T04:13:19.999Z</time></trkpt><trkpt lat="45.84508700120609" lon="12.226964080194257"><ele>123.00000000000001</ele><time>2026-04-25T04:13:22.999Z</time></trkpt><trkpt lat="45.845107760901044" lon="12.22687695384366"><ele>123.00000000000001</ele><time>2026-04-25T04:13:25.999Z</time></trkpt><trkpt lat="45.84514054264307" lon="12.226796548360761"><ele>123.66666666666667</ele><time>2026-04-25T04:13:29.999Z</time></trkpt><trkpt lat="45.845178588527716" lon="12.22671135339685"><ele>124.33333333333334</ele><time>2026-04-25T04:13:33Z</time></trkpt><trkpt lat="45.84521342078936" lon="12.226605709331329"><ele>125.0</ele><time>2026-04-25T04:13:36Z</time></trkpt><trkpt lat="45.845248540427015" lon="12.22651971173691"><ele>125.66666666666667</ele><time>2026-04-25T04:13:40Z</time></trkpt><trkpt lat="45.84530907855734" lon="12.226441826808035"><ele>126.33333333333334</ele><time>2026-04-25T04:13:44Z</time></trkpt><trkpt lat="45.845382724765045" lon="12.226454769398178"><ele>127.0</ele><time>2026-04-25T04:13:48Z</time></trkpt><trkpt lat="45.84544672905144" lon="12.226395080452502"><ele>127.28571428571429</ele><time>2026-04-25T04:13:52Z</time></trkpt><trkpt lat="45.8455174903726" lon="12.226363062378185"><ele>127.57142857142856</ele><time>2026-04-25T04:13:55Z</time></trkpt><trkpt lat="45.84558441780086" lon="12.226352873816298"><ele>127.85714285714285</ele><time>2026-04-25T04:13:58Z</time></trkpt><trkpt lat="45.845659125140294" lon="12.22634414113535"><ele>128.14285714285714</ele><time>2026-04-25T04:14:02Z</time></trkpt><trkpt lat="45.84572400711933" lon="12.226332263444718"><ele>128.42857142857142</ele><time>2026-04-25T04:14:05Z</time></trkpt><trkpt lat="45.8457870552076" lon="12.226310359159752"><ele>128.7142857142857</ele><time>2026-04-25T04:14:08Z</time></trkpt><trkpt lat="45.84584713680021" lon="12.226282035612035"><ele>129.0</ele><time>2026-04-25T04:14:11Z</time></trkpt><trkpt lat="45.84591049997366" lon="12.226207065878125"><ele>128.83333333333334</ele><time>2026-04-25T04:14:14Z</time></trkpt><trkpt lat="45.8459739304009" lon="12.22613754631321"><ele>128.66666666666666</ele><time>2026-04-25T04:14:17Z</time></trkpt><trkpt lat="45.84603883920221" lon="12.226055884876722"><ele>128.5</ele><time>2026-04-25T04:14:20Z</time></trkpt><trkpt lat="45.84610635310725" lon="12.225977912717951"><ele>128.33333333333331</ele><time>2026-04-25T04:14:23Z</time></trkpt><trkpt lat="45.84617227017541" lon="12.225896548402849"><ele>128.16666666666666</ele><time>2026-04-25T04:14:26Z</time></trkpt><trkpt lat="45.846237806269315" lon="12.225823466701454"><ele>128.0</ele><time>2026-04-25T04:14:29Z</time></trkpt><trkpt lat="45.846303910541764" lon="12.225744324502417"><ele>127.99999999999999</ele><time>2026-04-25T04:14:31.999Z</time></trkpt><trkpt lat="45.84636775782335" lon="12.225673849605576"><ele>128.0</ele><time>2026-04-25T04:14:34.999Z</time></trkpt><trkpt lat="45.84642304882213" lon="12.22560083506143"><ele>128.0</ele><time>2026-04-25T04:14:37.999Z</time></trkpt><trkpt lat="45.84647480663066" lon="12.225495255748656"><ele>128.0</ele><time>2026-04-25T04:14:40.999Z</time></trkpt><trkpt lat="45.84648006637283" lon="12.225383469056363"><ele>127.99999999999999</ele><time>2026-04-25T04:14:43.999Z</time></trkpt><trkpt lat="45.84646871517989" lon="12.225275351305088"><ele>128.0</ele><time>2026-04-25T04:14:46.999Z</time></trkpt><trkpt lat="45.846445448334386" lon="12.22518539082992"><ele>129.14285714285714</ele><time>2026-04-25T04:14:49.999Z</time></trkpt><trkpt lat="45.846407253001935" lon="12.225085745816179"><ele>130.28571428571428</ele><time>2026-04-25T04:14:53.999Z</time></trkpt><trkpt lat="45.84634791558629" lon="12.22501656580619"><ele>131.42857142857142</ele><time>2026-04-25T04:14:56.999Z</time></trkpt><trkpt lat="45.84631029066741" lon="12.224943713148772"><ele>132.57142857142856</ele><time>2026-04-25T04:14:59.999Z</time></trkpt><trkpt lat="45.84632810417857" lon="12.22482772345052"><ele>133.71428571428572</ele><time>2026-04-25T04:15:03.999Z</time></trkpt><trkpt lat="45.84636080024434" lon="12.224748260942283"><ele>134.85714285714283</ele><time>2026-04-25T04:15:07.999Z</time></trkpt><trkpt lat="45.84641350954156" lon="12.224690501284515"><ele>136.0</ele><time>2026-04-25T04:15:10.999Z</time></trkpt><trkpt lat="45.84647457422799" lon="12.22460525379603"><ele>135.8</ele><time>2026-04-25T04:15:14.999Z</time></trkpt><trkpt lat="45.84651986334928" lon="12.22451861346264"><ele>135.6</ele><time>2026-04-25T04:15:17.999Z</time></trkpt><trkpt lat="45.84659481342853" lon="12.224438240964814"><ele>135.4</ele><time>2026-04-25T04:15:20.999Z</time></trkpt><trkpt lat="45.84667238263921" lon="12.224326546792149"><ele>135.2</ele><time>2026-04-25T04:15:22.999Z</time></trkpt><trkpt lat="45.846730264039564" lon="12.224249012886977"><ele>135.0</ele><time>2026-04-25T04:15:23.999Z</time></trkpt><trkpt lat="45.846822584229685" lon="12.22414092881331"><ele>135.0</ele><time>2026-04-25T04:15:25.999Z</time></trkpt><trkpt lat="45.84689356505492" lon="12.22411381747958"><ele>135.0</ele><time>2026-04-25T04:15:26.999Z</time></trkpt><trkpt lat="45.846941420213206" lon="12.224053554858736"><ele>135.0</ele><time>2026-04-25T04:15:27.999Z</time></trkpt><trkpt lat="45.84699055820401" lon="12.223990289805668"><ele>135.0</ele><time>2026-04-25T04:15:28.999Z</time></trkpt><trkpt lat="45.8470413206363" lon="12.223923722585694"><ele>135.0</ele><time>2026-04-25T04:15:29.999Z</time></trkpt><trkpt lat="45.84712243036918" lon="12.223785058349783"><ele>135.0</ele><time>2026-04-25T04:15:31.999Z</time></trkpt><trkpt lat="45.84718224702635" lon="12.22373904084985"><ele>135.0</ele><time>2026-04-25T04:15:32.999Z</time></trkpt><trkpt lat="45.84728787433221" lon="12.223608630948398"><ele>135.0</ele><time>2026-04-25T04:15:34.999Z</time></trkpt><trkpt lat="45.84734539221608" lon="12.223537617834678"><ele>135.0</ele><time>2026-04-25T04:15:35.999Z</time></trkpt><trkpt lat="45.84739913834699" lon="12.223471274686124"><ele>135.0</ele><time>2026-04-25T04:15:37Z</time></trkpt><trkpt lat="45.84745618079974" lon="12.22339997184834"><ele>135.0</ele><time>2026-04-25T04:15:38Z</time></trkpt><trkpt lat="45.84751100459785" lon="12.22333144230784"><ele>135.0</ele><time>2026-04-25T04:15:39Z</time></trkpt><trkpt lat="45.84756042640712" lon="12.223269279755632"><ele>135.0</ele><time>2026-04-25T04:15:40Z</time></trkpt><trkpt lat="45.84761438132555" lon="12.223200495691982"><ele>135.0</ele><time>2026-04-25T04:15:41Z</time></trkpt><trkpt lat="45.84769295246028" lon="12.223100329850096"><ele>135.0</ele><time>2026-04-25T04:15:43Z</time></trkpt><trkpt lat="45.84777720971183" lon="12.222992915161011"><ele>135.0</ele><time>2026-04-25T04:15:45Z</time></trkpt><trkpt lat="45.84785120612716" lon="12.222898433305193"><ele>135.0</ele><time>2026-04-25T04:15:47Z</time></trkpt><trkpt lat="45.84790749464003" lon="12.222825090884854"><ele>135.5</ele><time>2026-04-25T04:15:49Z</time></trkpt><trkpt lat="45.84795960671368" lon="12.222757190200873"><ele>136.0</ele><time>2026-04-25T04:15:51Z</time></trkpt><trkpt lat="45.84802843346379" lon="12.222667510832657"><ele>136.5</ele><time>2026-04-25T04:15:54Z</time></trkpt><trkpt lat="45.848075322886565" lon="12.222606415331567"><ele>137.0</ele><time>2026-04-25T04:15:56Z</time></trkpt><trkpt lat="45.848145147072024" lon="12.22251543636553"><ele>137.5</ele><time>2026-04-25T04:15:59Z</time></trkpt><trkpt lat="45.84818241425655" lon="12.222436853178793"><ele>138.0</ele><time>2026-04-25T04:16:01Z</time></trkpt><trkpt lat="45.84824508627281" lon="12.222384940193749"><ele>138.0</ele><time>2026-04-25T04:16:03Z</time></trkpt><trkpt lat="45.84829349797907" lon="12.22232148341803"><ele>138.0</ele><time>2026-04-25T04:16:05Z</time></trkpt><trkpt lat="45.848340214035474" lon="12.22226024923545"><ele>138.0</ele><time>2026-04-25T04:16:07Z</time></trkpt><trkpt lat="45.84838208256291" lon="12.22218245435762"><ele>138.0</ele><time>2026-04-25T04:16:10Z</time></trkpt><trkpt lat="45.8484498958284" lon="12.222116481379414"><ele>138.0</ele><time>2026-04-25T04:16:13Z</time></trkpt><trkpt lat="45.84850419510305" lon="12.22204498273251"><ele>138.0</ele><time>2026-04-25T04:16:16Z</time></trkpt><trkpt lat="45.848529065641266" lon="12.22193968550588"><ele>138.0</ele><time>2026-04-25T04:16:19Z</time></trkpt><trkpt lat="45.848592432950625" lon="12.22187112967489"><ele>140.0</ele><time>2026-04-25T04:16:23Z</time></trkpt><trkpt lat="45.84865267415125" lon="12.221795731326743"><ele>142.0</ele><time>2026-04-25T04:16:27Z</time></trkpt><trkpt lat="45.848706023497776" lon="12.221735095746075"><ele>144.0</ele><time>2026-04-25T04:16:30Z</time></trkpt><trkpt lat="45.84875826403728" lon="12.221677965208912"><ele>146.0</ele><time>2026-04-25T04:16:33Z</time></trkpt><trkpt lat="45.8488167316674" lon="12.221627505898478"><ele>148.0</ele><time>2026-04-25T04:16:36Z</time></trkpt><trkpt lat="45.84888495122547" lon="12.221569713480001"><ele>150.0</ele><time>2026-04-25T04:16:40Z</time></trkpt><trkpt lat="45.84895917800687" lon="12.22153377426931"><ele>152.0</ele><time>2026-04-25T04:16:43.999Z</time></trkpt><trkpt lat="45.84902551255825" lon="12.221475275721579"><ele>152.0</ele><time>2026-04-25T04:16:48.999Z</time></trkpt><trkpt lat="45.84909501833784" lon="12.221420778775292"><ele>152.0</ele><time>2026-04-25T04:16:52.999Z</time></trkpt><trkpt lat="45.849160230989504" lon="12.221351604256991"><ele>152.0</ele><time>2026-04-25T04:16:55.999Z</time></trkpt><trkpt lat="45.84921644668308" lon="12.221287311012349"><ele>152.0</ele><time>2026-04-25T04:16:58.999Z</time></trkpt><trkpt lat="45.849284694286766" lon="12.221250031047102"><ele>152.0</ele><time>2026-04-25T04:17:01.999Z</time></trkpt><trkpt lat="45.84936634777435" lon="12.221234127694196"><ele>152.0</ele><time>2026-04-25T04:17:04.999Z</time></trkpt><trkpt lat="45.84943481326283" lon="12.221208751775704"><ele>153.0</ele><time>2026-04-25T04:17:07.999Z</time></trkpt><trkpt lat="45.84950403851186" lon="12.221183195409088"><ele>154.0</ele><time>2026-04-25T04:17:10.999Z</time></trkpt><trkpt lat="45.849573753987805" lon="12.221168816671312"><ele>155.0</ele><time>2026-04-25T04:17:13.999Z</time></trkpt><trkpt lat="45.84963842822697" lon="12.221132490727372"><ele>156.0</ele><time>2026-04-25T04:17:16.999Z</time></trkpt><trkpt lat="45.84970199866232" lon="12.221103498420717"><ele>157.0</ele><time>2026-04-25T04:17:19.999Z</time></trkpt><trkpt lat="45.84977113562483" lon="12.22107979071518"><ele>158.0</ele><time>2026-04-25T04:17:22.999Z</time></trkpt><trkpt lat="45.84984177936344" lon="12.221053591303914"><ele>159.0</ele><time>2026-04-25T04:17:26.999Z</time></trkpt><trkpt lat="45.84990694507435" lon="12.221023973317992"><ele>159.0</ele><time>2026-04-25T04:17:30.999Z</time></trkpt><trkpt lat="45.849967046006675" lon="12.220987820443062"><ele>159.0</ele><time>2026-04-25T04:17:33.999Z</time></trkpt><trkpt lat="45.850032138314404" lon="12.220965690605832"><ele>159.0</ele><time>2026-04-25T04:17:36.999Z</time></trkpt><trkpt lat="45.85009913220887" lon="12.220946818546523"><ele>159.0</ele><time>2026-04-25T04:17:40.999Z</time></trkpt><trkpt lat="45.85016021711773" lon="12.220911895250762"><ele>159.0</ele><time>2026-04-25T04:17:44Z</time></trkpt><trkpt lat="45.850234615018756" lon="12.220900838487424"><ele>159.0</ele><time>2026-04-25T04:17:48Z</time></trkpt><trkpt lat="45.850296151456554" lon="12.220881045308873"><ele>159.0</ele><time>2026-04-25T04:17:51Z</time></trkpt><trkpt lat="45.85035782734525" lon="12.22085980188393"><ele>160.66666666666666</ele><time>2026-04-25T04:17:54Z</time></trkpt><trkpt lat="45.85043325695917" lon="12.220830405600838"><ele>162.33333333333334</ele><time>2026-04-25T04:17:58Z</time></trkpt><trkpt lat="45.85049381753025" lon="12.22080470423166"><ele>164.0</ele><time>2026-04-25T04:18:01Z</time></trkpt><trkpt lat="45.85055871532176" lon="12.220782096404282"><ele>165.66666666666669</ele><time>2026-04-25T04:18:04Z</time></trkpt><trkpt lat="45.85063436237659" lon="12.220746122108128"><ele>167.33333333333334</ele><time>2026-04-25T04:18:08Z</time></trkpt><trkpt lat="45.850715904057324" lon="12.22072299806192"><ele>169.0</ele><time>2026-04-25T04:18:12Z</time></trkpt><trkpt lat="45.85079258538447" lon="12.220692063543133"><ele>169.0</ele><time>2026-04-25T04:18:16Z</time></trkpt><trkpt lat="45.850855262306524" lon="12.220667565251448"><ele>169.0</ele><time>2026-04-25T04:18:19Z</time></trkpt><trkpt lat="45.850918394777175" lon="12.220641683595185"><ele>169.0</ele><time>2026-04-25T04:18:22Z</time></trkpt><trkpt lat="45.85098275920185" lon="12.22061479317194"><ele>169.0</ele><time>2026-04-25T04:18:25Z</time></trkpt><trkpt lat="45.851057931021245" lon="12.220586845202568"><ele>169.0</ele><time>2026-04-25T04:18:29Z</time></trkpt><trkpt lat="45.85113617544172" lon="12.220562224092651"><ele>169.0</ele><time>2026-04-25T04:18:33Z</time></trkpt><trkpt lat="45.851216667090426" lon="12.220529169322196"><ele>169.0</ele><time>2026-04-25T04:18:37Z</time></trkpt><trkpt lat="45.85128142494705" lon="12.22051661805107"><ele>170.5</ele><time>2026-04-25T04:18:40Z</time></trkpt><trkpt lat="45.85135753720725" lon="12.220538043627615"><ele>172.0</ele><time>2026-04-25T04:18:43.999Z</time></trkpt><trkpt lat="45.85140136460524" lon="12.22062254299716"><ele>173.5</ele><time>2026-04-25T04:18:46.999Z</time></trkpt><trkpt lat="45.851421039149145" lon="12.22071602236576"><ele>175.0</ele><time>2026-04-25T04:18:48.999Z</time></trkpt><trkpt lat="45.85143166484847" lon="12.220848560251678"><ele>176.5</ele><time>2026-04-25T04:18:51.999Z</time></trkpt><trkpt lat="45.851445257024615" lon="12.220951486942331"><ele>178.0</ele><time>2026-04-25T04:18:53.999Z</time></trkpt><trkpt lat="45.851456919566935" lon="12.221055679552704"><ele>178.0</ele><time>2026-04-25T04:18:55.999Z</time></trkpt><trkpt lat="45.851476697154695" lon="12.221166586150549"><ele>178.0</ele><time>2026-04-25T04:18:57.999Z</time></trkpt><trkpt lat="45.85149781077137" lon="12.221288038359932"><ele>178.0</ele><time>2026-04-25T04:18:59.999Z</time></trkpt><trkpt lat="45.85151870567778" lon="12.221416133505828"><ele>178.0</ele><time>2026-04-25T04:19:01.999Z</time></trkpt><trkpt lat="45.85155134599621" lon="12.22153922245829"><ele>178.0</ele><time>2026-04-25T04:19:03.999Z</time></trkpt><trkpt lat="45.851563970457185" lon="12.22166984333776"><ele>178.0</ele><time>2026-04-25T04:19:05.999Z</time></trkpt><trkpt lat="45.851583631742784" lon="12.221791015671979"><ele>177.66666666666669</ele><time>2026-04-25T04:19:07.999Z</time></trkpt><trkpt lat="45.85160403795965" lon="12.221913961578771"><ele>177.33333333333334</ele><time>2026-04-25T04:19:09.999Z</time></trkpt><trkpt lat="45.851619402145566" lon="12.222038198970655"><ele>177.0</ele><time>2026-04-25T04:19:11.999Z</time></trkpt><trkpt lat="45.85164185078235" lon="12.222160132167382"><ele>176.66666666666666</ele><time>2026-04-25T04:19:13.999Z</time></trkpt><trkpt lat="45.8516633204738" lon="12.222277027305969"><ele>176.33333333333331</ele><time>2026-04-25T04:19:15.999Z</time></trkpt><trkpt lat="45.851687310722106" lon="12.222392293589932"><ele>176.0</ele><time>2026-04-25T04:19:17.999Z</time></trkpt><trkpt lat="45.85174148001009" lon="12.222485384367474"><ele>176.0</ele><time>2026-04-25T04:19:19.999Z</time></trkpt><trkpt lat="45.85180336888843" lon="12.222505174898318"><ele>176.0</ele><time>2026-04-25T04:19:22.999Z</time></trkpt><trkpt lat="45.85189084233313" lon="12.222489717631044"><ele>176.0</ele><time>2026-04-25T04:19:24.999Z</time></trkpt><trkpt lat="45.851971174817294" lon="12.222469774133042"><ele>176.0</ele><time>2026-04-25T04:19:26.999Z</time></trkpt><trkpt lat="45.85204031198351" lon="12.222463573137265"><ele>176.0</ele><time>2026-04-25T04:19:28.999Z</time></trkpt><trkpt lat="45.852107250263174" lon="12.222468340975706"><ele>176.0</ele><time>2026-04-25T04:19:30.999Z</time></trkpt><trkpt lat="45.85216887953256" lon="12.22249631201172"><ele>176.0</ele><time>2026-04-25T04:19:32.999Z</time></trkpt><trkpt lat="45.85221450635978" lon="12.222591667513555"><ele>176.0</ele><time>2026-04-25T04:19:34.999Z</time></trkpt><trkpt lat="45.852240204143826" lon="12.222728053252034"><ele>176.0</ele><time>2026-04-25T04:19:36.999Z</time></trkpt><trkpt lat="45.85228496418793" lon="12.22287784290204"><ele>176.0</ele><time>2026-04-25T04:19:38.999Z</time></trkpt><trkpt lat="45.85232126128715" lon="12.22304362632492"><ele>176.0</ele><time>2026-04-25T04:19:40.999Z</time></trkpt><trkpt lat="45.852341357394856" lon="12.223133580097217"><ele>176.0</ele><time>2026-04-25T04:19:41.999Z</time></trkpt><trkpt lat="45.852367102258114" lon="12.223234658422825"><ele>175.0</ele><time>2026-04-25T04:19:42.999Z</time></trkpt><trkpt lat="45.85239107083365" lon="12.223341917501713"><ele>174.0</ele><time>2026-04-25T04:19:43.999Z</time></trkpt><trkpt lat="45.85242129210636" lon="12.223438314593885"><ele>173.0</ele><time>2026-04-25T04:19:44.999Z</time></trkpt><trkpt lat="45.85244910960424" lon="12.223547485018178"><ele>172.0</ele><time>2026-04-25T04:19:45.999Z</time></trkpt><trkpt lat="45.85247828075576" lon="12.223656242675188"><ele>171.0</ele><time>2026-04-25T04:19:46.999Z</time></trkpt><trkpt lat="45.85248502364805" lon="12.22377668654577"><ele>170.0</ele><time>2026-04-25T04:19:47.999Z</time></trkpt><trkpt lat="45.85247908321076" lon="12.22390283666559"><ele>169.8</ele><time>2026-04-25T04:19:49Z</time></trkpt><trkpt lat="45.85247326213698" lon="12.224024199176847"><ele>169.6</ele><time>2026-04-25T04:19:50Z</time></trkpt><trkpt lat="45.85244567451438" lon="12.224145297655825"><ele>169.39999999999998</ele><time>2026-04-25T04:19:51Z</time></trkpt><trkpt lat="45.852425973947945" lon="12.224274982630105"><ele>169.2</ele><time>2026-04-25T04:19:52Z</time></trkpt><trkpt lat="45.852403679126034" lon="12.224388211158669"><ele>169.0</ele><time>2026-04-25T04:19:53Z</time></trkpt><trkpt lat="45.85235831965224" lon="12.224523746500617"><ele>169.0</ele><time>2026-04-25T04:19:54Z</time></trkpt><trkpt lat="45.85232704333393" lon="12.224653927017934"><ele>169.0</ele><time>2026-04-25T04:19:55Z</time></trkpt><trkpt lat="45.85230248742983" lon="12.22476305017963"><ele>169.0</ele><time>2026-04-25T04:19:56Z</time></trkpt><trkpt lat="45.85228335312318" lon="12.22488012180945"><ele>169.0</ele><time>2026-04-25T04:19:57Z</time></trkpt><trkpt lat="45.852270766443176" lon="12.224984905267144"><ele>169.0</ele><time>2026-04-25T04:19:58Z</time></trkpt><trkpt lat="45.85225195510599" lon="12.225090019367265"><ele>169.0</ele><time>2026-04-25T04:19:59Z</time></trkpt><trkpt lat="45.852222880222975" lon="12.225202181505276"><ele>168.14285714285714</ele><time>2026-04-25T04:20:00Z</time></trkpt><trkpt lat="45.852189841419026" lon="12.225320588018132"><ele>167.28571428571428</ele><time>2026-04-25T04:20:01Z</time></trkpt><trkpt lat="45.85216610101392" lon="12.225415393599038"><ele>166.42857142857144</ele><time>2026-04-25T04:20:02Z</time></trkpt><trkpt lat="45.852124712748875" lon="12.225503022517906"><ele>165.57142857142856</ele><time>2026-04-25T04:20:03Z</time></trkpt><trkpt lat="45.85208167912878" lon="12.225589913270078"><ele>164.7142857142857</ele><time>2026-04-25T04:20:04Z</time></trkpt><trkpt lat="45.85204152343266" lon="12.225668662904855"><ele>163.85714285714286</ele><time>2026-04-25T04:20:05Z</time></trkpt><trkpt lat="45.852004859109506" lon="12.225745479870389"><ele>163.0</ele><time>2026-04-25T04:20:06Z</time></trkpt><trkpt lat="45.85196748176918" lon="12.225825409436935"><ele>161.8</ele><time>2026-04-25T04:20:07Z</time></trkpt><trkpt lat="45.85192604391909" lon="12.225893624877195"><ele>160.60000000000002</ele><time>2026-04-25T04:20:08Z</time></trkpt><trkpt lat="45.85187565178137" lon="12.225978056640633"><ele>159.39999999999998</ele><time>2026-04-25T04:20:09Z</time></trkpt><trkpt lat="45.85183830948613" lon="12.226070120120418"><ele>158.2</ele><time>2026-04-25T04:20:10Z</time></trkpt><trkpt lat="45.851760657581664" lon="12.226206109043245"><ele>157.0</ele><time>2026-04-25T04:20:12Z</time></trkpt><trkpt lat="45.85168807241306" lon="12.22633961274052"><ele>156.57142857142856</ele><time>2026-04-25T04:20:14Z</time></trkpt><trkpt lat="45.85165558658083" lon="12.226418962335703"><ele>156.14285714285714</ele><time>2026-04-25T04:20:15Z</time></trkpt><trkpt lat="45.851614281123744" lon="12.226488500656533"><ele>155.71428571428572</ele><time>2026-04-25T04:20:16Z</time></trkpt><trkpt lat="45.851582174257096" lon="12.226568082777344"><ele>155.28571428571428</ele><time>2026-04-25T04:20:17Z</time></trkpt><trkpt lat="45.85154764921065" lon="12.226652977603658"><ele>154.85714285714286</ele><time>2026-04-25T04:20:18Z</time></trkpt><trkpt lat="45.85149837396052" lon="12.226713574848318"><ele>154.42857142857142</ele><time>2026-04-25T04:20:19Z</time></trkpt><trkpt lat="45.85144321791415" lon="12.226844924775474"><ele>154.0</ele><time>2026-04-25T04:20:21Z</time></trkpt><trkpt lat="45.851422481842256" lon="12.226966836060695"><ele>153.66666666666669</ele><time>2026-04-25T04:20:23Z</time></trkpt><trkpt lat="45.8514354038938" lon="12.227063571971998"><ele>153.33333333333334</ele><time>2026-04-25T04:20:44Z</time></trkpt><trkpt lat="45.85148601460637" lon="12.227156154083652"><ele>153.0</ele><time>2026-04-25T04:20:46Z</time></trkpt><trkpt lat="45.85157149433902" lon="12.227228100237022"><ele>152.66666666666666</ele><time>2026-04-25T04:20:48Z</time></trkpt><trkpt lat="45.851688481942645" lon="12.227283715601198"><ele>152.33333333333331</ele><time>2026-04-25T04:20:50Z</time></trkpt><trkpt lat="45.85174620967803" lon="12.22732070301939"><ele>152.0</ele><time>2026-04-25T04:20:50.999Z</time></trkpt><trkpt lat="45.85180961887484" lon="12.227359343754204"><ele>150.33333333333331</ele><time>2026-04-25T04:20:51.999Z</time></trkpt><trkpt lat="45.851875688645066" lon="12.227391346569574"><ele>148.66666666666666</ele><time>2026-04-25T04:20:52.999Z</time></trkpt><trkpt lat="45.85193551086462" lon="12.227435889915363"><ele>147.0</ele><time>2026-04-25T04:20:53.999Z</time></trkpt><trkpt lat="45.85199774864378" lon="12.227490503111499"><ele>145.33333333333334</ele><time>2026-04-25T04:20:54.999Z</time></trkpt><trkpt lat="45.85205223207278" lon="12.227575996382905"><ele>143.66666666666669</ele><time>2026-04-25T04:20:55.999Z</time></trkpt><trkpt lat="45.85205572349327" lon="12.227700750076488"><ele>142.0</ele><time>2026-04-25T04:20:56.999Z</time></trkpt><trkpt lat="45.852056387229496" lon="12.227823581703898"><ele>142.0</ele><time>2026-04-25T04:20:57.999Z</time></trkpt><trkpt lat="45.85207085644151" lon="12.22795477250675"><ele>142.0</ele><time>2026-04-25T04:20:58.999Z</time></trkpt><trkpt lat="45.85206873336571" lon="12.22808877062867"><ele>142.0</ele><time>2026-04-25T04:20:59.999Z</time></trkpt><trkpt lat="45.85207112619214" lon="12.228222759754882"><ele>142.0</ele><time>2026-04-25T04:21:00.999Z</time></trkpt><trkpt lat="45.85206883977859" lon="12.22834988601963"><ele>142.0</ele><time>2026-04-25T04:21:01.999Z</time></trkpt><trkpt lat="45.8520775464057" lon="12.228490645959463"><ele>139.79999999999998</ele><time>2026-04-25T04:21:02.999Z</time></trkpt><trkpt lat="45.85208845844007" lon="12.228639173131159"><ele>137.6</ele><time>2026-04-25T04:21:03.999Z</time></trkpt><trkpt lat="45.85209786275142" lon="12.228785153128971"><ele>135.39999999999998</ele><time>2026-04-25T04:21:04.999Z</time></trkpt><trkpt lat="45.852092364026255" lon="12.228932791181164"><ele>133.2</ele><time>2026-04-25T04:21:05.999Z</time></trkpt><trkpt lat="45.852098233998944" lon="12.229077793333726"><ele>131.0</ele><time>2026-04-25T04:21:06.999Z</time></trkpt><trkpt lat="45.85210379075558" lon="12.2292150581256"><ele>130.0</ele><time>2026-04-25T04:21:07.999Z</time></trkpt><trkpt lat="45.85210896610176" lon="12.229342901055324"><ele>129.0</ele><time>2026-04-25T04:21:08.999Z</time></trkpt><trkpt lat="45.85212725716388" lon="12.229459745940913"><ele>128.0</ele><time>2026-04-25T04:21:09.999Z</time></trkpt><trkpt lat="45.852112387608386" lon="12.229574053013643"><ele>127.0</ele><time>2026-04-25T04:21:10.999Z</time></trkpt><trkpt lat="45.85210797112021" lon="12.22969953009985"><ele>125.99999999999999</ele><time>2026-04-25T04:21:11.999Z</time></trkpt><trkpt lat="45.85210686451414" lon="12.229813112924248"><ele>125.0</ele><time>2026-04-25T04:21:12.999Z</time></trkpt><trkpt lat="45.85209681954483" lon="12.229930680288414"><ele>124.0</ele><time>2026-04-25T04:21:13.999Z</time></trkpt><trkpt lat="45.8520659691531" lon="12.2300595158209"><ele>123.0</ele><time>2026-04-25T04:21:14.999Z</time></trkpt><trkpt lat="45.852021882535354" lon="12.230184534896495"><ele>122.0</ele><time>2026-04-25T04:21:15.999Z</time></trkpt><trkpt lat="45.85196893972268" lon="12.230307055171354"><ele>121.0</ele><time>2026-04-25T04:21:16.999Z</time></trkpt><trkpt lat="45.85192139578755" lon="12.230431891787973"><ele>120.0</ele><time>2026-04-25T04:21:17.999Z</time></trkpt><trkpt lat="45.85187078309356" lon="12.230548392174414"><ele>119.4</ele><time>2026-04-25T04:21:18.999Z</time></trkpt><trkpt lat="45.851819067642204" lon="12.230669440538474"><ele>118.8</ele><time>2026-04-25T04:21:19.999Z</time></trkpt><trkpt lat="45.8517627800131" lon="12.230792365665042"><ele>118.19999999999999</ele><time>2026-04-25T04:21:20.999Z</time></trkpt><trkpt lat="45.85170191981305" lon="12.230919622060057"><ele>117.6</ele><time>2026-04-25T04:21:21.999Z</time></trkpt><trkpt lat="45.851653014585644" lon="12.231025363555911"><ele>117.0</ele><time>2026-04-25T04:21:22.999Z</time></trkpt><trkpt lat="45.85159899510602" lon="12.23112563379355"><ele>118.5</ele><time>2026-04-25T04:21:23.999Z</time></trkpt><trkpt lat="45.85154346306493" lon="12.23122226253599"><ele>120.0</ele><time>2026-04-25T04:21:24.999Z</time></trkpt><trkpt lat="45.85149358761515" lon="12.231317860728492"><ele>121.5</ele><time>2026-04-25T04:21:25.999Z</time></trkpt><trkpt lat="45.851428832297" lon="12.231392413193943"><ele>123.0</ele><time>2026-04-25T04:21:26.999Z</time></trkpt><trkpt lat="45.8513788852139" lon="12.231456975579935"><ele>124.5</ele><time>2026-04-25T04:21:27.999Z</time></trkpt><trkpt lat="45.85132382102338" lon="12.23151874422533"><ele>126.0</ele><time>2026-04-25T04:21:28.999Z</time></trkpt><trkpt lat="45.85123679648097" lon="12.231605095492364"><ele>126.0</ele><time>2026-04-25T04:21:30.999Z</time></trkpt><trkpt lat="45.851176231036646" lon="12.231654738639701"><ele>126.0</ele><time>2026-04-25T04:21:32.999Z</time></trkpt><trkpt lat="45.851184285117334" lon="12.231817938869664"><ele>126.0</ele><time>2026-04-25T04:21:36.999Z</time></trkpt><trkpt lat="45.851250674070705" lon="12.23190329483357"><ele>126.0</ele><time>2026-04-25T04:21:38.999Z</time></trkpt><trkpt lat="45.85131995166375" lon="12.232020436457843"><ele>126.0</ele><time>2026-04-25T04:21:40.999Z</time></trkpt><trkpt lat="45.85141790742517" lon="12.232130153490916"><ele>126.0</ele><time>2026-04-25T04:21:42.999Z</time></trkpt><trkpt lat="45.85147773703306" lon="12.232174241424207"><ele>126.0</ele><time>2026-04-25T04:21:43.999Z</time></trkpt><trkpt lat="45.85153868206176" lon="12.232202340659216"><ele>126.0</ele><time>2026-04-25T04:21:44.999Z</time></trkpt><trkpt lat="45.85160106439022" lon="12.232227773038531"><ele>126.0</ele><time>2026-04-25T04:21:45.999Z</time></trkpt><trkpt lat="45.8516815736916" lon="12.232204504129356"><ele>126.0</ele><time>2026-04-25T04:21:46.999Z</time></trkpt><trkpt lat="45.85174575227212" lon="12.232173598586758"><ele>126.0</ele><time>2026-04-25T04:21:47.999Z</time></trkpt><trkpt lat="45.851809512758244" lon="12.232152987890904"><ele>126.0</ele><time>2026-04-25T04:21:48.999Z</time></trkpt><trkpt lat="45.851913134712184" lon="12.232075415182027"><ele>123.66666666666667</ele><time>2026-04-25T04:21:50.999Z</time></trkpt><trkpt lat="45.85200355225701" lon="12.232023094395053"><ele>121.33333333333334</ele><time>2026-04-25T04:21:52.999Z</time></trkpt><trkpt lat="45.85210171674513" lon="12.231910136871853"><ele>119.0</ele><time>2026-04-25T04:21:55Z</time></trkpt><trkpt lat="45.852153096433675" lon="12.23184276253745"><ele>116.66666666666667</ele><time>2026-04-25T04:21:56Z</time></trkpt><trkpt lat="45.852207620580586" lon="12.231778373548595"><ele>114.33333333333334</ele><time>2026-04-25T04:21:57Z</time></trkpt><trkpt lat="45.85227616710986" lon="12.231707715420896"><ele>112.0</ele><time>2026-04-25T04:21:58Z</time></trkpt><trkpt lat="45.85237085110891" lon="12.23159866511223"><ele>112.00000000000001</ele><time>2026-04-25T04:22:00Z</time></trkpt><trkpt lat="45.85244021289183" lon="12.231528057304379"><ele>112.0</ele><time>2026-04-25T04:22:01Z</time></trkpt><trkpt lat="45.8525053450555" lon="12.23143877962782"><ele>112.0</ele><time>2026-04-25T04:22:02Z</time></trkpt><trkpt lat="45.852561920735305" lon="12.23135112014472"><ele>112.0</ele><time>2026-04-25T04:22:03Z</time></trkpt><trkpt lat="45.85261564526787" lon="12.231259251721202"><ele>112.00000000000001</ele><time>2026-04-25T04:22:04Z</time></trkpt><trkpt lat="45.85266181608624" lon="12.231169195925514"><ele>112.0</ele><time>2026-04-25T04:22:05Z</time></trkpt><trkpt lat="45.85270121863159" lon="12.231081794627237"><ele>108.83333333333334</ele><time>2026-04-25T04:22:06Z</time></trkpt><trkpt lat="45.85273692121376" lon="12.230993582286281"><ele>105.66666666666667</ele><time>2026-04-25T04:22:07Z</time></trkpt><trkpt lat="45.8527733893689" lon="12.23090953641673"><ele>102.5</ele><time>2026-04-25T04:22:08Z</time></trkpt><trkpt lat="45.85281356524388" lon="12.230826560045816"><ele>99.33333333333334</ele><time>2026-04-25T04:22:09Z</time></trkpt><trkpt lat="45.85289815018418" lon="12.230705847241232"><ele>96.16666666666667</ele><time>2026-04-25T04:22:11Z</time></trkpt><trkpt lat="45.852997441204174" lon="12.230636475378553"><ele>93.0</ele><time>2026-04-25T04:22:13Z</time></trkpt><trkpt lat="45.85309246446118" lon="12.230583126734922"><ele>93.0</ele><time>2026-04-25T04:22:15Z</time></trkpt><trkpt lat="45.853159198304205" lon="12.230550727564642"><ele>93.0</ele><time>2026-04-25T04:22:17Z</time></trkpt><trkpt lat="45.85323304135634" lon="12.230509127424689"><ele>93.0</ele><time>2026-04-25T04:22:20Z</time></trkpt><trkpt lat="45.85319401310321" lon="12.23037350870869"><ele>93.0</ele><time>2026-04-25T04:22:21Z</time></trkpt><trkpt lat="45.85318583035462" lon="12.230253821430184"><ele>93.0</ele><time>2026-04-25T04:22:24Z</time></trkpt><trkpt lat="45.853188571153176" lon="12.230152463305684"><ele>93.0</ele><time>2026-04-25T04:22:26Z</time></trkpt><trkpt lat="45.85319148538734" lon="12.230036362562608"><ele>93.0</ele><time>2026-04-25T04:22:28Z</time></trkpt><trkpt lat="45.85322381737657" lon="12.229912684437693"><ele>93.0</ele><time>2026-04-25T04:22:30Z</time></trkpt><trkpt lat="45.853290467426504" lon="12.229811536021936"><ele>93.0</ele><time>2026-04-25T04:22:32Z</time></trkpt><trkpt lat="45.853380193691414" lon="12.229797175119277"><ele>93.0</ele><time>2026-04-25T04:22:34Z</time></trkpt><trkpt lat="45.853471686323715" lon="12.229782940456607"><ele>93.0</ele><time>2026-04-25T04:22:36Z</time></trkpt><trkpt lat="45.85356114551921" lon="12.229739887330824"><ele>93.4</ele><time>2026-04-25T04:22:38Z</time></trkpt><trkpt lat="45.853649728694094" lon="12.229664146258886"><ele>93.80000000000001</ele><time>2026-04-25T04:22:40Z</time></trkpt><trkpt lat="45.85372347668099" lon="12.229570120870736"><ele>94.2</ele><time>2026-04-25T04:22:42Z</time></trkpt><trkpt lat="45.85379472241593" lon="12.229473575515499"><ele>94.6</ele><time>2026-04-25T04:22:44Z</time></trkpt><trkpt lat="45.85386751439564" lon="12.229382742560977"><ele>95.0</ele><time>2026-04-25T04:22:46Z</time></trkpt><trkpt lat="45.85393454855917" lon="12.229291158429994"><ele>95.0</ele><time>2026-04-25T04:22:48Z</time></trkpt><trkpt lat="45.854000850279746" lon="12.229199987521088"><ele>95.0</ele><time>2026-04-25T04:22:50Z</time></trkpt><trkpt lat="45.8540666190321" lon="12.229108859595499"><ele>95.0</ele><time>2026-04-25T04:22:52Z</time></trkpt><trkpt lat="45.854132845881175" lon="12.229020966976677"><ele>95.0</ele><time>2026-04-25T04:22:54Z</time></trkpt><trkpt lat="45.85419499459033" lon="12.228909373678004"><ele>95.0</ele><time>2026-04-25T04:22:56Z</time></trkpt><trkpt lat="45.85426335744621" lon="12.22881034362555"><ele>95.5</ele><time>2026-04-25T04:22:57.999Z</time></trkpt><trkpt lat="45.85435233365341" lon="12.22875586669476"><ele>96.0</ele><time>2026-04-25T04:22:59.999Z</time></trkpt><trkpt lat="45.85440430824459" lon="12.22865706024017"><ele>96.5</ele><time>2026-04-25T04:23:01.999Z</time></trkpt><trkpt lat="45.85446556996985" lon="12.22857625796796"><ele>97.0</ele><time>2026-04-25T04:23:03.999Z</time></trkpt><trkpt lat="45.8545295847958" lon="12.228502694010718"><ele>97.49999999999999</ele><time>2026-04-25T04:23:05.999Z</time></trkpt><trkpt lat="45.85459279183673" lon="12.228410806235942"><ele>98.0</ele><time>2026-04-25T04:23:07.999Z</time></trkpt><trkpt lat="45.85465097842097" lon="12.228326819928457"><ele>97.99999999999999</ele><time>2026-04-25T04:23:09.999Z</time></trkpt><trkpt lat="45.85471200965017" lon="12.228247804152925"><ele>98.0</ele><time>2026-04-25T04:23:11.999Z</time></trkpt><trkpt lat="45.8547774343752" lon="12.228165895788713"><ele>98.0</ele><time>2026-04-25T04:23:13.999Z</time></trkpt><trkpt lat="45.8548339996832" lon="12.228081256661632"><ele>98.0</ele><time>2026-04-25T04:23:15.999Z</time></trkpt><trkpt lat="45.85490247483495" lon="12.228012139410009"><ele>97.99999999999999</ele><time>2026-04-25T04:23:17.999Z</time></trkpt><trkpt lat="45.854947674595216" lon="12.227930656117048"><ele>98.0</ele><time>2026-04-25T04:23:20.999Z</time></trkpt><trkpt lat="45.854996054755574" lon="12.227849508993712"><ele>98.4</ele><time>2026-04-25T04:23:22.999Z</time></trkpt><trkpt lat="45.855061014523024" lon="12.22776022284361"><ele>98.80000000000001</ele><time>2026-04-25T04:23:25.999Z</time></trkpt><trkpt lat="45.85512386645613" lon="12.227632640025272"><ele>99.2</ele><time>2026-04-25T04:23:28.999Z</time></trkpt><trkpt lat="45.85518532039249" lon="12.227548126237075"><ele>99.6</ele><time>2026-04-25T04:23:30.999Z</time></trkpt><trkpt lat="45.85526316403936" lon="12.22741998108281"><ele>100.0</ele><time>2026-04-25T04:23:33.999Z</time></trkpt><trkpt lat="45.85530047553601" lon="12.2272993677074"><ele>100.16666666666667</ele><time>2026-04-25T04:23:35.999Z</time></trkpt><trkpt lat="45.85536129022557" lon="12.227251065312963"><ele>100.33333333333334</ele><time>2026-04-25T04:23:37.999Z</time></trkpt><trkpt lat="45.85542385648086" lon="12.227207398631709"><ele>100.5</ele><time>2026-04-25T04:23:39.999Z</time></trkpt><trkpt lat="45.855453648954644" lon="12.22707211381828"><ele>100.66666666666666</ele><time>2026-04-25T04:23:42.999Z</time></trkpt><trkpt lat="45.85548883738224" lon="12.226975360963456"><ele>100.83333333333333</ele><time>2026-04-25T04:23:43.999Z</time></trkpt><trkpt lat="45.855556036330995" lon="12.226874026341003"><ele>101.0</ele><time>2026-04-25T04:23:44.999Z</time></trkpt><trkpt lat="45.85561622859541" lon="12.226803958218177"><ele>101.0</ele><time>2026-04-25T04:23:45.999Z</time></trkpt><trkpt lat="45.855713638250364" lon="12.22677050435368"><ele>101.0</ele><time>2026-04-25T04:23:46.999Z</time></trkpt><trkpt lat="45.85575845808607" lon="12.226700236729302"><ele>101.0</ele><time>2026-04-25T04:23:47.999Z</time></trkpt><trkpt lat="45.85581416811037" lon="12.226612895662884"><ele>101.0</ele><time>2026-04-25T04:23:49.999Z</time></trkpt><trkpt lat="45.85588682275933" lon="12.2264989889989"><ele>101.0</ele><time>2026-04-25T04:23:51.999Z</time></trkpt><trkpt lat="45.85598709660472" lon="12.226350246116176"><ele>100.6</ele><time>2026-04-25T04:23:52.999Z</time></trkpt><trkpt lat="45.856054471654666" lon="12.226216973675886"><ele>100.19999999999999</ele><time>2026-04-25T04:23:54.999Z</time></trkpt><trkpt lat="45.856120943512906" lon="12.226151096613943"><ele>99.80000000000001</ele><time>2026-04-25T04:23:56.999Z</time></trkpt><trkpt lat="45.85619451386301" lon="12.22603978652196"><ele>99.4</ele><time>2026-04-25T04:23:58.999Z</time></trkpt><trkpt lat="45.85624949442433" lon="12.225928077889446"><ele>99.0</ele><time>2026-04-25T04:24:01Z</time></trkpt><trkpt lat="45.856309137251856" lon="12.225823015424243"><ele>99.0</ele><time>2026-04-25T04:24:03Z</time></trkpt><trkpt lat="45.85636086187849" lon="12.2256813023336"><ele>99.0</ele><time>2026-04-25T04:24:05Z</time></trkpt><trkpt lat="45.856349200145445" lon="12.225515579809342"><ele>99.0</ele><time>2026-04-25T04:24:07Z</time></trkpt><trkpt lat="45.856300281604696" lon="12.225393593385004"><ele>99.0</ele><time>2026-04-25T04:24:09Z</time></trkpt><trkpt lat="45.8561982467626" lon="12.225381071377079"><ele>99.0</ele><time>2026-04-25T04:24:11Z</time></trkpt><trkpt lat="45.856115792694574" lon="12.225352452672178"><ele>98.33333333333333</ele><time>2026-04-25T04:24:13Z</time></trkpt><trkpt lat="45.85602909633558" lon="12.22531022592845"><ele>97.66666666666667</ele><time>2026-04-25T04:24:15Z</time></trkpt><trkpt lat="45.8559621306518" lon="12.225224439945412"><ele>97.0</ele><time>2026-04-25T04:24:17Z</time></trkpt><trkpt lat="45.85593645293848" lon="12.225112654870442"><ele>96.33333333333334</ele><time>2026-04-25T04:24:19Z</time></trkpt><trkpt lat="45.855944795717264" lon="12.224999098256205"><ele>95.66666666666667</ele><time>2026-04-25T04:24:21Z</time></trkpt><trkpt lat="45.85595316071101" lon="12.224895808369956"><ele>95.0</ele><time>2026-04-25T04:24:23Z</time></trkpt><trkpt lat="45.855965804140716" lon="12.224788249221547"><ele>98.0</ele><time>2026-04-25T04:24:25Z</time></trkpt><trkpt lat="45.85597883470825" lon="12.224689874309831"><ele>101.0</ele><time>2026-04-25T04:24:27Z</time></trkpt><trkpt lat="45.85599280759754" lon="12.224596740262932"><ele>104.0</ele><time>2026-04-25T04:24:29Z</time></trkpt><trkpt lat="45.856010925216125" lon="12.224498288573523"><ele>107.0</ele><time>2026-04-25T04:24:31Z</time></trkpt><trkpt lat="45.8560265029487" lon="12.224393336731362"><ele>110.0</ele><time>2026-04-25T04:24:33Z</time></trkpt><trkpt lat="45.85603957500086" lon="12.224291394617172"><ele>113.00000000000001</ele><time>2026-04-25T04:24:35Z</time></trkpt><trkpt lat="45.85605092454462" lon="12.224189906975425"><ele>116.00000000000001</ele><time>2026-04-25T04:24:37Z</time></trkpt><trkpt lat="45.85606532755076" lon="12.224097005591796"><ele>116.00000000000001</ele><time>2026-04-25T04:24:39Z</time></trkpt><trkpt lat="45.85607843886697" lon="12.223994634571373"><ele>116.0</ele><time>2026-04-25T04:24:41Z</time></trkpt><trkpt lat="45.85609917802621" lon="12.223899095815941"><ele>116.00000000000001</ele><time>2026-04-25T04:24:43Z</time></trkpt><trkpt lat="45.85611765119993" lon="12.22380974255881"><ele>116.00000000000001</ele><time>2026-04-25T04:24:45Z</time></trkpt><trkpt lat="45.856149424239135" lon="12.22371792673132"><ele>116.0</ele><time>2026-04-25T04:24:47Z</time></trkpt><trkpt lat="45.85618368853695" lon="12.223627828814397"><ele>116.00000000000001</ele><time>2026-04-25T04:24:49Z</time></trkpt><trkpt lat="45.8562162653031" lon="12.223549259491866"><ele>116.00000000000001</ele><time>2026-04-25T04:24:51Z</time></trkpt><trkpt lat="45.85626357609047" lon="12.223442434270142"><ele>116.14285714285717</ele><time>2026-04-25T04:24:54Z</time></trkpt><trkpt lat="45.85630722632868" lon="12.22333498300168"><ele>116.28571428571429</ele><time>2026-04-25T04:24:57Z</time></trkpt><trkpt lat="45.85635416614693" lon="12.22323526270725"><ele>116.42857142857144</ele><time>2026-04-25T04:25:00Z</time></trkpt><trkpt lat="45.85639807498897" lon="12.223146061189963"><ele>116.57142857142858</ele><time>2026-04-25T04:25:03Z</time></trkpt><trkpt lat="45.856430748955276" lon="12.223067295947372"><ele>116.71428571428572</ele><time>2026-04-25T04:25:06Z</time></trkpt><trkpt lat="45.85647299140489" lon="12.222983474846313"><ele>116.85714285714286</ele><time>2026-04-25T04:25:08.999Z</time></trkpt><trkpt lat="45.856507583015194" lon="12.222907464850422"><ele>117.0</ele><time>2026-04-25T04:25:11.999Z</time></trkpt><trkpt lat="45.85655793330646" lon="12.222832273521243"><ele>116.71428571428572</ele><time>2026-04-25T04:25:15.999Z</time></trkpt><trkpt lat="45.8566133545989" lon="12.222770390456107"><ele>116.42857142857144</ele><time>2026-04-25T04:25:19.999Z</time></trkpt><trkpt lat="45.85667723583831" lon="12.222721326886669"><ele>116.14285714285714</ele><time>2026-04-25T04:25:22.999Z</time></trkpt><trkpt lat="45.8567486498652" lon="12.22272331749422"><ele>115.85714285714286</ele><time>2026-04-25T04:25:26.999Z</time></trkpt><trkpt lat="45.856822400574124" lon="12.22270986429131"><ele>115.57142857142857</ele><time>2026-04-25T04:25:30.999Z</time></trkpt><trkpt lat="45.85689068836286" lon="12.222675440400415"><ele>115.28571428571428</ele><time>2026-04-25T04:25:34.999Z</time></trkpt><trkpt lat="45.85695413832444" lon="12.22267990896563"><ele>114.99999999999999</ele><time>2026-04-25T04:25:37.999Z</time></trkpt><trkpt lat="45.85703882151369" lon="12.222665533467946"><ele>117.85714285714283</ele><time>2026-04-25T04:25:41.999Z</time></trkpt><trkpt lat="45.85711471993569" lon="12.222666483989862"><ele>120.71428571428571</ele><time>2026-04-25T04:25:44.999Z</time></trkpt><trkpt lat="45.857179840623246" lon="12.222651452288936"><ele>123.57142857142856</ele><time>2026-04-25T04:25:48.999Z</time></trkpt><trkpt lat="45.85725126564178" lon="12.222643003080709"><ele>126.42857142857142</ele><time>2026-04-25T04:25:52.999Z</time></trkpt><trkpt lat="45.85731804751486" lon="12.22259956921456"><ele>129.28571428571428</ele><time>2026-04-25T04:25:56.999Z</time></trkpt><trkpt lat="45.85736732047407" lon="12.222513800629235"><ele>132.14285714285714</ele><time>2026-04-25T04:26:00.999Z</time></trkpt><trkpt lat="45.85740917718982" lon="12.222427221554561"><ele>135.0</ele><time>2026-04-25T04:26:02.999Z</time></trkpt><trkpt lat="45.85744141397462" lon="12.22233072501097"><ele>134.85714285714286</ele><time>2026-04-25T04:26:05.999Z</time></trkpt><trkpt lat="45.857474722874635" lon="12.222236087575624"><ele>134.7142857142857</ele><time>2026-04-25T04:26:09Z</time></trkpt><trkpt lat="45.85750021646062" lon="12.222143749023479"><ele>134.57142857142856</ele><time>2026-04-25T04:26:12Z</time></trkpt><trkpt lat="45.8575224582454" lon="12.222056469831053"><ele>134.42857142857142</ele><time>2026-04-25T04:26:15Z</time></trkpt><trkpt lat="45.85755603116863" lon="12.221973004660383"><ele>134.28571428571428</ele><time>2026-04-25T04:26:18Z</time></trkpt><trkpt lat="45.857585807020094" lon="12.221890219605903"><ele>134.14285714285714</ele><time>2026-04-25T04:26:21Z</time></trkpt><trkpt lat="45.85762361972559" lon="12.22178909637086"><ele>134.0</ele><time>2026-04-25T04:26:25Z</time></trkpt><trkpt lat="45.8576639649913" lon="12.221693162361001"><ele>133.83333333333331</ele><time>2026-04-25T04:26:29Z</time></trkpt><trkpt lat="45.85770048196596" lon="12.221587977253238"><ele>133.66666666666666</ele><time>2026-04-25T04:26:33Z</time></trkpt><trkpt lat="45.85776317396183" lon="12.221506549264497"><ele>133.5</ele><time>2026-04-25T04:26:37Z</time></trkpt><trkpt lat="45.85781835175227" lon="12.221456104203249"><ele>133.33333333333334</ele><time>2026-04-25T04:26:40Z</time></trkpt><trkpt lat="45.85789303224547" lon="12.22140591996594"><ele>133.16666666666669</ele><time>2026-04-25T04:26:44Z</time></trkpt><trkpt lat="45.857995367934414" lon="12.221390294728318"><ele>133.0</ele><time>2026-04-25T04:26:48Z</time></trkpt><trkpt lat="45.85807387602612" lon="12.221360119506445"><ele>133.0</ele><time>2026-04-25T04:26:51Z</time></trkpt><trkpt lat="45.8581544320988" lon="12.221296548537426"><ele>133.0</ele><time>2026-04-25T04:26:54Z</time></trkpt><trkpt lat="45.858230526801904" lon="12.221234824517811"><ele>133.0</ele><time>2026-04-25T04:26:57Z</time></trkpt><trkpt lat="45.858297407114115" lon="12.22115331937549"><ele>133.0</ele><time>2026-04-25T04:27:00Z</time></trkpt><trkpt lat="45.85835676122611" lon="12.2210966937365"><ele>133.0</ele><time>2026-04-25T04:27:03Z</time></trkpt><trkpt lat="45.85841836463721" lon="12.221008495624066"><ele>133.0</ele><time>2026-04-25T04:27:06Z</time></trkpt><trkpt lat="45.858468993757704" lon="12.220943932821973"><ele>133.33333333333334</ele><time>2026-04-25T04:27:07Z</time></trkpt><trkpt lat="45.85855273716793" lon="12.220856145138171"><ele>133.66666666666669</ele><time>2026-04-25T04:27:09Z</time></trkpt><trkpt lat="45.85861917535181" lon="12.220769965825381"><ele>134.0</ele><time>2026-04-25T04:27:11Z</time></trkpt><trkpt lat="45.858687416076826" lon="12.220688034307791"><ele>134.33333333333334</ele><time>2026-04-25T04:27:13Z</time></trkpt><trkpt lat="45.85874321198443" lon="12.220640374152891"><ele>134.66666666666666</ele><time>2026-04-25T04:27:16Z</time></trkpt><trkpt lat="45.858827585890936" lon="12.220636664588945"><ele>135.0</ele><time>2026-04-25T04:27:19Z</time></trkpt><trkpt lat="45.85888549465442" lon="12.220720907538759"><ele>135.16666666666666</ele><time>2026-04-25T04:27:22Z</time></trkpt><trkpt lat="45.858947425150156" lon="12.220806456245404"><ele>135.33333333333334</ele><time>2026-04-25T04:27:24.999Z</time></trkpt><trkpt lat="45.85901795103632" lon="12.220829293739477"><ele>135.5</ele><time>2026-04-25T04:27:26.999Z</time></trkpt><trkpt lat="45.85908224874926" lon="12.220823932600238"><ele>135.66666666666669</ele><time>2026-04-25T04:27:27.999Z</time></trkpt><trkpt lat="45.85916176470674" lon="12.220755850031251"><ele>135.83333333333334</ele><time>2026-04-25T04:27:29.999Z</time></trkpt><trkpt lat="45.85922456404452" lon="12.220675750975644"><ele>136.0</ele><time>2026-04-25T04:27:31.999Z</time></trkpt><trkpt lat="45.85928410005343" lon="12.220604581440867"><ele>136.5</ele><time>2026-04-25T04:27:33.999Z</time></trkpt><trkpt lat="45.859349980959855" lon="12.220525823558638"><ele>137.0</ele><time>2026-04-25T04:27:35.999Z</time></trkpt><trkpt lat="45.85941281811326" lon="12.220445029812936"><ele>137.5</ele><time>2026-04-25T04:27:37.999Z</time></trkpt><trkpt lat="45.85946867838685" lon="12.22037575963311"><ele>138.0</ele><time>2026-04-25T04:27:39.999Z</time></trkpt><trkpt lat="45.859531470286655" lon="12.220298885396952"><ele>138.5</ele><time>2026-04-25T04:27:41.999Z</time></trkpt><trkpt lat="45.859575610984294" lon="12.220222115978942"><ele>139.0</ele><time>2026-04-25T04:27:43.999Z</time></trkpt><trkpt lat="45.85962757574485" lon="12.220148814750551"><ele>139.0</ele><time>2026-04-25T04:27:45.999Z</time></trkpt><trkpt lat="45.85967683264436" lon="12.220083973459458"><ele>139.0</ele><time>2026-04-25T04:27:47.999Z</time></trkpt><trkpt lat="45.85972378031782" lon="12.220012726550138"><ele>139.0</ele><time>2026-04-25T04:27:49.999Z</time></trkpt><trkpt lat="45.85977157681531" lon="12.21995022900974"><ele>139.0</ele><time>2026-04-25T04:27:51.999Z</time></trkpt><trkpt lat="45.85983636655122" lon="12.219855047156717"><ele>139.0</ele><time>2026-04-25T04:27:54.999Z</time></trkpt><trkpt lat="45.859895498195996" lon="12.219783731621973"><ele>139.0</ele><time>2026-04-25T04:27:57.999Z</time></trkpt><trkpt lat="45.85995845809237" lon="12.219709373374771"><ele>139.71428571428572</ele><time>2026-04-25T04:28:00.999Z</time></trkpt><trkpt lat="45.86001812252684" lon="12.219647163653272"><ele>140.42857142857144</ele><time>2026-04-25T04:28:03.999Z</time></trkpt><trkpt lat="45.86007789981746" lon="12.219618622790108"><ele>141.14285714285717</ele><time>2026-04-25T04:28:06.999Z</time></trkpt><trkpt lat="45.860147142915345" lon="12.219597856684913"><ele>141.85714285714286</ele><time>2026-04-25T04:28:09.999Z</time></trkpt><trkpt lat="45.86022692353281" lon="12.219567929728452"><ele>142.57142857142858</ele><time>2026-04-25T04:28:14Z</time></trkpt><trkpt lat="45.86029842502295" lon="12.21953740196521"><ele>143.2857142857143</ele><time>2026-04-25T04:28:17Z</time></trkpt><trkpt lat="45.86036682310968" lon="12.21951271435121"><ele>144.0</ele><time>2026-04-25T04:28:21Z</time></trkpt><trkpt lat="45.86042870131035" lon="12.21949344030532"><ele>145.5</ele><time>2026-04-25T04:28:24Z</time></trkpt><trkpt lat="45.86049368893267" lon="12.219474122985252"><ele>147.0</ele><time>2026-04-25T04:28:28Z</time></trkpt><trkpt lat="45.86058191979708" lon="12.219462723534388"><ele>148.5</ele><time>2026-04-25T04:28:32Z</time></trkpt><trkpt lat="45.860670560798255" lon="12.219456653610614"><ele>150.0</ele><time>2026-04-25T04:28:35Z</time></trkpt><trkpt lat="45.860736236392086" lon="12.219465645234564"><ele>151.5</ele><time>2026-04-25T04:28:38Z</time></trkpt><trkpt lat="45.860809045024986" lon="12.219475427542477"><ele>153.0</ele><time>2026-04-25T04:28:41Z</time></trkpt><trkpt lat="45.86088137412057" lon="12.21948268318464"><ele>154.0</ele><time>2026-04-25T04:28:44Z</time></trkpt><trkpt lat="45.86096307639572" lon="12.2194802855209"><ele>155.0</ele><time>2026-04-25T04:28:48Z</time></trkpt><trkpt lat="45.86104305466956" lon="12.219451890013854"><ele>156.0</ele><time>2026-04-25T04:28:52Z</time></trkpt><trkpt lat="45.86111278890135" lon="12.219457793993802"><ele>157.0</ele><time>2026-04-25T04:28:55Z</time></trkpt><trkpt lat="45.861187380384244" lon="12.219445084406518"><ele>158.0</ele><time>2026-04-25T04:28:58Z</time></trkpt><trkpt lat="45.86125354914879" lon="12.219449022371656"><ele>159.0</ele><time>2026-04-25T04:29:02Z</time></trkpt><trkpt lat="45.86131681320433" lon="12.219435160856577"><ele>160.0</ele><time>2026-04-25T04:29:05Z</time></trkpt><trkpt lat="45.86139319608166" lon="12.219442354325562"><ele>160.0</ele><time>2026-04-25T04:29:09Z</time></trkpt><trkpt lat="45.86147918040135" lon="12.219459770042375"><ele>160.0</ele><time>2026-04-25T04:29:13Z</time></trkpt><trkpt lat="45.86153052913673" lon="12.219513524500098"><ele>160.0</ele><time>2026-04-25T04:29:16Z</time></trkpt><trkpt lat="45.86156540435579" lon="12.21962790624875"><ele>160.0</ele><time>2026-04-25T04:29:19Z</time></trkpt><trkpt lat="45.86157072556804" lon="12.219750952436584"><ele>160.0</ele><time>2026-04-25T04:29:21Z</time></trkpt><trkpt lat="45.86158009762388" lon="12.21986274596556"><ele>160.0</ele><time>2026-04-25T04:29:23Z</time></trkpt><trkpt lat="45.861614703433695" lon="12.219968095998222"><ele>161.0</ele><time>2026-04-25T04:29:25Z</time></trkpt><trkpt lat="45.86166003420252" lon="12.220101740698528"><ele>162.0</ele><time>2026-04-25T04:29:26.999Z</time></trkpt><trkpt lat="45.8617020183045" lon="12.220230282808975"><ele>163.0</ele><time>2026-04-25T04:29:28.999Z</time></trkpt><trkpt lat="45.86174825107397" lon="12.220355475713875"><ele>164.0</ele><time>2026-04-25T04:29:30.999Z</time></trkpt><trkpt lat="45.861795284845165" lon="12.220469365748531"><ele>165.0</ele><time>2026-04-25T04:29:32.999Z</time></trkpt><trkpt lat="45.86184235662981" lon="12.220576922840213"><ele>165.66666666666666</ele><time>2026-04-25T04:29:34.999Z</time></trkpt><trkpt lat="45.861880544060796" lon="12.2206741639112"><ele>166.33333333333334</ele><time>2026-04-25T04:29:36.999Z</time></trkpt><trkpt lat="45.86193193424677" lon="12.220759776353917"><ele>167.0</ele><time>2026-04-25T04:29:38.999Z</time></trkpt><trkpt lat="45.86197986772546" lon="12.220836884729088"><ele>167.66666666666669</ele><time>2026-04-25T04:29:40.999Z</time></trkpt><trkpt lat="45.86204104402274" lon="12.220910926284015"><ele>168.33333333333334</ele><time>2026-04-25T04:29:42.999Z</time></trkpt><trkpt lat="45.862103319163595" lon="12.220976188861185"><ele>169.0</ele><time>2026-04-25T04:29:44.999Z</time></trkpt><trkpt lat="45.86215037153334" lon="12.221081328001265"><ele>169.0</ele><time>2026-04-25T04:29:46.999Z</time></trkpt><trkpt lat="45.862197013087815" lon="12.221172788449833"><ele>169.0</ele><time>2026-04-25T04:29:48.999Z</time></trkpt><trkpt lat="45.86223284014817" lon="12.22126771116977"><ele>169.0</ele><time>2026-04-25T04:29:50.999Z</time></trkpt><trkpt lat="45.86228050254157" lon="12.22134758250447"><ele>169.0</ele><time>2026-04-25T04:29:52.999Z</time></trkpt><trkpt lat="45.862340136431506" lon="12.22140027916759"><ele>169.0</ele><time>2026-04-25T04:29:55.999Z</time></trkpt><trkpt lat="45.86233114824816" lon="12.221279246333037"><ele>169.0</ele><time>2026-04-25T04:30:03.999Z</time></trkpt><trkpt lat="45.86224526611347" lon="12.22117025873844"><ele>169.0</ele><time>2026-04-25T04:30:06.999Z</time></trkpt><trkpt lat="45.862171540290674" lon="12.221065862266586"><ele>169.0</ele><time>2026-04-25T04:30:08.999Z</time></trkpt><trkpt lat="45.86213890543802" lon="12.220987924654128"><ele>169.0</ele><time>2026-04-25T04:30:10.999Z</time></trkpt><trkpt lat="45.862093042107325" lon="12.220902966046298"><ele>169.0</ele><time>2026-04-25T04:30:12.999Z</time></trkpt><trkpt lat="45.86202535438775" lon="12.220812295490216"><ele>169.0</ele><time>2026-04-25T04:30:15.999Z</time></trkpt><trkpt lat="45.86196073935927" lon="12.22076639720871"><ele>169.0</ele><time>2026-04-25T04:30:16.999Z</time></trkpt><trkpt lat="45.861910035490915" lon="12.220658846974873"><ele>168.33333333333334</ele><time>2026-04-25T04:30:19Z</time></trkpt><trkpt lat="45.86186952952504" lon="12.220562831701566"><ele>167.66666666666669</ele><time>2026-04-25T04:30:21Z</time></trkpt><trkpt lat="45.86182838048864" lon="12.22047553918215"><ele>167.0</ele><time>2026-04-25T04:30:23Z</time></trkpt><trkpt lat="45.861789669979466" lon="12.220370283970812"><ele>166.33333333333334</ele><time>2026-04-25T04:30:25Z</time></trkpt><trkpt lat="45.86174934231067" lon="12.220257248965002"><ele>165.66666666666666</ele><time>2026-04-25T04:30:27Z</time></trkpt><trkpt lat="45.86171195328474" lon="12.22015419295641"><ele>165.0</ele><time>2026-04-25T04:30:29Z</time></trkpt><trkpt lat="45.861688898562086" lon="12.220054514843804"><ele>165.0</ele><time>2026-04-25T04:30:31Z</time></trkpt><trkpt lat="45.861647102521324" lon="12.219939708565253"><ele>165.0</ele><time>2026-04-25T04:30:34Z</time></trkpt><trkpt lat="45.8616156974363" lon="12.219825571977829"><ele>165.0</ele><time>2026-04-25T04:30:38Z</time></trkpt><trkpt lat="45.861600163943486" lon="12.219737798916878"><ele>165.0</ele><time>2026-04-25T04:30:41Z</time></trkpt><trkpt lat="45.861583886334714" lon="12.219617279054194"><ele>165.0</ele><time>2026-04-25T04:30:46Z</time></trkpt><trkpt lat="45.861562622030206" lon="12.21951564282424"><ele>165.0</ele><time>2026-04-25T04:30:54Z</time></trkpt><trkpt lat="45.861625995060315" lon="12.219491682662444"><ele>165.00000000000003</ele><time>2026-04-25T04:31:21Z</time></trkpt><trkpt lat="45.861691027151245" lon="12.219522220922098"><ele>165.0</ele><time>2026-04-25T04:31:27.999Z</time></trkpt><trkpt lat="45.86176284005375" lon="12.219561504539689"><ele>165.0</ele><time>2026-04-25T04:31:33.999Z</time></trkpt><trkpt lat="45.86183640919375" lon="12.219564541883724"><ele>165.0</ele><time>2026-04-25T04:31:39.999Z</time></trkpt><trkpt lat="45.86190056377082" lon="12.21955116521637"><ele>165.0</ele><time>2026-04-25T04:31:47.999Z</time></trkpt><trkpt lat="45.86195931684995" lon="12.219596324037632"><ele>165.00000000000003</ele><time>2026-04-25T04:31:56.999Z</time></trkpt><trkpt lat="45.8620259598991" lon="12.219606286389604"><ele>165.0</ele><time>2026-04-25T04:31:59.999Z</time></trkpt><trkpt lat="45.86209417413104" lon="12.21960629095754"><ele>165.0</ele><time>2026-04-25T04:32:02.999Z</time></trkpt><trkpt lat="45.86215956570438" lon="12.219612424926801"><ele>165.0</ele><time>2026-04-25T04:32:05.999Z</time></trkpt><trkpt lat="45.8622324548027" lon="12.219599882171211"><ele>165.0</ele><time>2026-04-25T04:32:10.999Z</time></trkpt><trkpt lat="45.862312007065626" lon="12.21957958327697"><ele>165.0</ele><time>2026-04-25T04:32:14.999Z</time></trkpt><trkpt lat="45.86239239896638" lon="12.219575092675772"><ele>165.0</ele><time>2026-04-25T04:32:19.999Z</time></trkpt><trkpt lat="45.862462536432716" lon="12.219582228019204"><ele>165.0</ele><time>2026-04-25T04:32:22.999Z</time></trkpt><trkpt lat="45.86254414206086" lon="12.21957092458457"><ele>165.0</ele><time>2026-04-25T04:32:27Z</time></trkpt><trkpt lat="45.86260435120992" lon="12.219542385360946"><ele>165.0</ele><time>2026-04-25T04:32:30Z</time></trkpt><trkpt lat="45.86266631314566" lon="12.219480499027183"><ele>165.0</ele><time>2026-04-25T04:32:34Z</time></trkpt><trkpt lat="45.86273660652675" lon="12.219419110535352"><ele>165.0</ele><time>2026-04-25T04:32:38Z</time></trkpt><trkpt lat="45.86280938311099" lon="12.219372550083602"><ele>165.0</ele><time>2026-04-25T04:32:42Z</time></trkpt><trkpt lat="45.86288113000192" lon="12.21936378644908"><ele>165.0</ele><time>2026-04-25T04:32:45Z</time></trkpt><trkpt lat="45.86296857546218" lon="12.219345763002055"><ele>166.71428571428572</ele><time>2026-04-25T04:32:50Z</time></trkpt><trkpt lat="45.863027275505516" lon="12.219308185063408"><ele>168.42857142857144</ele><time>2026-04-25T04:32:53Z</time></trkpt><trkpt lat="45.863094395252105" lon="12.219303300209283"><ele>170.14285714285717</ele><time>2026-04-25T04:32:57Z</time></trkpt><trkpt lat="45.86317240826308" lon="12.219276535563294"><ele>171.85714285714286</ele><time>2026-04-25T04:33:00Z</time></trkpt><trkpt lat="45.863237326747914" lon="12.219249827759368"><ele>173.57142857142856</ele><time>2026-04-25T04:33:03Z</time></trkpt><trkpt lat="45.86330567874492" lon="12.219217460670277"><ele>175.2857142857143</ele><time>2026-04-25T04:33:05Z</time></trkpt><trkpt lat="45.86337011264994" lon="12.219234926270602"><ele>177.0</ele><time>2026-04-25T04:33:07Z</time></trkpt><trkpt lat="45.86344101835259" lon="12.219224540269776"><ele>178.85714285714286</ele><time>2026-04-25T04:33:11Z</time></trkpt><trkpt lat="45.86350570767496" lon="12.219247342836649"><ele>180.7142857142857</ele><time>2026-04-25T04:33:15Z</time></trkpt><trkpt lat="45.863575152104296" lon="12.219254050483094"><ele>182.57142857142856</ele><time>2026-04-25T04:33:19Z</time></trkpt><trkpt lat="45.863652579920206" lon="12.219291541934512"><ele>184.42857142857144</ele><time>2026-04-25T04:33:24Z</time></trkpt><trkpt lat="45.863726018836935" lon="12.219300072843593"><ele>186.28571428571428</ele><time>2026-04-25T04:33:28Z</time></trkpt><trkpt lat="45.863800632552106" lon="12.219275783343532"><ele>188.14285714285714</ele><time>2026-04-25T04:33:32Z</time></trkpt><trkpt lat="45.86387615806941" lon="12.21925960535253"><ele>190.0</ele><time>2026-04-25T04:33:36.999Z</time></trkpt><trkpt lat="45.863951385242814" lon="12.2192500228461"><ele>190.0</ele><time>2026-04-25T04:33:41.999Z</time></trkpt><trkpt lat="45.86402218867138" lon="12.219249089212266"><ele>190.0</ele><time>2026-04-25T04:33:44.999Z</time></trkpt><trkpt lat="45.864089558855156" lon="12.219240073644661"><ele>190.0</ele><time>2026-04-25T04:33:47.999Z</time></trkpt><trkpt lat="45.8641650241372" lon="12.219206995092058"><ele>190.0</ele><time>2026-04-25T04:33:50.999Z</time></trkpt><trkpt lat="45.86424583751601" lon="12.219216713217207"><ele>190.0</ele><time>2026-04-25T04:33:54.999Z</time></trkpt><trkpt lat="45.86431134359578" lon="12.219225339006744"><ele>190.0</ele><time>2026-04-25T04:33:59.999Z</time></trkpt><trkpt lat="45.86439844626346" lon="12.21919425698047"><ele>192.5</ele><time>2026-04-25T04:34:04.999Z</time></trkpt><trkpt lat="45.864472816952485" lon="12.219173333209746"><ele>195.0</ele><time>2026-04-25T04:34:07.999Z</time></trkpt><trkpt lat="45.86453884639641" lon="12.219206927350436"><ele>197.5</ele><time>2026-04-25T04:34:11.999Z</time></trkpt><trkpt lat="45.86461172531457" lon="12.21921494984993"><ele>200.0</ele><time>2026-04-25T04:34:15.999Z</time></trkpt><trkpt lat="45.8646842034687" lon="12.21921073125621"><ele>202.49999999999997</ele><time>2026-04-25T04:34:19.999Z</time></trkpt><trkpt lat="45.86475512775111" lon="12.21916772499424"><ele>205.0</ele><time>2026-04-25T04:34:23.999Z</time></trkpt><trkpt lat="45.864803510717735" lon="12.219073394555247"><ele>204.16666666666666</ele><time>2026-04-25T04:34:27.999Z</time></trkpt><trkpt lat="45.86484150450442" lon="12.21897333665782"><ele>203.33333333333331</ele><time>2026-04-25T04:34:33Z</time></trkpt><trkpt lat="45.864880897429465" lon="12.218884349517081"><ele>202.5</ele><time>2026-04-25T04:34:36Z</time></trkpt><trkpt lat="45.864939956306905" lon="12.218819700738873"><ele>201.66666666666669</ele><time>2026-04-25T04:34:41Z</time></trkpt><trkpt lat="45.865002905848094" lon="12.218768669084223"><ele>200.83333333333334</ele><time>2026-04-25T04:34:46Z</time></trkpt><trkpt lat="45.865077955817334" lon="12.218756634267486"><ele>200.0</ele><time>2026-04-25T04:34:51Z</time></trkpt><trkpt lat="45.86515886564687" lon="12.218770671383352"><ele>202.50000000000003</ele><time>2026-04-25T04:34:56Z</time></trkpt><trkpt lat="45.86525601548729" lon="12.218731457630687"><ele>205.0</ele><time>2026-04-25T04:35:02Z</time></trkpt><trkpt lat="45.86532137782213" lon="12.218766634399573"><ele>207.5</ele><time>2026-04-25T04:35:05Z</time></trkpt><trkpt lat="45.86539686691597" lon="12.21875791465001"><ele>210.0</ele><time>2026-04-25T04:35:09Z</time></trkpt><trkpt lat="45.86546546672786" lon="12.21874606192645"><ele>212.50000000000003</ele><time>2026-04-25T04:35:12Z</time></trkpt><trkpt lat="45.86554553140945" lon="12.21872923041198"><ele>215.0</ele><time>2026-04-25T04:35:16Z</time></trkpt><trkpt lat="45.86561987134953" lon="12.218731422884826"><ele>215.0</ele><time>2026-04-25T04:35:21Z</time></trkpt><trkpt lat="45.86569450983296" lon="12.218689704996466"><ele>215.0</ele><time>2026-04-25T04:35:25Z</time></trkpt><trkpt lat="45.86575189461006" lon="12.21864600886645"><ele>215.0</ele><time>2026-04-25T04:35:30Z</time></trkpt><trkpt lat="45.865807884425614" lon="12.218597709959683"><ele>215.0</ele><time>2026-04-25T04:35:34Z</time></trkpt><trkpt lat="45.86586050795408" lon="12.218543799174222"><ele>215.0</ele><time>2026-04-25T04:35:37.999Z</time></trkpt><trkpt lat="45.86591532345889" lon="12.218498120059873"><ele>215.0</ele><time>2026-04-25T04:35:40.999Z</time></trkpt><trkpt lat="45.86597252658571" lon="12.218428292143983"><ele>215.0</ele><time>2026-04-25T04:35:44.999Z</time></trkpt><trkpt lat="45.86603281537408" lon="12.21838219458105"><ele>216.66666666666669</ele><time>2026-04-25T04:35:48.999Z</time></trkpt><trkpt lat="45.8660697746822" lon="12.21827847477138"><ele>218.33333333333334</ele><time>2026-04-25T04:35:52.999Z</time></trkpt><trkpt lat="45.86611275524971" lon="12.21821153678013"><ele>220.0</ele><time>2026-04-25T04:35:55.999Z</time></trkpt><trkpt lat="45.86618714790214" lon="12.218120572655238"><ele>221.66666666666669</ele><time>2026-04-25T04:36:01.999Z</time></trkpt><trkpt lat="45.86623310084989" lon="12.218045513724874"><ele>223.33333333333334</ele><time>2026-04-25T04:36:05.999Z</time></trkpt><trkpt lat="45.86631074749912" lon="12.21799774693324"><ele>225.0</ele><time>2026-04-25T04:36:10.999Z</time></trkpt><trkpt lat="45.866376216308154" lon="12.217946061877768"><ele>225.0</ele><time>2026-04-25T04:36:15.999Z</time></trkpt><trkpt lat="45.866451060892835" lon="12.217907925442725"><ele>225.0</ele><time>2026-04-25T04:36:20.999Z</time></trkpt><trkpt lat="45.86652176167067" lon="12.217848951945152"><ele>225.0</ele><time>2026-04-25T04:36:24.999Z</time></trkpt><trkpt lat="45.86658446087898" lon="12.217805077453912"><ele>225.0</ele><time>2026-04-25T04:36:28.999Z</time></trkpt><trkpt lat="45.8666368552885" lon="12.217737074885074"><ele>225.0</ele><time>2026-04-25T04:36:32.999Z</time></trkpt><trkpt lat="45.86668690319863" lon="12.217652212473004"><ele>225.0</ele><time>2026-04-25T04:36:35.999Z</time></trkpt><trkpt lat="45.866771884772895" lon="12.217596197725687"><ele>225.00000000000003</ele><time>2026-04-25T04:36:40Z</time></trkpt><trkpt lat="45.866777419883036" lon="12.217496460952551"><ele>225.0</ele><time>2026-04-25T04:36:42Z</time></trkpt><trkpt lat="45.86680945736709" lon="12.217414161349971"><ele>225.00000000000003</ele><time>2026-04-25T04:36:45Z</time></trkpt><trkpt lat="45.86686802772245" lon="12.217368359557165"><ele>225.00000000000003</ele><time>2026-04-25T04:36:48Z</time></trkpt><trkpt lat="45.86692234995688" lon="12.21730711237821"><ele>225.0</ele><time>2026-04-25T04:36:51Z</time></trkpt><trkpt lat="45.86695560030226" lon="12.217205425020756"><ele>225.00000000000003</ele><time>2026-04-25T04:36:56Z</time></trkpt><trkpt lat="45.866998877223146" lon="12.217118586719751"><ele>225.00000000000003</ele><time>2026-04-25T04:36:59Z</time></trkpt><trkpt lat="45.86702639436121" lon="12.217027527339866"><ele>225.5</ele><time>2026-04-25T04:37:02Z</time></trkpt><trkpt lat="45.86708158228914" lon="12.216981748703848"><ele>226.0</ele><time>2026-04-25T04:37:04Z</time></trkpt><trkpt lat="45.867115963750315" lon="12.216887456010735"><ele>226.5</ele><time>2026-04-25T04:37:08Z</time></trkpt><trkpt lat="45.86720120494437" lon="12.216788391438602"><ele>227.0</ele><time>2026-04-25T04:37:11Z</time></trkpt><trkpt lat="45.867265756970916" lon="12.216699556620291"><ele>227.5</ele><time>2026-04-25T04:37:13Z</time></trkpt><trkpt lat="45.867331240945845" lon="12.216630614807936"><ele>228.0</ele><time>2026-04-25T04:37:15Z</time></trkpt><trkpt lat="45.86738023870812" lon="12.216562785247593"><ele>228.0</ele><time>2026-04-25T04:37:17Z</time></trkpt><trkpt lat="45.86743929765553" lon="12.21648914017843"><ele>227.99999999999997</ele><time>2026-04-25T04:37:20Z</time></trkpt><trkpt lat="45.86747249199072" lon="12.216401091125409"><ele>228.0</ele><time>2026-04-25T04:37:23Z</time></trkpt><trkpt lat="45.867503766110154" lon="12.21631680508245"><ele>228.0</ele><time>2026-04-25T04:37:26Z</time></trkpt><trkpt lat="45.86748519051399" lon="12.216218474072967"><ele>227.99999999999997</ele><time>2026-04-25T04:37:29Z</time></trkpt><trkpt lat="45.86743327460715" lon="12.216152501241082"><ele>228.0</ele><time>2026-04-25T04:37:33Z</time></trkpt><trkpt lat="45.86738677322303" lon="12.216087958741014"><ele>228.0</ele><time>2026-04-25T04:37:35.999Z</time></trkpt><trkpt lat="45.86733247491327" lon="12.216031284755257"><ele>229.33333333333334</ele><time>2026-04-25T04:37:38.999Z</time></trkpt><trkpt lat="45.86728716930908" lon="12.215916519326363"><ele>230.66666666666669</ele><time>2026-04-25T04:37:41.999Z</time></trkpt><trkpt lat="45.86722658494888" lon="12.215848043615"><ele>232.0</ele><time>2026-04-25T04:37:43.999Z</time></trkpt><trkpt lat="45.867200251625654" lon="12.215734158348074"><ele>233.33333333333334</ele><time>2026-04-25T04:37:46.999Z</time></trkpt><trkpt lat="45.867226328373654" lon="12.21564035677934"><ele>234.66666666666669</ele><time>2026-04-25T04:37:49.999Z</time></trkpt><trkpt lat="45.86723431541836" lon="12.215511834915654"><ele>236.0</ele><time>2026-04-25T04:37:52.999Z</time></trkpt><trkpt lat="45.8672451033153" lon="12.215388966815043"><ele>236.33333333333334</ele><time>2026-04-25T04:37:55.999Z</time></trkpt><trkpt lat="45.86729593928793" lon="12.215257292326466"><ele>236.66666666666669</ele><time>2026-04-25T04:37:58.999Z</time></trkpt><trkpt lat="45.867345690121" lon="12.215157175103181"><ele>237.0</ele><time>2026-04-25T04:38:00.999Z</time></trkpt><trkpt lat="45.86739153337454" lon="12.215052283472131"><ele>237.33333333333331</ele><time>2026-04-25T04:38:02.999Z</time></trkpt><trkpt lat="45.86745566556021" lon="12.214938876337547"><ele>237.66666666666666</ele><time>2026-04-25T04:38:04.999Z</time></trkpt><trkpt lat="45.867492382635454" lon="12.214864551760085"><ele>238.0</ele><time>2026-04-25T04:38:05.999Z</time></trkpt><trkpt lat="45.86756268041975" lon="12.214723455845549"><ele>236.8</ele><time>2026-04-25T04:38:07.999Z</time></trkpt><trkpt lat="45.8676156129673" lon="12.214563455471636"><ele>235.60000000000002</ele><time>2026-04-25T04:38:09.999Z</time></trkpt><trkpt lat="45.86760803733325" lon="12.214468739443646"><ele>234.39999999999998</ele><time>2026-04-25T04:38:10.999Z</time></trkpt><trkpt lat="45.86763366302933" lon="12.214370406288287"><ele>233.2</ele><time>2026-04-25T04:38:11.999Z</time></trkpt><trkpt lat="45.867661263946424" lon="12.214272205096197"><ele>232.0</ele><time>2026-04-25T04:38:12.999Z</time></trkpt><trkpt lat="45.86771634178212" lon="12.214107845772183"><ele>230.49999999999997</ele><time>2026-04-25T04:38:14.999Z</time></trkpt><trkpt lat="45.86776403008732" lon="12.214014821503177"><ele>229.0</ele><time>2026-04-25T04:38:15.999Z</time></trkpt><trkpt lat="45.867812077697934" lon="12.213895102461455"><ele>227.5</ele><time>2026-04-25T04:38:16.999Z</time></trkpt><trkpt lat="45.86785307280676" lon="12.213802183934169"><ele>226.0</ele><time>2026-04-25T04:38:17.999Z</time></trkpt><trkpt lat="45.867894983973265" lon="12.21370970688522"><ele>224.49999999999997</ele><time>2026-04-25T04:38:18.999Z</time></trkpt><trkpt lat="45.86794282217571" lon="12.213626889529305"><ele>223.0</ele><time>2026-04-25T04:38:19.999Z</time></trkpt><trkpt lat="45.86799214111925" lon="12.213556348856851"><ele>222.99999999999997</ele><time>2026-04-25T04:38:20.999Z</time></trkpt><trkpt lat="45.86804712750074" lon="12.213487416763673"><ele>223.0</ele><time>2026-04-25T04:38:21.999Z</time></trkpt><trkpt lat="45.868104874943896" lon="12.213416302907978"><ele>223.0</ele><time>2026-04-25T04:38:22.999Z</time></trkpt><trkpt lat="45.86816069958718" lon="12.213347556902798"><ele>223.0</ele><time>2026-04-25T04:38:23.999Z</time></trkpt><trkpt lat="45.86821424550306" lon="12.213281617080852"><ele>222.99999999999997</ele><time>2026-04-25T04:38:24.999Z</time></trkpt><trkpt lat="45.86826570534533" lon="12.213218246174186"><ele>223.0</ele><time>2026-04-25T04:38:25.999Z</time></trkpt><trkpt lat="45.8683641559087" lon="12.213096407897417"><ele>222.99999999999997</ele><time>2026-04-25T04:38:27.999Z</time></trkpt><trkpt lat="45.86841532641381" lon="12.213033031580688"><ele>223.0</ele><time>2026-04-25T04:38:28.999Z</time></trkpt><trkpt lat="45.86846644214537" lon="12.212968790222567"><ele>223.0</ele><time>2026-04-25T04:38:29.999Z</time></trkpt><trkpt lat="45.868516854403204" lon="12.212904356375317"><ele>223.0</ele><time>2026-04-25T04:38:30.999Z</time></trkpt><trkpt lat="45.868557311303924" lon="12.212826019688238"><ele>222.99999999999997</ele><time>2026-04-25T04:38:31.999Z</time></trkpt><trkpt lat="45.86865245267376" lon="12.212705478917425"><ele>223.0</ele><time>2026-04-25T04:38:33.999Z</time></trkpt><trkpt lat="45.86874145809457" lon="12.212584460503997"><ele>224.33333333333331</ele><time>2026-04-25T04:38:35.999Z</time></trkpt><trkpt lat="45.86882888705058" lon="12.212466009626306"><ele>225.66666666666666</ele><time>2026-04-25T04:38:37.999Z</time></trkpt><trkpt lat="45.86889159721248" lon="12.212409873987532"><ele>227.0</ele><time>2026-04-25T04:38:38.999Z</time></trkpt><trkpt lat="45.868980487787525" lon="12.212295839084344"><ele>228.33333333333331</ele><time>2026-04-25T04:38:40.999Z</time></trkpt><trkpt lat="45.869029278827085" lon="12.212232567200864"><ele>229.66666666666666</ele><time>2026-04-25T04:38:41.999Z</time></trkpt><trkpt lat="45.8690771629861" lon="12.212169368413356"><ele>231.0</ele><time>2026-04-25T04:38:43Z</time></trkpt><trkpt lat="45.8691562059806" lon="12.2120650453607"><ele>231.0</ele><time>2026-04-25T04:38:45Z</time></trkpt><trkpt lat="45.86923115873546" lon="12.211975971286327"><ele>231.0</ele><time>2026-04-25T04:38:47Z</time></trkpt><trkpt lat="45.86930751577511" lon="12.21191693202102"><ele>231.0</ele><time>2026-04-25T04:38:49Z</time></trkpt><trkpt lat="45.86934016581652" lon="12.211834450205691"><ele>231.0</ele><time>2026-04-25T04:38:51Z</time></trkpt><trkpt lat="45.86940643617868" lon="12.211743604064548"><ele>231.0</ele><time>2026-04-25T04:38:54Z</time></trkpt><trkpt lat="45.86947314258258" lon="12.21169232893789"><ele>231.0</ele><time>2026-04-25T04:38:56Z</time></trkpt><trkpt lat="45.8695304822594" lon="12.211639830759163"><ele>232.66666666666666</ele><time>2026-04-25T04:38:58Z</time></trkpt><trkpt lat="45.86961743477883" lon="12.211611754922089"><ele>234.33333333333331</ele><time>2026-04-25T04:39:00Z</time></trkpt><trkpt lat="45.869695315656315" lon="12.211587723389412"><ele>236.0</ele><time>2026-04-25T04:39:02Z</time></trkpt><trkpt lat="45.86976988307814" lon="12.2115579380161"><ele>237.66666666666666</ele><time>2026-04-25T04:39:04Z</time></trkpt><trkpt lat="45.86987808273108" lon="12.211547772329995"><ele>239.33333333333331</ele><time>2026-04-25T04:39:06Z</time></trkpt><trkpt lat="45.86994599356739" lon="12.211545924156402"><ele>241.0</ele><time>2026-04-25T04:39:07Z</time></trkpt><trkpt lat="45.87003765137078" lon="12.211520706957304"><ele>241.8</ele><time>2026-04-25T04:39:09Z</time></trkpt><trkpt lat="45.87014439017383" lon="12.2115092065567"><ele>242.60000000000002</ele><time>2026-04-25T04:39:11Z</time></trkpt><trkpt lat="45.87025512541391" lon="12.211515615033187"><ele>243.4</ele><time>2026-04-25T04:39:13Z</time></trkpt><trkpt lat="45.870352540447726" lon="12.211491778555652"><ele>244.2</ele><time>2026-04-25T04:39:15Z</time></trkpt><trkpt lat="45.87045404990167" lon="12.211444828243351"><ele>245.0</ele><time>2026-04-25T04:39:17Z</time></trkpt><trkpt lat="45.8705506769914" lon="12.211451927868216"><ele>242.71428571428572</ele><time>2026-04-25T04:39:19Z</time></trkpt><trkpt lat="45.87061997815896" lon="12.211439334894163"><ele>240.42857142857144</ele><time>2026-04-25T04:39:20Z</time></trkpt><trkpt lat="45.87068299393873" lon="12.211422777892924"><ele>238.14285714285714</ele><time>2026-04-25T04:39:21Z</time></trkpt><trkpt lat="45.87075179237726" lon="12.211417252348435"><ele>235.85714285714286</ele><time>2026-04-25T04:39:22Z</time></trkpt><trkpt lat="45.87081110352597" lon="12.211373244435089"><ele>233.57142857142858</ele><time>2026-04-25T04:39:23Z</time></trkpt><trkpt lat="45.87085933933432" lon="12.211300834504696"><ele>231.28571428571428</ele><time>2026-04-25T04:39:24Z</time></trkpt><trkpt lat="45.87088120086569" lon="12.211189958025521"><ele>229.0</ele><time>2026-04-25T04:39:25Z</time></trkpt><trkpt lat="45.87092086210732" lon="12.211115199042233"><ele>231.14285714285714</ele><time>2026-04-25T04:39:26Z</time></trkpt><trkpt lat="45.8709497993045" lon="12.211032258652537"><ele>233.28571428571428</ele><time>2026-04-25T04:39:27Z</time></trkpt><trkpt lat="45.871013158845216" lon="12.210884141915328"><ele>235.42857142857142</ele><time>2026-04-25T04:39:29Z</time></trkpt><trkpt lat="45.871050404349354" lon="12.210810717406208"><ele>237.57142857142856</ele><time>2026-04-25T04:39:30Z</time></trkpt><trkpt lat="45.871089010865035" lon="12.210735442355128"><ele>239.71428571428572</ele><time>2026-04-25T04:39:31Z</time></trkpt><trkpt lat="45.87112811726338" lon="12.210659192448722"><ele>241.85714285714283</ele><time>2026-04-25T04:39:32Z</time></trkpt><trkpt lat="45.871165714680856" lon="12.210585884704269"><ele>243.99999999999997</ele><time>2026-04-25T04:39:33Z</time></trkpt><trkpt lat="45.87120246718792" lon="12.210505469829437"><ele>244.0</ele><time>2026-04-25T04:39:34Z</time></trkpt><trkpt lat="45.87124721795226" lon="12.210338865317171"><ele>244.0</ele><time>2026-04-25T04:39:36Z</time></trkpt><trkpt lat="45.87130025718845" lon="12.210191405044917"><ele>244.0</ele><time>2026-04-25T04:39:38Z</time></trkpt><trkpt lat="45.87127875081388" lon="12.210031294796657"><ele>244.0</ele><time>2026-04-25T04:39:40Z</time></trkpt><trkpt lat="45.871206873963104" lon="12.20989956844026"><ele>243.33333333333331</ele><time>2026-04-25T04:39:42Z</time></trkpt><trkpt lat="45.87115934579647" lon="12.209764402165526"><ele>242.66666666666666</ele><time>2026-04-25T04:39:44Z</time></trkpt><trkpt lat="45.87111009081142" lon="12.209666243741635"><ele>242.0</ele><time>2026-04-25T04:39:46Z</time></trkpt><trkpt lat="45.87107550369001" lon="12.209586470091377"><ele>241.33333333333331</ele><time>2026-04-25T04:39:48Z</time></trkpt><trkpt lat="45.87103912948415" lon="12.209496320988197"><ele>240.66666666666666</ele><time>2026-04-25T04:39:50Z</time></trkpt><trkpt lat="45.87105439857439" lon="12.209364309964077"><ele>240.0</ele><time>2026-04-25T04:39:53Z</time></trkpt><trkpt lat="45.871047469011934" lon="12.209263234525485"><ele>240.0</ele><time>2026-04-25T04:39:54.999Z</time></trkpt><trkpt lat="45.871061614055314" lon="12.209140295661603"><ele>240.0</ele><time>2026-04-25T04:39:56.999Z</time></trkpt><trkpt lat="45.87105810720159" lon="12.20898836536004"><ele>240.0</ele><time>2026-04-25T04:39:58.999Z</time></trkpt><trkpt lat="45.87104139397876" lon="12.208877151253162"><ele>240.0</ele><time>2026-04-25T04:40:00.999Z</time></trkpt><trkpt lat="45.87101433002878" lon="12.2087742725875"><ele>240.0</ele><time>2026-04-25T04:40:02.999Z</time></trkpt><trkpt lat="45.870978363080006" lon="12.208658299231796"><ele>240.0</ele><time>2026-04-25T04:40:04.999Z</time></trkpt><trkpt lat="45.87092979352406" lon="12.208535368242686"><ele>237.8</ele><time>2026-04-25T04:40:06.999Z</time></trkpt><trkpt lat="45.87088743538128" lon="12.208396960105947"><ele>235.6</ele><time>2026-04-25T04:40:08.999Z</time></trkpt><trkpt lat="45.87086210440111" lon="12.208300678055188"><ele>233.39999999999998</ele><time>2026-04-25T04:40:09.999Z</time></trkpt><trkpt lat="45.870823712505526" lon="12.208142424622537"><ele>231.2</ele><time>2026-04-25T04:40:11.999Z</time></trkpt><trkpt lat="45.870779547892845" lon="12.207996813009501"><ele>229.0</ele><time>2026-04-25T04:40:13.999Z</time></trkpt><trkpt lat="45.87073237306541" lon="12.207842341118235"><ele>229.0</ele><time>2026-04-25T04:40:15.999Z</time></trkpt><trkpt lat="45.87067614634523" lon="12.207712284197704"><ele>228.99999999999997</ele><time>2026-04-25T04:40:17.999Z</time></trkpt><trkpt lat="45.8706581495285" lon="12.207624155723673"><ele>228.99999999999997</ele><time>2026-04-25T04:40:18.999Z</time></trkpt><trkpt lat="45.87059846435431" lon="12.207464458065765"><ele>229.0</ele><time>2026-04-25T04:40:20.999Z</time></trkpt><trkpt lat="45.870559872269" lon="12.207298773720936"><ele>229.0</ele><time>2026-04-25T04:40:22.999Z</time></trkpt><trkpt lat="45.87054163901773" lon="12.207199580276457"><ele>228.99999999999997</ele><time>2026-04-25T04:40:23.999Z</time></trkpt><trkpt lat="45.870509515709045" lon="12.207047861969395"><ele>229.0</ele><time>2026-04-25T04:40:25.999Z</time></trkpt><trkpt lat="45.87055596395197" lon="12.206869330436758"><ele>229.0</ele><time>2026-04-25T04:40:27.999Z</time></trkpt><trkpt lat="45.870572756503655" lon="12.206777071996079"><ele>229.0</ele><time>2026-04-25T04:40:28.999Z</time></trkpt><trkpt lat="45.870613180089286" lon="12.206689431227252"><ele>228.99999999999997</ele><time>2026-04-25T04:40:29.999Z</time></trkpt><trkpt lat="45.87063759378202" lon="12.206602792665555"><ele>229.0</ele><time>2026-04-25T04:40:30.999Z</time></trkpt><trkpt lat="45.87066624504139" lon="12.206520326142304"><ele>227.66666666666666</ele><time>2026-04-25T04:40:31.999Z</time></trkpt><trkpt lat="45.87069397192189" lon="12.206434147245266"><ele>226.33333333333331</ele><time>2026-04-25T04:40:32.999Z</time></trkpt><trkpt lat="45.87072193120632" lon="12.206347245978408"><ele>225.0</ele><time>2026-04-25T04:40:33.999Z</time></trkpt><trkpt lat="45.870748716334326" lon="12.206259989385382"><ele>223.66666666666669</ele><time>2026-04-25T04:40:34.999Z</time></trkpt><trkpt lat="45.8707625379271" lon="12.206170852196097"><ele>222.33333333333334</ele><time>2026-04-25T04:40:35.999Z</time></trkpt><trkpt lat="45.87081731291014" lon="12.206018994035865"><ele>221.0</ele><time>2026-04-25T04:40:37.999Z</time></trkpt><trkpt lat="45.87082720227121" lon="12.205918017566677"><ele>221.0</ele><time>2026-04-25T04:40:38.999Z</time></trkpt><trkpt lat="45.870833691445824" lon="12.205825355544201"><ele>221.00000000000003</ele><time>2026-04-25T04:40:39.999Z</time></trkpt><trkpt lat="45.87082526340581" lon="12.205669231120847"><ele>221.00000000000003</ele><time>2026-04-25T04:40:41.999Z</time></trkpt><trkpt lat="45.870764031799744" lon="12.20553170216776"><ele>221.0</ele><time>2026-04-25T04:40:43.999Z</time></trkpt><trkpt lat="45.87069355427497" lon="12.205371854282365"><ele>221.0</ele><time>2026-04-25T04:40:45.999Z</time></trkpt><trkpt lat="45.87062716950606" lon="12.205286523664508"><ele>221.8</ele><time>2026-04-25T04:40:47.999Z</time></trkpt><trkpt lat="45.870554457082186" lon="12.205160399527351"><ele>222.60000000000002</ele><time>2026-04-25T04:40:50Z</time></trkpt><trkpt lat="45.870501300849796" lon="12.205081693521372"><ele>223.4</ele><time>2026-04-25T04:40:52Z</time></trkpt><trkpt lat="45.87044960126899" lon="12.204982149178365"><ele>224.2</ele><time>2026-04-25T04:40:54Z</time></trkpt><trkpt lat="45.870371537192995" lon="12.204905073453721"><ele>225.0</ele><time>2026-04-25T04:40:56Z</time></trkpt><trkpt lat="45.87031990267575" lon="12.204816333680686"><ele>225.2</ele><time>2026-04-25T04:40:58Z</time></trkpt><trkpt lat="45.8702265312751" lon="12.204697779393792"><ele>225.4</ele><time>2026-04-25T04:41:00Z</time></trkpt><trkpt lat="45.87016198655394" lon="12.204646622903331"><ele>225.60000000000002</ele><time>2026-04-25T04:41:04Z</time></trkpt><trkpt lat="45.87012533265378" lon="12.204525764110643"><ele>225.8</ele><time>2026-04-25T04:41:07Z</time></trkpt><trkpt lat="45.87006295700763" lon="12.20446728663841"><ele>226.0</ele><time>2026-04-25T04:41:09Z</time></trkpt><trkpt lat="45.86997825186331" lon="12.20437054572743"><ele>224.8</ele><time>2026-04-25T04:41:12Z</time></trkpt><trkpt lat="45.86989533113674" lon="12.20438598602399"><ele>223.60000000000002</ele><time>2026-04-25T04:41:14Z</time></trkpt><trkpt lat="45.86978738678772" lon="12.204356510170449"><ele>222.4</ele><time>2026-04-25T04:41:16Z</time></trkpt><trkpt lat="45.86970570688995" lon="12.20433200333606"><ele>221.2</ele><time>2026-04-25T04:41:17Z</time></trkpt><trkpt lat="45.86959632572452" lon="12.204334339909716"><ele>220.0</ele><time>2026-04-25T04:41:18Z</time></trkpt><trkpt lat="45.86951765621493" lon="12.204285367339505"><ele>220.0</ele><time>2026-04-25T04:41:19Z</time></trkpt><trkpt lat="45.86940457506033" lon="12.20434304033229"><ele>220.0</ele><time>2026-04-25T04:41:21Z</time></trkpt><trkpt lat="45.869327060944634" lon="12.204396911626077"><ele>220.0</ele><time>2026-04-25T04:41:23Z</time></trkpt><trkpt lat="45.86922539943681" lon="12.204484426912273"><ele>220.0</ele><time>2026-04-25T04:41:25Z</time></trkpt><trkpt lat="45.86916447320224" lon="12.20453044636459"><ele>220.0</ele><time>2026-04-25T04:41:28Z</time></trkpt><trkpt lat="45.869090918989556" lon="12.20456132386991"><ele>220.57142857142856</ele><time>2026-04-25T04:41:30Z</time></trkpt><trkpt lat="45.86902659386819" lon="12.204601364263471"><ele>221.14285714285714</ele><time>2026-04-25T04:41:32Z</time></trkpt><trkpt lat="45.86896141739205" lon="12.2046419345953"><ele>221.71428571428572</ele><time>2026-04-25T04:41:34Z</time></trkpt><trkpt lat="45.86889291471607" lon="12.204686801665193"><ele>222.28571428571428</ele><time>2026-04-25T04:41:36Z</time></trkpt><trkpt lat="45.86882867017108" lon="12.204729852134802"><ele>222.85714285714286</ele><time>2026-04-25T04:41:38Z</time></trkpt><trkpt lat="45.868761695679524" lon="12.204757022623786"><ele>223.42857142857142</ele><time>2026-04-25T04:41:40Z</time></trkpt><trkpt lat="45.86869422603668" lon="12.204776223671477"><ele>224.0</ele><time>2026-04-25T04:41:43Z</time></trkpt><trkpt lat="45.86862929290395" lon="12.204783602417798"><ele>224.0</ele><time>2026-04-25T04:41:45Z</time></trkpt><trkpt lat="45.86857801950435" lon="12.204629292157723"><ele>223.99999999999997</ele><time>2026-04-25T04:41:47Z</time></trkpt><trkpt lat="45.86853308587313" lon="12.204554332285264"><ele>223.99999999999997</ele><time>2026-04-25T04:41:49Z</time></trkpt><trkpt lat="45.868501829953715" lon="12.204457783247848"><ele>224.0</ele><time>2026-04-25T04:41:50Z</time></trkpt><trkpt lat="45.86846384950133" lon="12.204359153343535"><ele>224.0</ele><time>2026-04-25T04:41:51Z</time></trkpt><trkpt lat="45.86837345407596" lon="12.204248388955653"><ele>222.33333333333334</ele><time>2026-04-25T04:41:52Z</time></trkpt><trkpt lat="45.868357979478965" lon="12.204067137618049"><ele>220.66666666666669</ele><time>2026-04-25T04:41:53.999Z</time></trkpt><trkpt lat="45.86835002763812" lon="12.203966846939919"><ele>219.0</ele><time>2026-04-25T04:41:54.999Z</time></trkpt><trkpt lat="45.868335139127964" lon="12.203870769725398"><ele>217.33333333333331</ele><time>2026-04-25T04:41:55.999Z</time></trkpt><trkpt lat="45.86834360914947" lon="12.20376516162193"><ele>215.66666666666666</ele><time>2026-04-25T04:41:56.999Z</time></trkpt><trkpt lat="45.86837374203836" lon="12.20367621014592"><ele>214.0</ele><time>2026-04-25T04:41:57.999Z</time></trkpt><trkpt lat="45.868377917912575" lon="12.203563163776275"><ele>214.71428571428572</ele><time>2026-04-25T04:41:58.999Z</time></trkpt><trkpt lat="45.868392783355894" lon="12.203463423028845"><ele>215.42857142857144</ele><time>2026-04-25T04:41:59.999Z</time></trkpt><trkpt lat="45.8684154469951" lon="12.203366252806386"><ele>216.14285714285717</ele><time>2026-04-25T04:42:00.999Z</time></trkpt><trkpt lat="45.868441975845926" lon="12.203269841161905"><ele>216.85714285714286</ele><time>2026-04-25T04:42:01.999Z</time></trkpt><trkpt lat="45.86845893158868" lon="12.20317604867475"><ele>217.57142857142856</ele><time>2026-04-25T04:42:02.999Z</time></trkpt><trkpt lat="45.86847571064535" lon="12.203056699369085"><ele>218.2857142857143</ele><time>2026-04-25T04:42:03.999Z</time></trkpt><trkpt lat="45.868492078366295" lon="12.20296405945704"><ele>219.0</ele><time>2026-04-25T04:42:04.999Z</time></trkpt><trkpt lat="45.86850284057848" lon="12.202871625833469"><ele>219.0</ele><time>2026-04-25T04:42:05.999Z</time></trkpt><trkpt lat="45.86851537899686" lon="12.202775915166594"><ele>219.0</ele><time>2026-04-25T04:42:06.999Z</time></trkpt><trkpt lat="45.868529495011686" lon="12.202683645231751"><ele>219.0</ele><time>2026-04-25T04:42:07.999Z</time></trkpt><trkpt lat="45.868536708876114" lon="12.2025800055457"><ele>219.0</ele><time>2026-04-25T04:42:08.999Z</time></trkpt><trkpt lat="45.86855112680952" lon="12.202485569004565"><ele>219.0</ele><time>2026-04-25T04:42:09.999Z</time></trkpt><trkpt lat="45.8685416476475" lon="12.202393476328309"><ele>219.0</ele><time>2026-04-25T04:42:10.999Z</time></trkpt><trkpt lat="45.868552840406" lon="12.202296213675078"><ele>219.0</ele><time>2026-04-25T04:42:11.999Z</time></trkpt><trkpt lat="45.868562676857756" lon="12.202196240479648"><ele>217.16666666666666</ele><time>2026-04-25T04:42:12.999Z</time></trkpt><trkpt lat="45.86859657890788" lon="12.202043924227638"><ele>215.33333333333331</ele><time>2026-04-25T04:42:14.999Z</time></trkpt><trkpt lat="45.8686152563481" lon="12.201918622641216"><ele>213.5</ele><time>2026-04-25T04:42:16.999Z</time></trkpt><trkpt lat="45.86862569664834" lon="12.20182451930231"><ele>211.66666666666666</ele><time>2026-04-25T04:42:19.999Z</time></trkpt><trkpt lat="45.86864117982507" lon="12.201689698587"><ele>209.83333333333331</ele><time>2026-04-25T04:43:16Z</time></trkpt><trkpt lat="45.8686783003213" lon="12.20157887279385"><ele>208.0</ele><time>2026-04-25T04:43:18Z</time></trkpt><trkpt lat="45.86869379319434" lon="12.201429301454434"><ele>207.0</ele><time>2026-04-25T04:43:20Z</time></trkpt><trkpt lat="45.86872832822923" lon="12.20125908712346"><ele>206.0</ele><time>2026-04-25T04:43:22Z</time></trkpt><trkpt lat="45.86878480569212" lon="12.201115355134881"><ele>205.0</ele><time>2026-04-25T04:43:24Z</time></trkpt><trkpt lat="45.868822427606105" lon="12.200949116714792"><ele>204.0</ele><time>2026-04-25T04:43:26Z</time></trkpt><trkpt lat="45.86887479449216" lon="12.200793912964354"><ele>204.0</ele><time>2026-04-25T04:43:28Z</time></trkpt><trkpt lat="45.86890624651157" lon="12.200705596331007"><ele>204.0</ele><time>2026-04-25T04:43:29Z</time></trkpt><trkpt lat="45.86893792521752" lon="12.200624960647302"><ele>204.0</ele><time>2026-04-25T04:43:30Z</time></trkpt><trkpt lat="45.86897570869613" lon="12.20054302729789"><ele>204.0</ele><time>2026-04-25T04:43:31Z</time></trkpt><trkpt lat="45.86901838030535" lon="12.200455947860387"><ele>204.0</ele><time>2026-04-25T04:43:32Z</time></trkpt><trkpt lat="45.86906734482384" lon="12.200371190932369"><ele>204.0</ele><time>2026-04-25T04:43:33Z</time></trkpt><trkpt lat="45.869122099303496" lon="12.200287752133653"><ele>204.0</ele><time>2026-04-25T04:43:34Z</time></trkpt><trkpt lat="45.86916561219122" lon="12.200194943364595"><ele>204.0</ele><time>2026-04-25T04:43:35Z</time></trkpt><trkpt lat="45.86922129565075" lon="12.200114606130384"><ele>204.0</ele><time>2026-04-25T04:43:36Z</time></trkpt><trkpt lat="45.86927193112166" lon="12.200033221504752"><ele>204.0</ele><time>2026-04-25T04:43:37Z</time></trkpt><trkpt lat="45.86932312654477" lon="12.199962777690953"><ele>204.0</ele><time>2026-04-25T04:43:38Z</time></trkpt><trkpt lat="45.86937769249497" lon="12.19991626156336"><ele>204.0</ele><time>2026-04-25T04:43:39Z</time></trkpt><trkpt lat="45.86947259425486" lon="12.199866074967678"><ele>204.0</ele><time>2026-04-25T04:43:41Z</time></trkpt><trkpt lat="45.86957507420353" lon="12.199836436301451"><ele>201.0</ele><time>2026-04-25T04:43:43Z</time></trkpt><trkpt lat="45.86965418485475" lon="12.199768543663362"><ele>198.0</ele><time>2026-04-25T04:43:45Z</time></trkpt><trkpt lat="45.86962553389583" lon="12.199621188637618"><ele>195.0</ele><time>2026-04-25T04:43:46Z</time></trkpt><trkpt lat="45.869610772536596" lon="12.199525331703631"><ele>192.0</ele><time>2026-04-25T04:43:47Z</time></trkpt><trkpt lat="45.86960005790631" lon="12.199433511541159"><ele>189.0</ele><time>2026-04-25T04:43:48Z</time></trkpt><trkpt lat="45.86959333420257" lon="12.199337856473832"><ele>186.0</ele><time>2026-04-25T04:43:49Z</time></trkpt><trkpt lat="45.869588327089495" lon="12.19924496109705"><ele>186.00000000000003</ele><time>2026-04-25T04:43:50Z</time></trkpt><trkpt lat="45.8695820022462" lon="12.199151706436545"><ele>186.0</ele><time>2026-04-25T04:43:51Z</time></trkpt><trkpt lat="45.8695795301447" lon="12.199056600510845"><ele>186.0</ele><time>2026-04-25T04:43:52Z</time></trkpt><trkpt lat="45.86957418061362" lon="12.198965566615568"><ele>186.0</ele><time>2026-04-25T04:43:53Z</time></trkpt><trkpt lat="45.86956861590939" lon="12.198872890734552"><ele>186.0</ele><time>2026-04-25T04:43:54Z</time></trkpt><trkpt lat="45.86956099092166" lon="12.198770745547266"><ele>186.00000000000003</ele><time>2026-04-25T04:43:55Z</time></trkpt><trkpt lat="45.86957090566894" lon="12.198676340628435"><ele>186.0</ele><time>2026-04-25T04:43:56Z</time></trkpt><trkpt lat="45.869564302930094" lon="12.198585670879059"><ele>185.5</ele><time>2026-04-25T04:43:57Z</time></trkpt><trkpt lat="45.86954064805861" lon="12.198489671436803"><ele>185.0</ele><time>2026-04-25T04:43:58Z</time></trkpt><trkpt lat="45.86953031779159" lon="12.198288206624692"><ele>184.5</ele><time>2026-04-25T04:44:00Z</time></trkpt><trkpt lat="45.869494423215066" lon="12.198198419209834"><ele>184.0</ele><time>2026-04-25T04:44:01Z</time></trkpt><trkpt lat="45.869470710268295" lon="12.198108720360095"><ele>183.5</ele><time>2026-04-25T04:44:02Z</time></trkpt><trkpt lat="45.86943773531693" lon="12.198019030003262"><ele>183.0</ele><time>2026-04-25T04:44:03Z</time></trkpt><trkpt lat="45.86937475455163" lon="12.197859556237244"><ele>182.2</ele><time>2026-04-25T04:44:05Z</time></trkpt><trkpt lat="45.86931764339732" lon="12.197717335294014"><ele>181.4</ele><time>2026-04-25T04:44:07Z</time></trkpt><trkpt lat="45.869276177946716" lon="12.197594227232852"><ele>180.6</ele><time>2026-04-25T04:44:08.999Z</time></trkpt><trkpt lat="45.8692568652458" lon="12.197449459415095"><ele>179.79999999999998</ele><time>2026-04-25T04:44:10.999Z</time></trkpt><trkpt lat="45.86924135160607" lon="12.19733335092362"><ele>179.0</ele><time>2026-04-25T04:44:12.999Z</time></trkpt><trkpt lat="45.869101174977146" lon="12.1973278808163"><ele>180.83333333333331</ele><time>2026-04-25T04:44:14.999Z</time></trkpt><trkpt lat="45.86903458006722" lon="12.197331143534806"><ele>182.66666666666666</ele><time>2026-04-25T04:44:16.999Z</time></trkpt><trkpt lat="45.86896947778407" lon="12.197322639112251"><ele>184.5</ele><time>2026-04-25T04:44:18.999Z</time></trkpt><trkpt lat="45.86888947640393" lon="12.197303199552245"><ele>186.33333333333334</ele><time>2026-04-25T04:44:21.999Z</time></trkpt><trkpt lat="45.868805210652546" lon="12.197280430230643"><ele>188.16666666666669</ele><time>2026-04-25T04:44:24.999Z</time></trkpt><trkpt lat="45.86872829301619" lon="12.197251347922224"><ele>190.0</ele><time>2026-04-25T04:44:27.999Z</time></trkpt><trkpt lat="45.86865406292543" lon="12.197235380064221"><ele>190.0</ele><time>2026-04-25T04:44:30.999Z</time></trkpt><trkpt lat="45.86859245211783" lon="12.197214137918275"><ele>190.0</ele><time>2026-04-25T04:44:33.999Z</time></trkpt><trkpt lat="45.868505358336705" lon="12.197204562133876"><ele>190.0</ele><time>2026-04-25T04:44:36.999Z</time></trkpt><trkpt lat="45.8684243139263" lon="12.1971883024379"><ele>190.0</ele><time>2026-04-25T04:44:39.999Z</time></trkpt><trkpt lat="45.868358779220515" lon="12.19717554949396"><ele>190.0</ele><time>2026-04-25T04:44:42.999Z</time></trkpt><trkpt lat="45.868274877294624" lon="12.197158917672489"><ele>190.0</ele><time>2026-04-25T04:44:45.999Z</time></trkpt><trkpt lat="45.86821099746591" lon="12.197148895872353"><ele>190.0</ele><time>2026-04-25T04:44:47.999Z</time></trkpt><trkpt lat="45.86814710433772" lon="12.197149828201788"><ele>190.6</ele><time>2026-04-25T04:44:49.999Z</time></trkpt><trkpt lat="45.868058712863665" lon="12.197126052674662"><ele>191.2</ele><time>2026-04-25T04:44:52.999Z</time></trkpt><trkpt lat="45.867963365144966" lon="12.197120323508111"><ele>191.8</ele><time>2026-04-25T04:44:55.999Z</time></trkpt><trkpt lat="45.867872596113" lon="12.197087483994673"><ele>192.4</ele><time>2026-04-25T04:44:58.999Z</time></trkpt><trkpt lat="45.86778719971439" lon="12.197065603873543"><ele>193.0</ele><time>2026-04-25T04:45:02Z</time></trkpt><trkpt lat="45.867697285554364" lon="12.197053352482133"><ele>192.99999999999997</ele><time>2026-04-25T04:45:05Z</time></trkpt><trkpt lat="45.86761296537272" lon="12.197024115846318"><ele>193.0</ele><time>2026-04-25T04:45:08Z</time></trkpt><trkpt lat="45.86753196090938" lon="12.19701666779515"><ele>193.0</ele><time>2026-04-25T04:45:11Z</time></trkpt><trkpt lat="45.86746829019927" lon="12.197004066354461"><ele>193.0</ele><time>2026-04-25T04:45:13Z</time></trkpt><trkpt lat="45.867384745726206" lon="12.196984124960416"><ele>192.99999999999997</ele><time>2026-04-25T04:45:16Z</time></trkpt><trkpt lat="45.86730499042664" lon="12.196966340646265"><ele>193.0</ele><time>2026-04-25T04:45:19Z</time></trkpt><trkpt lat="45.86722716961516" lon="12.196943789155847"><ele>193.33333333333331</ele><time>2026-04-25T04:45:22Z</time></trkpt><trkpt lat="45.86715513827673" lon="12.196928020280314"><ele>193.66666666666666</ele><time>2026-04-25T04:45:25Z</time></trkpt><trkpt lat="45.86707497523639" lon="12.196900465487074"><ele>194.0</ele><time>2026-04-25T04:45:28Z</time></trkpt><trkpt lat="45.867001466257065" lon="12.196885875137607"><ele>194.33333333333331</ele><time>2026-04-25T04:45:31Z</time></trkpt><trkpt lat="45.86691321303911" lon="12.19687946810056"><ele>194.66666666666666</ele><time>2026-04-25T04:45:34Z</time></trkpt><trkpt lat="45.866823886972156" lon="12.196860269332328"><ele>195.0</ele><time>2026-04-25T04:45:37Z</time></trkpt><trkpt lat="45.86675826504689" lon="12.196850859737307"><ele>196.5</ele><time>2026-04-25T04:45:39Z</time></trkpt><trkpt lat="45.866693538732676" lon="12.196838209271142"><ele>198.0</ele><time>2026-04-25T04:45:41Z</time></trkpt><trkpt lat="45.86662428251288" lon="12.196840954288103"><ele>199.5</ele><time>2026-04-25T04:45:43Z</time></trkpt><trkpt lat="45.86653426200011" lon="12.196839952996767"><ele>201.0</ele><time>2026-04-25T04:45:45Z</time></trkpt><trkpt lat="45.86645230570597" lon="12.196854118164607"><ele>202.5</ele><time>2026-04-25T04:45:47Z</time></trkpt><trkpt lat="45.86636727721474" lon="12.19687529799254"><ele>204.0</ele><time>2026-04-25T04:45:49Z</time></trkpt><trkpt lat="45.866285481262764" lon="12.19690524090619"><ele>204.0</ele><time>2026-04-25T04:45:51Z</time></trkpt><trkpt lat="45.86619666761686" lon="12.196933924639838"><ele>204.0</ele><time>2026-04-25T04:45:53Z</time></trkpt><trkpt lat="45.866097310876185" lon="12.196974752003284"><ele>204.0</ele><time>2026-04-25T04:45:55Z</time></trkpt><trkpt lat="45.86598986411557" lon="12.197008267701207"><ele>204.0</ele><time>2026-04-25T04:45:57Z</time></trkpt><trkpt lat="45.86586979538882" lon="12.197047526935066"><ele>204.0</ele><time>2026-04-25T04:45:59Z</time></trkpt><trkpt lat="45.86575093344402" lon="12.197086974011192"><ele>203.66666666666666</ele><time>2026-04-25T04:46:01Z</time></trkpt><trkpt lat="45.86563929093202" lon="12.197134836193817"><ele>203.33333333333331</ele><time>2026-04-25T04:46:03Z</time></trkpt><trkpt lat="45.865578983360244" lon="12.197162981660611"><ele>203.0</ele><time>2026-04-25T04:46:04Z</time></trkpt><trkpt lat="45.86551582944445" lon="12.197184760785271"><ele>202.66666666666666</ele><time>2026-04-25T04:46:05Z</time></trkpt><trkpt lat="45.86539969239916" lon="12.197231894133061"><ele>202.33333333333331</ele><time>2026-04-25T04:46:07Z</time></trkpt><trkpt lat="45.8653340959511" lon="12.197250930808032"><ele>202.0</ele><time>2026-04-25T04:46:08Z</time></trkpt><trkpt lat="45.86521481826613" lon="12.197295705173092"><ele>202.16666666666666</ele><time>2026-04-25T04:46:10Z</time></trkpt><trkpt lat="45.86509448218657" lon="12.197342973079975"><ele>202.33333333333331</ele><time>2026-04-25T04:46:12Z</time></trkpt><trkpt lat="45.865032212641154" lon="12.197375895816744"><ele>202.5</ele><time>2026-04-25T04:46:13Z</time></trkpt><trkpt lat="45.86496992778898" lon="12.197400147359449"><ele>202.66666666666669</ele><time>2026-04-25T04:46:14Z</time></trkpt><trkpt lat="45.86490568465368" lon="12.197419064131568"><ele>202.83333333333334</ele><time>2026-04-25T04:46:15Z</time></trkpt><trkpt lat="45.864783091497024" lon="12.19745591001664"><ele>203.0</ele><time>2026-04-25T04:46:17Z</time></trkpt><trkpt lat="45.864715361803434" lon="12.197482375478815"><ele>203.0</ele><time>2026-04-25T04:46:18Z</time></trkpt><trkpt lat="45.864652312439596" lon="12.197503117149264"><ele>203.0</ele><time>2026-04-25T04:46:19Z</time></trkpt><trkpt lat="45.86459176584539" lon="12.197528152334538"><ele>203.0</ele><time>2026-04-25T04:46:20Z</time></trkpt><trkpt lat="45.86452679208952" lon="12.197554076247595"><ele>203.0</ele><time>2026-04-25T04:46:21Z</time></trkpt><trkpt lat="45.86446325170077" lon="12.197586874524557"><ele>203.0</ele><time>2026-04-25T04:46:22Z</time></trkpt><trkpt lat="45.86439771086094" lon="12.197615253810964"><ele>203.0</ele><time>2026-04-25T04:46:22.999Z</time></trkpt><trkpt lat="45.864331540759345" lon="12.197645984001579"><ele>203.0</ele><time>2026-04-25T04:46:23.999Z</time></trkpt><trkpt lat="45.8642653364992" lon="12.197657418267097"><ele>201.50000000000003</ele><time>2026-04-25T04:46:24.999Z</time></trkpt><trkpt lat="45.864196344887716" lon="12.19766228264563"><ele>200.0</ele><time>2026-04-25T04:46:25.999Z</time></trkpt><trkpt lat="45.86412840719061" lon="12.197607467987128"><ele>198.5</ele><time>2026-04-25T04:46:26.999Z</time></trkpt><trkpt lat="45.86406073414041" lon="12.197562258644753"><ele>197.0</ele><time>2026-04-25T04:46:27.999Z</time></trkpt><trkpt lat="45.863988699944365" lon="12.197520325516088"><ele>195.50000000000003</ele><time>2026-04-25T04:46:28.999Z</time></trkpt><trkpt lat="45.863911406892385" lon="12.197462015966185"><ele>194.0</ele><time>2026-04-25T04:46:29.999Z</time></trkpt><trkpt lat="45.863853122097304" lon="12.197385200719546"><ele>194.00000000000003</ele><time>2026-04-25T04:46:30.999Z</time></trkpt><trkpt lat="45.863787664109786" lon="12.197308396855508"><ele>194.0</ele><time>2026-04-25T04:46:31.999Z</time></trkpt><trkpt lat="45.863727623223454" lon="12.197233023582966"><ele>194.0</ele><time>2026-04-25T04:46:32.999Z</time></trkpt><trkpt lat="45.86367671479607" lon="12.197160763827302"><ele>194.0</ele><time>2026-04-25T04:46:33.999Z</time></trkpt><trkpt lat="45.86361923596559" lon="12.197095662771321"><ele>194.00000000000003</ele><time>2026-04-25T04:46:34.999Z</time></trkpt><trkpt lat="45.86356379672983" lon="12.197027282574513"><ele>194.0</ele><time>2026-04-25T04:46:35.999Z</time></trkpt><trkpt lat="45.86351026503678" lon="12.196953296481405"><ele>194.0</ele><time>2026-04-25T04:46:36.999Z</time></trkpt><trkpt lat="45.863457654086815" lon="12.196880494997291"><ele>194.0</ele><time>2026-04-25T04:46:37.999Z</time></trkpt><trkpt lat="45.86340440214735" lon="12.196807297672418"><ele>194.0</ele><time>2026-04-25T04:46:38.999Z</time></trkpt><trkpt lat="45.86335636699799" lon="12.19672791059627"><ele>194.0</ele><time>2026-04-25T04:46:39.999Z</time></trkpt><trkpt lat="45.86330581901358" lon="12.196652839521056"><ele>194.0</ele><time>2026-04-25T04:46:40.999Z</time></trkpt><trkpt lat="45.86324733561937" lon="12.196601732186355"><ele>194.0</ele><time>2026-04-25T04:46:41.999Z</time></trkpt><trkpt lat="45.86319248013425" lon="12.196536250167084"><ele>194.0</ele><time>2026-04-25T04:46:42.999Z</time></trkpt><trkpt lat="45.86313772146725" lon="12.196490696900044"><ele>194.33333333333334</ele><time>2026-04-25T04:46:43.999Z</time></trkpt><trkpt lat="45.86306746795713" lon="12.196492274317746"><ele>194.66666666666669</ele><time>2026-04-25T04:46:44.999Z</time></trkpt><trkpt lat="45.86299922301795" lon="12.196499490611213"><ele>195.0</ele><time>2026-04-25T04:46:45.999Z</time></trkpt><trkpt lat="45.86292960437782" lon="12.196503686777753"><ele>195.33333333333331</ele><time>2026-04-25T04:46:46.999Z</time></trkpt><trkpt lat="45.86286284657805" lon="12.196512712925065"><ele>195.66666666666666</ele><time>2026-04-25T04:46:47.999Z</time></trkpt><trkpt lat="45.86274050723987" lon="12.196543924976746"><ele>196.0</ele><time>2026-04-25T04:46:49.999Z</time></trkpt><trkpt lat="45.86267466802753" lon="12.196578868782897"><ele>195.71428571428572</ele><time>2026-04-25T04:46:50.999Z</time></trkpt><trkpt lat="45.862605232757" lon="12.196601700547099"><ele>195.42857142857144</ele><time>2026-04-25T04:46:51.999Z</time></trkpt><trkpt lat="45.86253478074389" lon="12.196627927631761"><ele>195.14285714285714</ele><time>2026-04-25T04:46:52.999Z</time></trkpt><trkpt lat="45.86246529755163" lon="12.196664061782355"><ele>194.85714285714286</ele><time>2026-04-25T04:46:53.999Z</time></trkpt><trkpt lat="45.86239573751966" lon="12.196708384872766"><ele>194.57142857142858</ele><time>2026-04-25T04:46:54.999Z</time></trkpt><trkpt lat="45.862326650974424" lon="12.196752614149284"><ele>194.28571428571428</ele><time>2026-04-25T04:46:55.999Z</time></trkpt><trkpt lat="45.86225712036196" lon="12.196793619411581"><ele>194.0</ele><time>2026-04-25T04:46:56.999Z</time></trkpt><trkpt lat="45.86219229203116" lon="12.196842761367138"><ele>194.00000000000003</ele><time>2026-04-25T04:46:57.999Z</time></trkpt><trkpt lat="45.86212062029593" lon="12.196884082725212"><ele>194.0</ele><time>2026-04-25T04:46:58.999Z</time></trkpt><trkpt lat="45.86204859881002" lon="12.196940416856284"><ele>194.0</ele><time>2026-04-25T04:46:59.999Z</time></trkpt><trkpt lat="45.861969791897174" lon="12.196998411744104"><ele>194.0</ele><time>2026-04-25T04:47:00.999Z</time></trkpt><trkpt lat="45.86190797028203" lon="12.197042563179627"><ele>194.00000000000003</ele><time>2026-04-25T04:47:01.999Z</time></trkpt><trkpt lat="45.861846531725575" lon="12.19709840614657"><ele>194.0</ele><time>2026-04-25T04:47:02.999Z</time></trkpt><trkpt lat="45.86178232245909" lon="12.197149277563057"><ele>193.7142857142857</ele><time>2026-04-25T04:47:03.999Z</time></trkpt><trkpt lat="45.86171730987756" lon="12.197199397152371"><ele>193.42857142857144</ele><time>2026-04-25T04:47:04.999Z</time></trkpt><trkpt lat="45.86164386355057" lon="12.197243846755232"><ele>193.14285714285714</ele><time>2026-04-25T04:47:05.999Z</time></trkpt><trkpt lat="45.86157710201153" lon="12.197283800577232"><ele>192.85714285714283</ele><time>2026-04-25T04:47:07Z</time></trkpt><trkpt lat="45.861515594998636" lon="12.19733507996641"><ele>192.57142857142856</ele><time>2026-04-25T04:47:08Z</time></trkpt><trkpt lat="45.86144668923761" lon="12.197376699575816"><ele>192.28571428571428</ele><time>2026-04-25T04:47:09Z</time></trkpt><trkpt lat="45.861385962626045" lon="12.197422753277388"><ele>192.0</ele><time>2026-04-25T04:47:10Z</time></trkpt><trkpt lat="45.861316169907404" lon="12.197469711231763"><ele>191.99999999999997</ele><time>2026-04-25T04:47:11Z</time></trkpt><trkpt lat="45.86124681076914" lon="12.197524310656252"><ele>192.0</ele><time>2026-04-25T04:47:12Z</time></trkpt><trkpt lat="45.86118693112206" lon="12.197574227541951"><ele>192.0</ele><time>2026-04-25T04:47:13Z</time></trkpt><trkpt lat="45.861120725591604" lon="12.19761508252195"><ele>192.0</ele><time>2026-04-25T04:47:14Z</time></trkpt><trkpt lat="45.86105203405613" lon="12.197654449585968"><ele>192.0</ele><time>2026-04-25T04:47:15Z</time></trkpt><trkpt lat="45.860985450814546" lon="12.197698444372909"><ele>191.99999999999997</ele><time>2026-04-25T04:47:16Z</time></trkpt><trkpt lat="45.860925863796155" lon="12.197741882529934"><ele>192.0</ele><time>2026-04-25T04:47:17Z</time></trkpt><trkpt lat="45.860864082683364" lon="12.19778510778559"><ele>191.57142857142856</ele><time>2026-04-25T04:47:18Z</time></trkpt><trkpt lat="45.8607950782915" lon="12.197824612745482"><ele>191.14285714285714</ele><time>2026-04-25T04:47:19Z</time></trkpt><trkpt lat="45.86073117265273" lon="12.197868569665694"><ele>190.71428571428572</ele><time>2026-04-25T04:47:20Z</time></trkpt><trkpt lat="45.86066833518259" lon="12.197921474522746"><ele>190.28571428571428</ele><time>2026-04-25T04:47:21Z</time></trkpt><trkpt lat="45.860607469053484" lon="12.197969052431235"><ele>189.85714285714286</ele><time>2026-04-25T04:47:22Z</time></trkpt><trkpt lat="45.86053751452371" lon="12.198013122199418"><ele>189.42857142857142</ele><time>2026-04-25T04:47:23Z</time></trkpt><trkpt lat="45.860473147101416" lon="12.198082948661366"><ele>189.0</ele><time>2026-04-25T04:47:24Z</time></trkpt><trkpt lat="45.860410458314476" lon="12.198144283248993"><ele>188.71428571428572</ele><time>2026-04-25T04:47:25Z</time></trkpt><trkpt lat="45.860330233566884" lon="12.198187858180201"><ele>188.42857142857144</ele><time>2026-04-25T04:47:26Z</time></trkpt><trkpt lat="45.860278296912675" lon="12.198250807251146"><ele>188.14285714285714</ele><time>2026-04-25T04:47:27Z</time></trkpt><trkpt lat="45.860214364168016" lon="12.198299054117886"><ele>187.85714285714286</ele><time>2026-04-25T04:47:28Z</time></trkpt><trkpt lat="45.86014579577374" lon="12.198343676044122"><ele>187.57142857142858</ele><time>2026-04-25T04:47:29Z</time></trkpt><trkpt lat="45.860091276351845" lon="12.19840626290267"><ele>187.28571428571428</ele><time>2026-04-25T04:47:30Z</time></trkpt><trkpt lat="45.860019304598985" lon="12.198449560332978"><ele>187.0</ele><time>2026-04-25T04:47:31Z</time></trkpt><trkpt lat="45.85995410560807" lon="12.198505360398324"><ele>187.0</ele><time>2026-04-25T04:47:32Z</time></trkpt><trkpt lat="45.859891325535635" lon="12.198555371108792"><ele>187.0</ele><time>2026-04-25T04:47:33Z</time></trkpt><trkpt lat="45.859824807587465" lon="12.198600605324112"><ele>187.0</ele><time>2026-04-25T04:47:34Z</time></trkpt><trkpt lat="45.8597132309691" lon="12.19868700580772"><ele>187.0</ele><time>2026-04-25T04:47:36Z</time></trkpt><trkpt lat="45.85964666167572" lon="12.198725473081014"><ele>187.0</ele><time>2026-04-25T04:47:37Z</time></trkpt><trkpt lat="45.859585579378695" lon="12.198754205151667"><ele>187.0</ele><time>2026-04-25T04:47:38Z</time></trkpt><trkpt lat="45.85951940671253" lon="12.198798031696834"><ele>187.0</ele><time>2026-04-25T04:47:39Z</time></trkpt><trkpt lat="45.85946116286497" lon="12.198836145247405"><ele>187.0</ele><time>2026-04-25T04:47:40Z</time></trkpt><trkpt lat="45.85939276982018" lon="12.198872511037818"><ele>187.0</ele><time>2026-04-25T04:47:41Z</time></trkpt><trkpt lat="45.85932476840064" lon="12.198912917915132"><ele>187.0</ele><time>2026-04-25T04:47:42Z</time></trkpt><trkpt lat="45.85925653704201" lon="12.19894912763022"><ele>187.0</ele><time>2026-04-25T04:47:43Z</time></trkpt><trkpt lat="45.85918969795869" lon="12.198991484765548"><ele>187.0</ele><time>2026-04-25T04:47:44Z</time></trkpt><trkpt lat="45.859134349298955" lon="12.199036803669292"><ele>187.0</ele><time>2026-04-25T04:47:45Z</time></trkpt><trkpt lat="45.85907471924836" lon="12.199095070421667"><ele>187.0</ele><time>2026-04-25T04:47:46Z</time></trkpt><trkpt lat="45.859011966032895" lon="12.199145628682603"><ele>187.0</ele><time>2026-04-25T04:47:47Z</time></trkpt><trkpt lat="45.858958170453306" lon="12.199198042413302"><ele>187.0</ele><time>2026-04-25T04:47:48Z</time></trkpt><trkpt lat="45.85890474611681" lon="12.199246840150904"><ele>187.0</ele><time>2026-04-25T04:47:49Z</time></trkpt><trkpt lat="45.85884726747398" lon="12.1993058815226"><ele>187.0</ele><time>2026-04-25T04:47:50Z</time></trkpt><trkpt lat="45.85879314307121" lon="12.199368089174351"><ele>187.0</ele><time>2026-04-25T04:47:51Z</time></trkpt><trkpt lat="45.858734205672626" lon="12.199426039959432"><ele>187.0</ele><time>2026-04-25T04:47:52Z</time></trkpt><trkpt lat="45.858642888294476" lon="12.199525032694437"><ele>187.0</ele><time>2026-04-25T04:47:54Z</time></trkpt><trkpt lat="45.85857384550421" lon="12.199616856091614"><ele>187.0</ele><time>2026-04-25T04:47:56Z</time></trkpt><trkpt lat="45.85850100266099" lon="12.199691612052172"><ele>187.0</ele><time>2026-04-25T04:47:58Z</time></trkpt><trkpt lat="45.85841905025018" lon="12.199761953519708"><ele>187.0</ele><time>2026-04-25T04:48:00Z</time></trkpt><trkpt lat="45.858374609027265" lon="12.199924214344371"><ele>187.0</ele><time>2026-04-25T04:48:02Z</time></trkpt><trkpt lat="45.858339511477595" lon="12.200110770742207"><ele>187.28571428571428</ele><time>2026-04-25T04:48:04Z</time></trkpt><trkpt lat="45.85832347882912" lon="12.200202617898936"><ele>187.57142857142858</ele><time>2026-04-25T04:48:05Z</time></trkpt><trkpt lat="45.85830752661221" lon="12.200301297922723"><ele>187.85714285714286</ele><time>2026-04-25T04:48:06Z</time></trkpt><trkpt lat="45.85829812958789" lon="12.200406890462332"><ele>188.14285714285714</ele><time>2026-04-25T04:48:07Z</time></trkpt><trkpt lat="45.85827602925046" lon="12.20051273035738"><ele>188.42857142857144</ele><time>2026-04-25T04:48:08Z</time></trkpt><trkpt lat="45.85823386260416" lon="12.20061110353456"><ele>188.71428571428572</ele><time>2026-04-25T04:48:09Z</time></trkpt><trkpt lat="45.85819686304918" lon="12.200714182279025"><ele>189.0</ele><time>2026-04-25T04:48:10Z</time></trkpt><trkpt lat="45.858161167548275" lon="12.200806681820207"><ele>189.79999999999998</ele><time>2026-04-25T04:48:11Z</time></trkpt><trkpt lat="45.85809606573598" lon="12.20095872588868"><ele>190.6</ele><time>2026-04-25T04:48:13Z</time></trkpt><trkpt lat="45.85805783939557" lon="12.201039156168205"><ele>191.4</ele><time>2026-04-25T04:48:14Z</time></trkpt><trkpt lat="45.8580160866512" lon="12.20111522289721"><ele>192.2</ele><time>2026-04-25T04:48:15Z</time></trkpt><trkpt lat="45.85796436855695" lon="12.201195848073239"><ele>193.0</ele><time>2026-04-25T04:48:16Z</time></trkpt><trkpt lat="45.85786647730056" lon="12.201316341608496"><ele>193.00000000000003</ele><time>2026-04-25T04:48:18Z</time></trkpt><trkpt lat="45.857812754769846" lon="12.201367479184281"><ele>193.0</ele><time>2026-04-25T04:48:19Z</time></trkpt><trkpt lat="45.857755912384526" lon="12.201414740822257"><ele>193.0</ele><time>2026-04-25T04:48:20Z</time></trkpt><trkpt lat="45.857696856644345" lon="12.201460207105312"><ele>193.0</ele><time>2026-04-25T04:48:21Z</time></trkpt><trkpt lat="45.85763956409442" lon="12.201502390083201"><ele>193.0</ele><time>2026-04-25T04:48:22Z</time></trkpt><trkpt lat="45.85757709173337" lon="12.201542250585234"><ele>193.00000000000003</ele><time>2026-04-25T04:48:23Z</time></trkpt><trkpt lat="45.85751356988858" lon="12.201580350493378"><ele>193.0</ele><time>2026-04-25T04:48:24Z</time></trkpt><trkpt lat="45.857444949787094" lon="12.201616527132924"><ele>192.2857142857143</ele><time>2026-04-25T04:48:25Z</time></trkpt><trkpt lat="45.85738199705891" lon="12.201649161422493"><ele>191.57142857142858</ele><time>2026-04-25T04:48:26Z</time></trkpt><trkpt lat="45.85731839951901" lon="12.201682130062478"><ele>190.85714285714286</ele><time>2026-04-25T04:48:27Z</time></trkpt><trkpt lat="45.85724946593875" lon="12.201717864887419"><ele>190.14285714285717</ele><time>2026-04-25T04:48:28Z</time></trkpt><trkpt lat="45.8571733517267" lon="12.201760412555872"><ele>189.42857142857142</ele><time>2026-04-25T04:48:29Z</time></trkpt><trkpt lat="45.857109355283654" lon="12.201797290669562"><ele>188.71428571428572</ele><time>2026-04-25T04:48:30Z</time></trkpt><trkpt lat="45.85704107216569" lon="12.201854110608956"><ele>188.0</ele><time>2026-04-25T04:48:31Z</time></trkpt><trkpt lat="45.85698231478577" lon="12.201903998633435"><ele>188.0</ele><time>2026-04-25T04:48:32Z</time></trkpt><trkpt lat="45.8569204410104" lon="12.20193130415549"><ele>188.0</ele><time>2026-04-25T04:48:33Z</time></trkpt><trkpt lat="45.856843644401714" lon="12.201992726821159"><ele>188.0</ele><time>2026-04-25T04:48:34.999Z</time></trkpt><trkpt lat="45.856828715706726" lon="12.20188560174585"><ele>188.0</ele><time>2026-04-25T04:49:07.999Z</time></trkpt><trkpt lat="45.85692729911735" lon="12.201812527381016"><ele>188.0</ele><time>2026-04-25T04:49:09.999Z</time></trkpt><trkpt lat="45.856987067814764" lon="12.201771347581701"><ele>188.0</ele><time>2026-04-25T04:49:10.999Z</time></trkpt><trkpt lat="45.85709476454338" lon="12.201858084182172"><ele>188.0</ele><time>2026-04-25T04:49:11.999Z</time></trkpt><trkpt lat="45.85718665496263" lon="12.201804113556774"><ele>188.0</ele><time>2026-04-25T04:49:14Z</time></trkpt><trkpt lat="45.857282405526675" lon="12.201166043643942"><ele>186.0</ele><time>2026-04-25T04:49:34Z</time></trkpt><trkpt lat="45.85721366420988" lon="12.201094123863856"><ele>184.0</ele><time>2026-04-25T04:49:36Z</time></trkpt><trkpt lat="45.85711321152127" lon="12.20110248795356"><ele>182.0</ele><time>2026-04-25T04:49:38Z</time></trkpt><trkpt lat="45.8570170009819" lon="12.20118614881064"><ele>180.0</ele><time>2026-04-25T04:49:40Z</time></trkpt><trkpt lat="45.856908228019435" lon="12.20127490432718"><ele>178.0</ele><time>2026-04-25T04:49:42Z</time></trkpt><trkpt lat="45.856846618092376" lon="12.20130250413421"><ele>177.99999999999997</ele><time>2026-04-25T04:49:43Z</time></trkpt><trkpt lat="45.8567875157464" lon="12.201336314000038"><ele>178.0</ele><time>2026-04-25T04:49:44Z</time></trkpt><trkpt lat="45.85672519627845" lon="12.201361191458979"><ele>178.0</ele><time>2026-04-25T04:49:45Z</time></trkpt><trkpt lat="45.85666650508162" lon="12.201395935571204"><ele>178.0</ele><time>2026-04-25T04:49:46Z</time></trkpt><trkpt lat="45.85659726956878" lon="12.201455197995024"><ele>178.0</ele><time>2026-04-25T04:49:48Z</time></trkpt><trkpt lat="45.856524804640806" lon="12.201459615603646"><ele>177.99999999999997</ele><time>2026-04-25T04:49:52Z</time></trkpt><trkpt lat="45.85645978271263" lon="12.20145127834275"><ele>178.0</ele><time>2026-04-25T04:49:54Z</time></trkpt><trkpt lat="45.856376334331934" lon="12.201457256915695"><ele>178.2</ele><time>2026-04-25T04:49:56Z</time></trkpt><trkpt lat="45.85627145191362" lon="12.201462123170032"><ele>178.4</ele><time>2026-04-25T04:49:58Z</time></trkpt><trkpt lat="45.856158257242676" lon="12.201478092962892"><ele>178.6</ele><time>2026-04-25T04:50:00Z</time></trkpt><trkpt lat="45.85606194299072" lon="12.201504034743468"><ele>178.79999999999998</ele><time>2026-04-25T04:50:02Z</time></trkpt><trkpt lat="45.85598756712356" lon="12.201497306122358"><ele>179.0</ele><time>2026-04-25T04:50:04Z</time></trkpt><trkpt lat="45.855892680629125" lon="12.201488572387849"><ele>176.0</ele><time>2026-04-25T04:50:06Z</time></trkpt><trkpt lat="45.85583428770393" lon="12.20144921037926"><ele>173.0</ele><time>2026-04-25T04:50:07Z</time></trkpt><trkpt lat="45.85578205614228" lon="12.201392298764782"><ele>170.0</ele><time>2026-04-25T04:50:08Z</time></trkpt><trkpt lat="45.85570535934186" lon="12.201295321073676"><ele>167.0</ele><time>2026-04-25T04:50:09Z</time></trkpt><trkpt lat="45.855706295593336" lon="12.201147171329414"><ele>164.0</ele><time>2026-04-25T04:50:10Z</time></trkpt><trkpt lat="45.85564989014575" lon="12.201083878023145"><ele>161.0</ele><time>2026-04-25T04:50:11Z</time></trkpt><trkpt lat="45.85556703528388" lon="12.200923481379231"><ele>161.0</ele><time>2026-04-25T04:50:13Z</time></trkpt><trkpt lat="45.85546379708269" lon="12.200811849743182"><ele>161.0</ele><time>2026-04-25T04:50:15Z</time></trkpt><trkpt lat="45.85534682158636" lon="12.200740514065062"><ele>161.0</ele><time>2026-04-25T04:50:17Z</time></trkpt><trkpt lat="45.855231250468414" lon="12.200669655575476"><ele>161.0</ele><time>2026-04-25T04:50:19Z</time></trkpt><trkpt lat="45.8551603938897" lon="12.200632491604932"><ele>160.20000000000002</ele><time>2026-04-25T04:50:20Z</time></trkpt><trkpt lat="45.85509099081466" lon="12.200609442084142"><ele>159.4</ele><time>2026-04-25T04:50:21Z</time></trkpt><trkpt lat="45.854980273125456" lon="12.200578570407872"><ele>158.6</ele><time>2026-04-25T04:50:23Z</time></trkpt><trkpt lat="45.85485495312068" lon="12.200572683156631"><ele>157.8</ele><time>2026-04-25T04:50:25Z</time></trkpt><trkpt lat="45.854775974725676" lon="12.20055783797163"><ele>157.0</ele><time>2026-04-25T04:50:26Z</time></trkpt><trkpt lat="45.854691578945975" lon="12.200544221886151"><ele>157.0</ele><time>2026-04-25T04:50:27Z</time></trkpt><trkpt lat="45.85462145992643" lon="12.20052790982651"><ele>157.0</ele><time>2026-04-25T04:50:28Z</time></trkpt><trkpt lat="45.85455769974181" lon="12.20051203243367"><ele>157.0</ele><time>2026-04-25T04:50:29Z</time></trkpt><trkpt lat="45.85446663616389" lon="12.200440223257868"><ele>157.0</ele><time>2026-04-25T04:50:31Z</time></trkpt><trkpt lat="45.85440045545506" lon="12.200309294907035"><ele>157.0</ele><time>2026-04-25T04:50:33Z</time></trkpt><trkpt lat="45.85437075700103" lon="12.200225508382898"><ele>157.0</ele><time>2026-04-25T04:50:34Z</time></trkpt><trkpt lat="45.854300019131244" lon="12.200118017772596"><ele>158.39999999999998</ele><time>2026-04-25T04:50:36Z</time></trkpt><trkpt lat="45.854241674558004" lon="12.199997203304795"><ele>159.79999999999998</ele><time>2026-04-25T04:50:37.999Z</time></trkpt><trkpt lat="45.85418494704385" lon="12.199875986166395"><ele>161.2</ele><time>2026-04-25T04:50:39.999Z</time></trkpt><trkpt lat="45.85416176825001" lon="12.199750817450363"><ele>162.6</ele><time>2026-04-25T04:50:41.999Z</time></trkpt><trkpt lat="45.854090749684616" lon="12.199622582981704"><ele>164.0</ele><time>2026-04-25T04:50:43.999Z</time></trkpt><trkpt lat="45.85412408190294" lon="12.199510774121386"><ele>164.0</ele><time>2026-04-25T04:50:45.999Z</time></trkpt><trkpt lat="45.85409745905457" lon="12.19940491101727"><ele>164.0</ele><time>2026-04-25T04:50:46.999Z</time></trkpt><trkpt lat="45.85406035026921" lon="12.199317924055459"><ele>164.0</ele><time>2026-04-25T04:50:47.999Z</time></trkpt><trkpt lat="45.854025748945325" lon="12.199192197422947"><ele>164.0</ele><time>2026-04-25T04:50:49.999Z</time></trkpt><trkpt lat="45.85402188463044" lon="12.199085563856682"><ele>164.0</ele><time>2026-04-25T04:50:50.999Z</time></trkpt><trkpt lat="45.85395076549061" lon="12.198975963441065"><ele>164.0</ele><time>2026-04-25T04:50:52.999Z</time></trkpt><trkpt lat="45.85389384328516" lon="12.198818798038"><ele>162.5</ele><time>2026-04-25T04:50:54.999Z</time></trkpt><trkpt lat="45.853841094980815" lon="12.19867186706756"><ele>161.0</ele><time>2026-04-25T04:50:56.999Z</time></trkpt><trkpt lat="45.85378814149254" lon="12.198583185713865"><ele>159.5</ele><time>2026-04-25T04:50:57.999Z</time></trkpt><trkpt lat="45.85374957092373" lon="12.198493879546474"><ele>158.0</ele><time>2026-04-25T04:50:58.999Z</time></trkpt><trkpt lat="45.853713902386886" lon="12.198398106329755"><ele>156.5</ele><time>2026-04-25T04:50:59.999Z</time></trkpt><trkpt lat="45.85366169342068" lon="12.198324383811956"><ele>155.0</ele><time>2026-04-25T04:51:00.999Z</time></trkpt><trkpt lat="45.853634988811905" lon="12.198241019830784"><ele>154.66666666666666</ele><time>2026-04-25T04:51:01.999Z</time></trkpt><trkpt lat="45.85358284453417" lon="12.198158132660282"><ele>154.33333333333331</ele><time>2026-04-25T04:51:02.999Z</time></trkpt><trkpt lat="45.85354379972438" lon="12.198067532324002"><ele>154.0</ele><time>2026-04-25T04:51:03.999Z</time></trkpt><trkpt lat="45.85351082676421" lon="12.197967726209892"><ele>153.66666666666666</ele><time>2026-04-25T04:51:04.999Z</time></trkpt><trkpt lat="45.853470131569935" lon="12.19787088664354"><ele>153.33333333333334</ele><time>2026-04-25T04:51:05.999Z</time></trkpt><trkpt lat="45.853403045064674" lon="12.197799149252253"><ele>153.0</ele><time>2026-04-25T04:51:06.999Z</time></trkpt><trkpt lat="45.85337164950123" lon="12.197682840250469"><ele>153.0</ele><time>2026-04-25T04:51:07.999Z</time></trkpt><trkpt lat="45.85329173000601" lon="12.19753982363412"><ele>153.0</ele><time>2026-04-25T04:51:09.999Z</time></trkpt><trkpt lat="45.85322957411186" lon="12.197477174419456"><ele>153.0</ele><time>2026-04-25T04:51:10.999Z</time></trkpt><trkpt lat="45.85315804173474" lon="12.197422531043829"><ele>153.0</ele><time>2026-04-25T04:51:11.999Z</time></trkpt><trkpt lat="45.853034115036074" lon="12.197296406567004"><ele>153.0</ele><time>2026-04-25T04:51:13.999Z</time></trkpt><trkpt lat="45.852978092069904" lon="12.197224601156135"><ele>150.20000000000002</ele><time>2026-04-25T04:51:14.999Z</time></trkpt><trkpt lat="45.852847617297506" lon="12.197200931471958"><ele>147.4</ele><time>2026-04-25T04:51:16.999Z</time></trkpt><trkpt lat="45.85277420882474" lon="12.197173375149871"><ele>144.60000000000002</ele><time>2026-04-25T04:51:17.999Z</time></trkpt><trkpt lat="45.85270190516734" lon="12.19720480954735"><ele>141.8</ele><time>2026-04-25T04:51:19Z</time></trkpt><trkpt lat="45.852634743915026" lon="12.197224184928869"><ele>139.0</ele><time>2026-04-25T04:51:20Z</time></trkpt><trkpt lat="45.85249958146844" lon="12.197243240769303"><ele>139.0</ele><time>2026-04-25T04:51:22Z</time></trkpt><trkpt lat="45.85243089049559" lon="12.197233644886278"><ele>139.0</ele><time>2026-04-25T04:51:23Z</time></trkpt><trkpt lat="45.85236072605844" lon="12.197191800315359"><ele>139.0</ele><time>2026-04-25T04:51:24Z</time></trkpt><trkpt lat="45.85226764358802" lon="12.197109854578231"><ele>139.0</ele><time>2026-04-25T04:51:25Z</time></trkpt><trkpt lat="45.8521959962191" lon="12.19708217657518"><ele>139.0</ele><time>2026-04-25T04:51:26Z</time></trkpt><trkpt lat="45.85213213662965" lon="12.197054725924659"><ele>139.0</ele><time>2026-04-25T04:51:27Z</time></trkpt><trkpt lat="45.85206922306629" lon="12.197021249127737"><ele>139.0</ele><time>2026-04-25T04:51:28Z</time></trkpt><trkpt lat="45.85196949413452" lon="12.196925245795095"><ele>139.0</ele><time>2026-04-25T04:51:30Z</time></trkpt><trkpt lat="45.851928224981776" lon="12.196802656561344"><ele>139.0</ele><time>2026-04-25T04:51:32Z</time></trkpt><trkpt lat="45.851905938881195" lon="12.196627924928483"><ele>139.0</ele><time>2026-04-25T04:51:34Z</time></trkpt><trkpt lat="45.85185431662478" lon="12.196454399078126"><ele>138.5</ele><time>2026-04-25T04:51:36Z</time></trkpt><trkpt lat="45.85181438369621" lon="12.196319878830995"><ele>138.0</ele><time>2026-04-25T04:51:38Z</time></trkpt><trkpt lat="45.85173531712169" lon="12.196302659468067"><ele>137.5</ele><time>2026-04-25T04:51:41Z</time></trkpt><trkpt lat="45.85169827656255" lon="12.196214759812408"><ele>137.0</ele><time>2026-04-25T04:51:44Z</time></trkpt><trkpt lat="45.85164828455426" lon="12.19609529207622"><ele>136.5</ele><time>2026-04-25T04:51:46Z</time></trkpt><trkpt lat="45.851612211211986" lon="12.19601224228511"><ele>136.0</ele><time>2026-04-25T04:51:49Z</time></trkpt><trkpt lat="45.85155812445386" lon="12.19592495596659"><ele>136.0</ele><time>2026-04-25T04:52:00Z</time></trkpt><trkpt lat="45.8515101694655" lon="12.195826017958822"><ele>136.0</ele><time>2026-04-25T04:52:04Z</time></trkpt><trkpt lat="45.85143127918271" lon="12.19572879123801"><ele>136.0</ele><time>2026-04-25T04:52:06Z</time></trkpt><trkpt lat="45.85134997453296" lon="12.195626112912205"><ele>136.0</ele><time>2026-04-25T04:52:08Z</time></trkpt><trkpt lat="45.85128771140213" lon="12.195582508413487"><ele>136.0</ele><time>2026-04-25T04:52:09Z</time></trkpt><trkpt lat="45.85122292264176" lon="12.195556112588939"><ele>136.0</ele><time>2026-04-25T04:52:10Z</time></trkpt><trkpt lat="45.85115567911576" lon="12.195529537140489"><ele>133.0</ele><time>2026-04-25T04:52:11Z</time></trkpt><trkpt lat="45.85109043129159" lon="12.195502220793559"><ele>130.0</ele><time>2026-04-25T04:52:12Z</time></trkpt><trkpt lat="45.85102517860267" lon="12.195517324767003"><ele>127.0</ele><time>2026-04-25T04:52:13Z</time></trkpt><trkpt lat="45.850955562858715" lon="12.195545360449897"><ele>124.0</ele><time>2026-04-25T04:52:14Z</time></trkpt><trkpt lat="45.85085157147289" lon="12.195565175917695"><ele>121.00000000000001</ele><time>2026-04-25T04:52:16Z</time></trkpt><trkpt lat="45.85078481134302" lon="12.195596554310201"><ele>118.0</ele><time>2026-04-25T04:52:20Z</time></trkpt><trkpt lat="45.8507069689735" lon="12.195638184020877"><ele>117.85714285714286</ele><time>2026-04-25T04:52:48Z</time></trkpt><trkpt lat="45.850651839843245" lon="12.195688325416324"><ele>117.71428571428572</ele><time>2026-04-25T04:52:51Z</time></trkpt><trkpt lat="45.85059443600654" lon="12.195740064006788"><ele>117.57142857142858</ele><time>2026-04-25T04:52:53.999Z</time></trkpt><trkpt lat="45.8505346574673" lon="12.195781905766756"><ele>117.42857142857143</ele><time>2026-04-25T04:53:13.999Z</time></trkpt><trkpt lat="45.85046839976404" lon="12.19580183277117"><ele>117.2857142857143</ele><time>2026-04-25T04:53:28Z</time></trkpt><trkpt lat="45.85047686201967" lon="12.195701560009912"><ele>117.14285714285715</ele><time>2026-04-25T04:53:49Z</time></trkpt><trkpt lat="45.85044583949205" lon="12.19560431179936"><ele>117.0</ele><time>2026-04-25T04:53:57Z</time></trkpt><trkpt lat="45.850431917679316" lon="12.195504839088715"><ele>117.0</ele><time>2026-04-25T04:54:05Z</time></trkpt><trkpt lat="45.85037748581385" lon="12.195442814271242"><ele>117.0</ele><time>2026-04-25T04:54:11Z</time></trkpt><trkpt lat="45.85035661282532" lon="12.195354070391097"><ele>117.0</ele><time>2026-04-25T04:54:18Z</time></trkpt><trkpt lat="45.850481903283665" lon="12.19535209914879"><ele>117.0</ele><time>2026-04-25T04:55:41Z</time></trkpt><trkpt lat="45.85056058201013" lon="12.19534494397019"><ele>117.0</ele><time>2026-04-25T04:55:45Z</time></trkpt><trkpt lat="45.85063283291754" lon="12.19530582647416"><ele>117.0</ele><time>2026-04-25T04:55:47Z</time></trkpt><trkpt lat="45.850707638233864" lon="12.195254408752122"><ele>117.0</ele><time>2026-04-25T04:55:49Z</time></trkpt><trkpt lat="45.85077363143783" lon="12.195212470453468"><ele>117.00000000000001</ele><time>2026-04-25T04:55:52Z</time></trkpt><trkpt lat="45.85081916893986" lon="12.195147941423436"><ele>117.0</ele><time>2026-04-25T04:55:54Z</time></trkpt><trkpt lat="45.85085755410954" lon="12.195050068668648"><ele>117.0</ele><time>2026-04-25T04:55:57Z</time></trkpt><trkpt lat="45.85091763230791" lon="12.194993320374364"><ele>117.00000000000001</ele><time>2026-04-25T04:56:00Z</time></trkpt><trkpt lat="45.8509690947953" lon="12.194935013616309"><ele>117.0</ele><time>2026-04-25T04:56:02Z</time></trkpt><trkpt lat="45.8510204357896" lon="12.194863615940145"><ele>117.0</ele><time>2026-04-25T04:56:05Z</time></trkpt><trkpt lat="45.85107142423184" lon="12.194777330199988"><ele>117.16666666666667</ele><time>2026-04-25T04:56:10Z</time></trkpt><trkpt lat="45.8510894438378" lon="12.194680305221347"><ele>117.33333333333334</ele><time>2026-04-25T04:56:15Z</time></trkpt><trkpt lat="45.85107227674531" lon="12.1945711597948"><ele>117.5</ele><time>2026-04-25T04:56:18Z</time></trkpt><trkpt lat="45.85102759392709" lon="12.19446322326127"><ele>117.66666666666667</ele><time>2026-04-25T04:56:21Z</time></trkpt><trkpt lat="45.8509474505022" lon="12.194416895143027"><ele>117.83333333333334</ele><time>2026-04-25T04:56:24Z</time></trkpt><trkpt lat="45.850858650156695" lon="12.19442615948321"><ele>118.0</ele><time>2026-04-25T04:56:27Z</time></trkpt><trkpt lat="45.85079713289433" lon="12.194456748690936"><ele>116.71428571428571</ele><time>2026-04-25T04:56:30Z</time></trkpt><trkpt lat="45.85071764358499" lon="12.19446816653323"><ele>115.42857142857143</ele><time>2026-04-25T04:56:33Z</time></trkpt><trkpt lat="45.85065332987993" lon="12.194471022113664"><ele>114.14285714285714</ele><time>2026-04-25T04:56:36Z</time></trkpt><trkpt lat="45.85058535567217" lon="12.19447611658218"><ele>112.85714285714286</ele><time>2026-04-25T04:56:39Z</time></trkpt><trkpt lat="45.85052405803244" lon="12.19449757262562"><ele>111.57142857142858</ele><time>2026-04-25T04:56:43Z</time></trkpt><trkpt lat="45.8504743269576" lon="12.194431397936015"><ele>110.28571428571429</ele><time>2026-04-25T05:00:42Z</time></trkpt><trkpt lat="45.850405307372824" lon="12.194404826883385"><ele>109.0</ele><time>2026-04-25T05:00:51Z</time></trkpt><trkpt lat="45.850468399572925" lon="12.19450718820523"><ele>109.00000000000001</ele><time>2026-04-25T05:05:09.999Z</time></trkpt><trkpt lat="45.85040527356053" lon="12.194565873750632"><ele>109.0</ele><time>2026-04-25T05:06:58Z</time></trkpt><trkpt lat="45.85034330760978" lon="12.194589309022035"><ele>109.0</ele><time>2026-04-25T05:07:00Z</time></trkpt><trkpt lat="45.85026843146073" lon="12.194633860582098"><ele>109.0</ele><time>2026-04-25T05:07:02Z</time></trkpt><trkpt lat="45.850177470968234" lon="12.194658636769365"><ele>109.00000000000001</ele><time>2026-04-25T05:07:04Z</time></trkpt><trkpt lat="45.850095121503934" lon="12.194681206573753"><ele>109.0</ele><time>2026-04-25T05:07:06Z</time></trkpt><trkpt lat="45.85003081043214" lon="12.194728802934163"><ele>108.85714285714286</ele><time>2026-04-25T05:07:08Z</time></trkpt><trkpt lat="45.84999480705597" lon="12.194828311939366"><ele>108.71428571428572</ele><time>2026-04-25T05:07:12Z</time></trkpt><trkpt lat="45.84996718857367" lon="12.194913230984087"><ele>108.57142857142857</ele><time>2026-04-25T05:07:17Z</time></trkpt><trkpt lat="45.849905752216145" lon="12.194958740330899"><ele>108.42857142857143</ele><time>2026-04-25T05:07:23Z</time></trkpt><trkpt lat="45.84984605933506" lon="12.195001543405649"><ele>108.28571428571428</ele><time>2026-04-25T05:07:27Z</time></trkpt><trkpt lat="45.84976763612734" lon="12.194996952877627"><ele>108.14285714285714</ele><time>2026-04-25T05:07:32Z</time></trkpt><trkpt lat="45.84969844528264" lon="12.194968471216441"><ele>108.0</ele><time>2026-04-25T05:07:37Z</time></trkpt><trkpt lat="45.849639687894864" lon="12.19492744645936"><ele>105.75</ele><time>2026-04-25T05:07:42Z</time></trkpt><trkpt lat="45.849630704835654" lon="12.19482633457125"><ele>103.5</ele><time>2026-04-25T05:08:05Z</time></trkpt><trkpt lat="45.84956952634235" lon="12.194799399045522"><ele>101.25</ele><time>2026-04-25T05:08:10.001Z</time></trkpt><trkpt lat="45.849646199537574" lon="12.194702848803434"><ele>99.0</ele><time>2026-04-25T05:08:17Z</time></trkpt><trkpt lat="45.84933517871524" lon="12.194350925085422"><ele>98.57142857142857</ele><time>2026-04-25T05:08:38.018Z</time></trkpt><trkpt lat="45.84927385227759" lon="12.194320431275562"><ele>98.14285714285714</ele><time>2026-04-25T05:08:42Z</time></trkpt><trkpt lat="45.84923440293642" lon="12.194223543764984"><ele>97.71428571428571</ele><time>2026-04-25T05:08:46Z</time></trkpt><trkpt lat="45.84922811203568" lon="12.194115783984504"><ele>97.28571428571428</ele><time>2026-04-25T05:08:54Z</time></trkpt><trkpt lat="45.849183453760915" lon="12.194040717024645"><ele>96.85714285714286</ele><time>2026-04-25T05:09:05Z</time></trkpt><trkpt lat="45.84913061139078" lon="12.193967736981339"><ele>96.42857142857142</ele><time>2026-04-25T05:09:16Z</time></trkpt><trkpt lat="45.84906037965693" lon="12.193921110631043"><ele>96.0</ele><time>2026-04-25T05:09:21Z</time></trkpt><trkpt lat="45.8490041800747" lon="12.193866624348757"><ele>95.57142857142857</ele><time>2026-04-25T05:09:25Z</time></trkpt><trkpt lat="45.84897222914425" lon="12.193779954555424"><ele>95.14285714285714</ele><time>2026-04-25T05:09:31Z</time></trkpt><trkpt lat="45.848971604677864" lon="12.193685400699021"><ele>94.71428571428572</ele><time>2026-04-25T05:09:36Z</time></trkpt><trkpt lat="45.84899331857307" lon="12.193592390515988"><ele>94.28571428571428</ele><time>2026-04-25T05:09:40Z</time></trkpt><trkpt lat="45.84904680010525" lon="12.193540183881352"><ele>93.85714285714286</ele><time>2026-04-25T05:09:43Z</time></trkpt><trkpt lat="45.849091950445064" lon="12.193452324208366"><ele>93.42857142857143</ele><time>2026-04-25T05:09:47Z</time></trkpt><trkpt lat="45.849164598940256" lon="12.19342617250413"><ele>93.0</ele><time>2026-04-25T05:09:49Z</time></trkpt><trkpt lat="45.849219122565614" lon="12.193372943360625"><ele>93.00000000000001</ele><time>2026-04-25T05:09:51Z</time></trkpt><trkpt lat="45.84927526075389" lon="12.193313906061302"><ele>93.0</ele><time>2026-04-25T05:09:53Z</time></trkpt><trkpt lat="45.849330139663245" lon="12.193234360789475"><ele>93.0</ele><time>2026-04-25T05:09:55Z</time></trkpt><trkpt lat="45.849376563419895" lon="12.193151336067343"><ele>93.0</ele><time>2026-04-25T05:09:57Z</time></trkpt><trkpt lat="45.84942539010227" lon="12.193068593130675"><ele>93.0</ele><time>2026-04-25T05:09:59Z</time></trkpt><trkpt lat="45.84945552869414" lon="12.19297664422967"><ele>93.00000000000001</ele><time>2026-04-25T05:10:01Z</time></trkpt><trkpt lat="45.849481019497" lon="12.192867457580197"><ele>93.0</ele><time>2026-04-25T05:10:03Z</time></trkpt><trkpt lat="45.849524512885196" lon="12.192734796802782"><ele>92.66666666666667</ele><time>2026-04-25T05:10:06Z</time></trkpt><trkpt lat="45.849579928869595" lon="12.192660286232627"><ele>92.33333333333333</ele><time>2026-04-25T05:10:08Z</time></trkpt><trkpt lat="45.84962130654437" lon="12.192557911400316"><ele>92.0</ele><time>2026-04-25T05:10:10Z</time></trkpt><trkpt lat="45.84962310207638" lon="12.192461433045024"><ele>91.66666666666666</ele><time>2026-04-25T05:10:12Z</time></trkpt><trkpt lat="45.84964426193513" lon="12.19236556181413"><ele>91.33333333333333</ele><time>2026-04-25T05:10:14.001Z</time></trkpt><trkpt lat="45.849696745328885" lon="12.192274043972038"><ele>91.0</ele><time>2026-04-25T05:10:16.001Z</time></trkpt><trkpt lat="45.849743262065175" lon="12.192187794928232"><ele>90.66666666666666</ele><time>2026-04-25T05:10:18.001Z</time></trkpt><trkpt lat="45.84977637675358" lon="12.192066001656144"><ele>90.33333333333333</ele><time>2026-04-25T05:10:20.001Z</time></trkpt><trkpt lat="45.849814801208964" lon="12.19199089180163"><ele>90.0</ele><time>2026-04-25T05:10:23.001Z</time></trkpt><trkpt lat="45.84989581035732" lon="12.191941958484556"><ele>89.66666666666667</ele><time>2026-04-25T05:10:25.001Z</time></trkpt><trkpt lat="45.849968402263244" lon="12.19194781315528"><ele>89.33333333333334</ele><time>2026-04-25T05:10:27.001Z</time></trkpt><trkpt lat="45.85003928841751" lon="12.191960850486963"><ele>89.0</ele><time>2026-04-25T05:10:30.001Z</time></trkpt><trkpt lat="45.85009445880446" lon="12.191839416005761"><ele>88.99999999999999</ele><time>2026-04-25T05:10:34.001Z</time></trkpt><trkpt lat="45.850122509807406" lon="12.191743047591608"><ele>89.0</ele><time>2026-04-25T05:10:36.001Z</time></trkpt><trkpt lat="45.8501523560798" lon="12.1916557000302"><ele>89.0</ele><time>2026-04-25T05:10:38.001Z</time></trkpt><trkpt lat="45.85019512405892" lon="12.191537197213663"><ele>89.0</ele><time>2026-04-25T05:10:41.001Z</time></trkpt><trkpt lat="45.8502183286072" lon="12.191440331662463"><ele>89.0</ele><time>2026-04-25T05:10:43Z</time></trkpt><trkpt lat="45.85026227972398" lon="12.191357349402882"><ele>88.99999999999999</ele><time>2026-04-25T05:10:46Z</time></trkpt><trkpt lat="45.850291990693485" lon="12.191273037211225"><ele>89.0</ele><time>2026-04-25T05:10:49Z</time></trkpt><trkpt lat="45.85031464238914" lon="12.191182079759562"><ele>90.5</ele><time>2026-04-25T05:10:53Z</time></trkpt><trkpt lat="45.85036765346043" lon="12.191121375224014"><ele>92.0</ele><time>2026-04-25T05:10:58Z</time></trkpt><trkpt lat="45.850355438146174" lon="12.191018366644572"><ele>93.5</ele><time>2026-04-25T05:11:10Z</time></trkpt><trkpt lat="45.85037112872972" lon="12.190912252642494"><ele>95.0</ele><time>2026-04-25T05:11:12Z</time></trkpt><trkpt lat="45.85040236309208" lon="12.190810892906157"><ele>96.49999999999999</ele><time>2026-04-25T05:11:14Z</time></trkpt><trkpt lat="45.850451994303825" lon="12.190680787508148"><ele>98.0</ele><time>2026-04-25T05:11:16Z</time></trkpt><trkpt lat="45.85049920002625" lon="12.190535090392466"><ele>98.0</ele><time>2026-04-25T05:11:18Z</time></trkpt><trkpt lat="45.85055751447246" lon="12.190408017618264"><ele>98.0</ele><time>2026-04-25T05:11:20Z</time></trkpt><trkpt lat="45.85059383931308" lon="12.190280939400855"><ele>98.0</ele><time>2026-04-25T05:11:22Z</time></trkpt><trkpt lat="45.85062296595656" lon="12.190187895671901"><ele>98.0</ele><time>2026-04-25T05:11:24Z</time></trkpt><trkpt lat="45.85064419671029" lon="12.190052569409492"><ele>98.0</ele><time>2026-04-25T05:11:26Z</time></trkpt><trkpt lat="45.85069295387964" lon="12.189928167606599"><ele>99.2</ele><time>2026-04-25T05:11:28Z</time></trkpt><trkpt lat="45.85072938779889" lon="12.189804049198129"><ele>100.4</ele><time>2026-04-25T05:11:30Z</time></trkpt><trkpt lat="45.85078912740444" lon="12.189705267456874"><ele>101.60000000000001</ele><time>2026-04-25T05:11:32Z</time></trkpt><trkpt lat="45.85084279290667" lon="12.1896116882499"><ele>102.80000000000001</ele><time>2026-04-25T05:11:34Z</time></trkpt><trkpt lat="45.850897855337784" lon="12.189495391309435"><ele>104.0</ele><time>2026-04-25T05:11:36Z</time></trkpt><trkpt lat="45.850970252480906" lon="12.189422808582426"><ele>103.99999999999999</ele><time>2026-04-25T05:11:38Z</time></trkpt><trkpt lat="45.85104920023371" lon="12.189353215903328"><ele>104.0</ele><time>2026-04-25T05:11:40Z</time></trkpt><trkpt lat="45.85110649044365" lon="12.1892645451423"><ele>104.0</ele><time>2026-04-25T05:11:42Z</time></trkpt><trkpt lat="45.851167161825046" lon="12.189183656446687"><ele>104.0</ele><time>2026-04-25T05:11:44Z</time></trkpt><trkpt lat="45.851227920787" lon="12.189071249591432"><ele>103.99999999999999</ele><time>2026-04-25T05:11:46Z</time></trkpt><trkpt lat="45.85129608427404" lon="12.18900705605738"><ele>104.0</ele><time>2026-04-25T05:11:48Z</time></trkpt><trkpt lat="45.851361573838446" lon="12.188902205593882"><ele>102.49999999999999</ele><time>2026-04-25T05:11:50Z</time></trkpt><trkpt lat="45.85143606365808" lon="12.188784886162084"><ele>101.0</ele><time>2026-04-25T05:11:52Z</time></trkpt><trkpt lat="45.851477630642115" lon="12.188704574827591"><ele>99.5</ele><time>2026-04-25T05:11:53Z</time></trkpt><trkpt lat="45.85154766763445" lon="12.18859120064338"><ele>98.0</ele><time>2026-04-25T05:11:55Z</time></trkpt><trkpt lat="45.85159144617217" lon="12.188523632752313"><ele>96.5</ele><time>2026-04-25T05:11:56Z</time></trkpt><trkpt lat="45.85162146631458" lon="12.188438433273754"><ele>95.0</ele><time>2026-04-25T05:11:57Z</time></trkpt><trkpt lat="45.8516995594876" lon="12.188319478777858"><ele>95.0</ele><time>2026-04-25T05:11:59Z</time></trkpt><trkpt lat="45.85176863602742" lon="12.188211162977423"><ele>95.0</ele><time>2026-04-25T05:12:01Z</time></trkpt><trkpt lat="45.85183750844138" lon="12.188077646868043"><ele>95.0</ele><time>2026-04-25T05:12:03Z</time></trkpt><trkpt lat="45.85190542709061" lon="12.18792018868395"><ele>95.0</ele><time>2026-04-25T05:12:05Z</time></trkpt><trkpt lat="45.851945528252955" lon="12.187764129871034"><ele>96.4</ele><time>2026-04-25T05:12:07Z</time></trkpt><trkpt lat="45.8520300342108" lon="12.187668446512735"><ele>97.8</ele><time>2026-04-25T05:12:09Z</time></trkpt><trkpt lat="45.852089046614275" lon="12.187596183735806"><ele>99.19999999999999</ele><time>2026-04-25T05:12:11Z</time></trkpt><trkpt lat="45.852150988033614" lon="12.187526076095786"><ele>100.6</ele><time>2026-04-25T05:12:13Z</time></trkpt><trkpt lat="45.852214471026286" lon="12.187454687819892"><ele>102.0</ele><time>2026-04-25T05:12:15Z</time></trkpt><trkpt lat="45.852294041477265" lon="12.187352547276083"><ele>102.0</ele><time>2026-04-25T05:12:18Z</time></trkpt><trkpt lat="45.852382226818065" lon="12.187249815788658"><ele>102.0</ele><time>2026-04-25T05:12:21.001Z</time></trkpt><trkpt lat="45.85244739091148" lon="12.187202423474819"><ele>102.0</ele><time>2026-04-25T05:12:22.001Z</time></trkpt><trkpt lat="45.852532113709245" lon="12.187165429605079"><ele>102.0</ele><time>2026-04-25T05:12:24.001Z</time></trkpt><trkpt lat="45.852604877342635" lon="12.187107895105617"><ele>102.0</ele><time>2026-04-25T05:12:28.001Z</time></trkpt><trkpt lat="45.85263364120292" lon="12.187015593924757"><ele>102.0</ele><time>2026-04-25T05:12:29.001Z</time></trkpt><trkpt lat="45.852697975500604" lon="12.186946626652663"><ele>102.0</ele><time>2026-04-25T05:12:33.001Z</time></trkpt><trkpt lat="45.852780312676636" lon="12.186833418322099"><ele>102.0</ele><time>2026-04-25T05:12:34.001Z</time></trkpt><trkpt lat="45.8528421714458" lon="12.18674955656418"><ele>102.0</ele><time>2026-04-25T05:12:36.001Z</time></trkpt><trkpt lat="45.85289809928658" lon="12.186619983968365"><ele>102.0</ele><time>2026-04-25T05:12:38.001Z</time></trkpt><trkpt lat="45.85297730425487" lon="12.186491171341608"><ele>102.0</ele><time>2026-04-25T05:12:40.001Z</time></trkpt><trkpt lat="45.85304940973125" lon="12.186363100176356"><ele>102.5</ele><time>2026-04-25T05:12:42.001Z</time></trkpt><trkpt lat="45.853114955875945" lon="12.186269232191252"><ele>103.0</ele><time>2026-04-25T05:12:44Z</time></trkpt><trkpt lat="45.85316415817581" lon="12.18620477183121"><ele>103.5</ele><time>2026-04-25T05:12:46Z</time></trkpt><trkpt lat="45.853234662839405" lon="12.186138018811517"><ele>104.0</ele><time>2026-04-25T05:12:49Z</time></trkpt><trkpt lat="45.853300241165826" lon="12.186075132044252"><ele>104.5</ele><time>2026-04-25T05:12:52Z</time></trkpt><trkpt lat="45.85336593075125" lon="12.18597295222024"><ele>105.0</ele><time>2026-04-25T05:12:54Z</time></trkpt><trkpt lat="45.85345616928726" lon="12.18586056376317"><ele>105.0</ele><time>2026-04-25T05:12:56Z</time></trkpt><trkpt lat="45.85355977962813" lon="12.185791421231768"><ele>105.0</ele><time>2026-04-25T05:12:58Z</time></trkpt><trkpt lat="45.853726919324465" lon="12.185581656737922"><ele>105.0</ele><time>2026-04-25T05:13:04Z</time></trkpt><trkpt lat="45.853761158688094" lon="12.185486071374"><ele>105.0</ele><time>2026-04-25T05:13:05Z</time></trkpt><trkpt lat="45.85381573423041" lon="12.185345086899913"><ele>103.25</ele><time>2026-04-25T05:13:07Z</time></trkpt><trkpt lat="45.853888726339015" lon="12.185207660082563"><ele>101.5</ele><time>2026-04-25T05:13:09Z</time></trkpt><trkpt lat="45.85396805497144" lon="12.185097011428132"><ele>99.75</ele><time>2026-04-25T05:13:11Z</time></trkpt><trkpt lat="45.85406006726168" lon="12.185029108184596"><ele>98.0</ele><time>2026-04-25T05:13:13Z</time></trkpt><trkpt lat="45.854163175297145" lon="12.18493747069083"><ele>97.4</ele><time>2026-04-25T05:13:15Z</time></trkpt><trkpt lat="45.854250238049836" lon="12.18482718522957"><ele>96.80000000000001</ele><time>2026-04-25T05:13:17Z</time></trkpt><trkpt lat="45.854330283493745" lon="12.184726132054363"><ele>96.2</ele><time>2026-04-25T05:13:19Z</time></trkpt><trkpt lat="45.85441183713399" lon="12.184629067606425"><ele>95.6</ele><time>2026-04-25T05:13:21Z</time></trkpt><trkpt lat="45.854501381152446" lon="12.184563422047388"><ele>95.0</ele><time>2026-04-25T05:13:23Z</time></trkpt><trkpt lat="45.85457677555032" lon="12.184460106829652"><ele>94.6</ele><time>2026-04-25T05:13:25Z</time></trkpt><trkpt lat="45.85466389559922" lon="12.184366244784076"><ele>94.2</ele><time>2026-04-25T05:13:27Z</time></trkpt><trkpt lat="45.85475763159791" lon="12.18427457812484"><ele>93.80000000000001</ele><time>2026-04-25T05:13:29Z</time></trkpt><trkpt lat="45.85484545461933" lon="12.184173009378636"><ele>93.4</ele><time>2026-04-25T05:13:31Z</time></trkpt><trkpt lat="45.85488045267605" lon="12.184094104441474"><ele>93.0</ele><time>2026-04-25T05:13:32Z</time></trkpt><trkpt lat="45.85496032523058" lon="12.183991371743447"><ele>93.0</ele><time>2026-04-25T05:13:34Z</time></trkpt><trkpt lat="45.8550319178184" lon="12.183865798125035"><ele>93.0</ele><time>2026-04-25T05:13:36Z</time></trkpt><trkpt lat="45.85512940647576" lon="12.183789912909083"><ele>93.0</ele><time>2026-04-25T05:13:38Z</time></trkpt><trkpt lat="45.85522729844862" lon="12.183729653835229"><ele>93.0</ele><time>2026-04-25T05:13:40Z</time></trkpt><trkpt lat="45.85533442523938" lon="12.183656155096267"><ele>93.0</ele><time>2026-04-25T05:13:42Z</time></trkpt><trkpt lat="45.85543146816759" lon="12.183584177688141"><ele>94.4</ele><time>2026-04-25T05:13:44Z</time></trkpt><trkpt lat="45.85553299305788" lon="12.183514251596677"><ele>95.80000000000001</ele><time>2026-04-25T05:13:46Z</time></trkpt><trkpt lat="45.85563017078279" lon="12.183466170120035"><ele>97.2</ele><time>2026-04-25T05:13:48Z</time></trkpt><trkpt lat="45.85569528330661" lon="12.183445232430811"><ele>98.6</ele><time>2026-04-25T05:13:49Z</time></trkpt><trkpt lat="45.85575184768416" lon="12.183404383581074"><ele>100.0</ele><time>2026-04-25T05:13:50Z</time></trkpt><trkpt lat="45.855854973011496" lon="12.183325916129142"><ele>100.00000000000001</ele><time>2026-04-25T05:13:52Z</time></trkpt><trkpt lat="45.855942454987016" lon="12.183265102622693"><ele>100.0</ele><time>2026-04-25T05:13:54Z</time></trkpt><trkpt lat="45.8560269370796" lon="12.183200734177781"><ele>100.0</ele><time>2026-04-25T05:13:56Z</time></trkpt><trkpt lat="45.85610258098468" lon="12.183178180953746"><ele>100.0</ele><time>2026-04-25T05:13:59Z</time></trkpt><trkpt lat="45.85616606706998" lon="12.18314009370249"><ele>100.00000000000001</ele><time>2026-04-25T05:14:01Z</time></trkpt><trkpt lat="45.856218058176424" lon="12.183068642839388"><ele>100.0</ele><time>2026-04-25T05:14:04Z</time></trkpt><trkpt lat="45.85629659280313" lon="12.183037013779513"><ele>100.16666666666667</ele><time>2026-04-25T05:14:08Z</time></trkpt><trkpt lat="45.856355113085726" lon="12.182982118453655"><ele>100.33333333333334</ele><time>2026-04-25T05:14:11Z</time></trkpt><trkpt lat="45.85643037640224" lon="12.18291642278753"><ele>100.5</ele><time>2026-04-25T05:14:15Z</time></trkpt><trkpt lat="45.85648703938665" lon="12.182871287621971"><ele>100.66666666666666</ele><time>2026-04-25T05:14:17Z</time></trkpt><trkpt lat="45.856562237056906" lon="12.182799872887616"><ele>100.83333333333333</ele><time>2026-04-25T05:14:20Z</time></trkpt><trkpt lat="45.85664258461864" lon="12.182749260293628"><ele>101.0</ele><time>2026-04-25T05:14:23Z</time></trkpt><trkpt lat="45.85672917726343" lon="12.182713180109937"><ele>101.0</ele><time>2026-04-25T05:14:26.001Z</time></trkpt><trkpt lat="45.85679750461427" lon="12.182682820985576"><ele>101.0</ele><time>2026-04-25T05:14:29.001Z</time></trkpt><trkpt lat="45.85689216250476" lon="12.1826496962481"><ele>101.0</ele><time>2026-04-25T05:14:32.001Z</time></trkpt><trkpt lat="45.85697501716304" lon="12.182619344864161"><ele>101.0</ele><time>2026-04-25T05:14:34.001Z</time></trkpt><trkpt lat="45.857066405067215" lon="12.182603259805406"><ele>101.0</ele><time>2026-04-25T05:14:36Z</time></trkpt><trkpt lat="45.857169452928915" lon="12.182574098627114"><ele>100.99999999999999</ele><time>2026-04-25T05:14:38Z</time></trkpt><trkpt lat="45.85727566007568" lon="12.182537988410363"><ele>101.0</ele><time>2026-04-25T05:14:40Z</time></trkpt><trkpt lat="45.857370543356645" lon="12.18245761557912"><ele>101.0</ele><time>2026-04-25T05:14:42Z</time></trkpt><trkpt lat="45.857423838283935" lon="12.182398652828317"><ele>101.0</ele><time>2026-04-25T05:14:43Z</time></trkpt><trkpt lat="45.857484512610384" lon="12.182335033129172"><ele>100.99999999999999</ele><time>2026-04-25T05:14:44Z</time></trkpt><trkpt lat="45.85754949223716" lon="12.18228064999404"><ele>101.0</ele><time>2026-04-25T05:14:45Z</time></trkpt><trkpt lat="45.85760938620877" lon="12.182230385084257"><ele>99.66666666666666</ele><time>2026-04-25T05:14:46Z</time></trkpt><trkpt lat="45.85766364867487" lon="12.182181352189588"><ele>98.33333333333333</ele><time>2026-04-25T05:14:47Z</time></trkpt><trkpt lat="45.85775384119681" lon="12.182104271053348"><ele>97.0</ele><time>2026-04-25T05:14:49Z</time></trkpt><trkpt lat="45.85780944452103" lon="12.182048738826289"><ele>95.66666666666666</ele><time>2026-04-25T05:14:51Z</time></trkpt><trkpt lat="45.85786539461706" lon="12.181983946069202"><ele>94.33333333333333</ele><time>2026-04-25T05:14:54Z</time></trkpt><trkpt lat="45.857889460094675" lon="12.181877496177481"><ele>93.0</ele><time>2026-04-25T05:14:58Z</time></trkpt><trkpt lat="45.857903203258545" lon="12.181789121333784"><ele>93.0</ele><time>2026-04-25T05:15:02Z</time></trkpt><trkpt lat="45.857906211948034" lon="12.181690818999673"><ele>93.0</ele><time>2026-04-25T05:16:01Z</time></trkpt><trkpt lat="45.85793708393375" lon="12.181584893761462"><ele>93.0</ele><time>2026-04-25T05:19:58.999Z</time></trkpt><trkpt lat="45.8579534835272" lon="12.18145665130192"><ele>93.0</ele><time>2026-04-25T05:20:01.999Z</time></trkpt><trkpt lat="45.85796312853163" lon="12.181341944376385"><ele>93.0</ele><time>2026-04-25T05:20:03.999Z</time></trkpt><trkpt lat="45.857968987903725" lon="12.181207595157817"><ele>93.0</ele><time>2026-04-25T05:20:05.999Z</time></trkpt><trkpt lat="45.85794649929697" lon="12.181070709385809"><ele>93.0</ele><time>2026-04-25T05:20:07.999Z</time></trkpt><trkpt lat="45.857913971220476" lon="12.180926390783592"><ele>93.0</ele><time>2026-04-25T05:20:09.999Z</time></trkpt><trkpt lat="45.85788692683982" lon="12.180819338103081"><ele>93.0</ele><time>2026-04-25T05:20:11.999Z</time></trkpt><trkpt lat="45.85785245817281" lon="12.180721876595232"><ele>93.0</ele><time>2026-04-25T05:20:14.999Z</time></trkpt><trkpt lat="45.8578028096429" lon="12.180602497302061"><ele>93.0</ele><time>2026-04-25T05:20:18.999Z</time></trkpt><trkpt lat="45.857775959870196" lon="12.18049110144943"><ele>93.0</ele><time>2026-04-25T05:20:20.999Z</time></trkpt><trkpt lat="45.857781196136855" lon="12.180370944754426"><ele>92.83333333333333</ele><time>2026-04-25T05:20:22.999Z</time></trkpt><trkpt lat="45.85779488061583" lon="12.180262527401316"><ele>92.66666666666667</ele><time>2026-04-25T05:20:24.999Z</time></trkpt><trkpt lat="45.85782994799643" lon="12.180159300862211"><ele>92.5</ele><time>2026-04-25T05:20:26.999Z</time></trkpt><trkpt lat="45.857872032624776" lon="12.180054482092029"><ele>92.33333333333334</ele><time>2026-04-25T05:20:28.999Z</time></trkpt><trkpt lat="45.857911258714914" lon="12.179955226919418"><ele>92.16666666666667</ele><time>2026-04-25T05:20:30.999Z</time></trkpt><trkpt lat="45.8579578013263" lon="12.17985672228032"><ele>92.0</ele><time>2026-04-25T05:20:32.999Z</time></trkpt><trkpt lat="45.85800232607135" lon="12.179758210611658"><ele>92.33333333333334</ele><time>2026-04-25T05:20:34.999Z</time></trkpt><trkpt lat="45.85804727319412" lon="12.179653350842404"><ele>92.66666666666667</ele><time>2026-04-25T05:20:36.999Z</time></trkpt><trkpt lat="45.85809695938499" lon="12.179557954344784"><ele>93.0</ele><time>2026-04-25T05:20:38.999Z</time></trkpt><trkpt lat="45.85813922558933" lon="12.179463625352456"><ele>93.33333333333333</ele><time>2026-04-25T05:20:40.999Z</time></trkpt><trkpt lat="45.85818216154463" lon="12.17937441989256"><ele>93.66666666666666</ele><time>2026-04-25T05:20:43Z</time></trkpt><trkpt lat="45.85823393359924" lon="12.179274495244636"><ele>94.0</ele><time>2026-04-25T05:20:45Z</time></trkpt><trkpt lat="45.85828452384166" lon="12.179173719963565"><ele>94.0</ele><time>2026-04-25T05:20:47Z</time></trkpt><trkpt lat="45.85833525393215" lon="12.179069415577759"><ele>94.0</ele><time>2026-04-25T05:20:49Z</time></trkpt><trkpt lat="45.858392048074954" lon="12.178974111737288"><ele>94.0</ele><time>2026-04-25T05:20:51Z</time></trkpt><trkpt lat="45.858439455264765" lon="12.178892437570088"><ele>94.0</ele><time>2026-04-25T05:20:53Z</time></trkpt><trkpt lat="45.85848337136949" lon="12.178818696160322"><ele>94.0</ele><time>2026-04-25T05:20:56Z</time></trkpt><trkpt lat="45.858531328005" lon="12.178723499368838"><ele>94.0</ele><time>2026-04-25T05:20:58Z</time></trkpt><trkpt lat="45.858584833568294" lon="12.178646285156777"><ele>94.2</ele><time>2026-04-25T05:20:59Z</time></trkpt><trkpt lat="45.85863493553736" lon="12.17857307324436"><ele>94.4</ele><time>2026-04-25T05:21:00Z</time></trkpt><trkpt lat="45.85869847807828" lon="12.178460963813388"><ele>94.6</ele><time>2026-04-25T05:21:02Z</time></trkpt><trkpt lat="45.858766472764074" lon="12.178353397516243"><ele>94.8</ele><time>2026-04-25T05:21:04Z</time></trkpt><trkpt lat="45.85883075528119" lon="12.17823992793821"><ele>95.0</ele><time>2026-04-25T05:21:06Z</time></trkpt><trkpt lat="45.85887642923302" lon="12.178130718069493"><ele>95.0</ele><time>2026-04-25T05:21:08Z</time></trkpt><trkpt lat="45.85893046395191" lon="12.178007242635184"><ele>95.0</ele><time>2026-04-25T05:21:10Z</time></trkpt><trkpt lat="45.85897962223766" lon="12.177895960466797"><ele>95.0</ele><time>2026-04-25T05:21:13Z</time></trkpt><trkpt lat="45.85900495747639" lon="12.177775411685495"><ele>95.0</ele><time>2026-04-25T05:21:16Z</time></trkpt><trkpt lat="45.85900234421943" lon="12.177666340947608"><ele>95.0</ele><time>2026-04-25T05:21:18Z</time></trkpt><trkpt lat="45.85901710602449" lon="12.177554760444075"><ele>95.0</ele><time>2026-04-25T05:21:20Z</time></trkpt><trkpt lat="45.859062373337636" lon="12.177391376426229"><ele>95.5</ele><time>2026-04-25T05:21:23Z</time></trkpt><trkpt lat="45.85907884749383" lon="12.17705245383208"><ele>96.0</ele><time>2026-04-25T05:21:24Z</time></trkpt><trkpt lat="45.859104843530346" lon="12.17691572557981"><ele>96.5</ele><time>2026-04-25T05:21:26Z</time></trkpt><trkpt lat="45.85913804015141" lon="12.176779331058311"><ele>97.0</ele><time>2026-04-25T05:21:28Z</time></trkpt><trkpt lat="45.859121992486884" lon="12.176683079000371"><ele>97.0</ele><time>2026-04-25T05:21:29Z</time></trkpt><trkpt lat="45.85912089387729" lon="12.17654358362553"><ele>97.0</ele><time>2026-04-25T05:21:31Z</time></trkpt><trkpt lat="45.8591111928419" lon="12.176395017358853"><ele>97.0</ele><time>2026-04-25T05:21:33Z</time></trkpt><trkpt lat="45.85909106351262" lon="12.176236906754768"><ele>97.0</ele><time>2026-04-25T05:21:35Z</time></trkpt><trkpt lat="45.859087012745526" lon="12.176089836840719"><ele>97.0</ele><time>2026-04-25T05:21:37Z</time></trkpt><trkpt lat="45.85907493665353" lon="12.175935984467447"><ele>97.75</ele><time>2026-04-25T05:21:39Z</time></trkpt><trkpt lat="45.859093417608676" lon="12.175780773858685"><ele>98.5</ele><time>2026-04-25T05:21:41Z</time></trkpt><trkpt lat="45.859099371486344" lon="12.17562259291755"><ele>99.25</ele><time>2026-04-25T05:21:43Z</time></trkpt><trkpt lat="45.859102569860454" lon="12.175453747605802"><ele>100.0</ele><time>2026-04-25T05:21:44.999Z</time></trkpt><trkpt lat="45.859075958628594" lon="12.175290425150257"><ele>100.75</ele><time>2026-04-25T05:21:46.999Z</time></trkpt><trkpt lat="45.859066082945226" lon="12.175118950448894"><ele>101.5</ele><time>2026-04-25T05:21:48.999Z</time></trkpt><trkpt lat="45.85904986434966" lon="12.174948342303027"><ele>102.25</ele><time>2026-04-25T05:21:50.999Z</time></trkpt><trkpt lat="45.85903906525042" lon="12.174785505034933"><ele>103.0</ele><time>2026-04-25T05:21:52.999Z</time></trkpt><trkpt lat="45.85901950598251" lon="12.174618678964851"><ele>103.0</ele><time>2026-04-25T05:21:54.999Z</time></trkpt><trkpt lat="45.858996072695035" lon="12.174448501979462"><ele>103.0</ele><time>2026-04-25T05:21:56.999Z</time></trkpt><trkpt lat="45.858977173690036" lon="12.174280770599218"><ele>103.0</ele><time>2026-04-25T05:21:58.999Z</time></trkpt><trkpt lat="45.8589548094189" lon="12.1741106196874"><ele>103.0</ele><time>2026-04-25T05:22:00.999Z</time></trkpt><trkpt lat="45.858936105454184" lon="12.173939180613226"><ele>102.75</ele><time>2026-04-25T05:22:02.999Z</time></trkpt><trkpt lat="45.858933821109105" lon="12.173770043098509"><ele>102.5</ele><time>2026-04-25T05:22:04.999Z</time></trkpt><trkpt lat="45.85891640060988" lon="12.173594484748373"><ele>102.25</ele><time>2026-04-25T05:22:06.999Z</time></trkpt><trkpt lat="45.85889225019976" lon="12.17342322539048"><ele>102.0</ele><time>2026-04-25T05:22:08.999Z</time></trkpt><trkpt lat="45.85886480736752" lon="12.173255648695589"><ele>101.5</ele><time>2026-04-25T05:22:10.999Z</time></trkpt><trkpt lat="45.8588131070142" lon="12.173107926909022"><ele>101.0</ele><time>2026-04-25T05:22:12.999Z</time></trkpt><trkpt lat="45.85875482585708" lon="12.172966757767286"><ele>100.5</ele><time>2026-04-25T05:22:14.999Z</time></trkpt><trkpt lat="45.858672732499194" lon="12.17284988091542"><ele>100.0</ele><time>2026-04-25T05:22:16.999Z</time></trkpt><trkpt lat="45.85856653518153" lon="12.172767805379745"><ele>100.0</ele><time>2026-04-25T05:22:18.999Z</time></trkpt><trkpt lat="45.858451907442095" lon="12.172726480918676"><ele>100.0</ele><time>2026-04-25T05:22:20.999Z</time></trkpt><trkpt lat="45.85833778252155" lon="12.172684841953139"><ele>100.0</ele><time>2026-04-25T05:22:22.999Z</time></trkpt><trkpt lat="45.8582454382601" lon="12.172586263856633"><ele>100.0</ele><time>2026-04-25T05:22:24.999Z</time></trkpt><trkpt lat="45.858187274048824" lon="12.17244470748052"><ele>99.4</ele><time>2026-04-25T05:22:26.999Z</time></trkpt><trkpt lat="45.85813843282143" lon="12.172288866363859"><ele>98.8</ele><time>2026-04-25T05:22:28.999Z</time></trkpt><trkpt lat="45.85810311487536" lon="12.172141222090223"><ele>98.19999999999999</ele><time>2026-04-25T05:22:30.999Z</time></trkpt><trkpt lat="45.8580853142575" lon="12.17198799735227"><ele>97.6</ele><time>2026-04-25T05:22:32.999Z</time></trkpt><trkpt lat="45.85808618792625" lon="12.17182940131616"><ele>97.0</ele><time>2026-04-25T05:22:34.999Z</time></trkpt><trkpt lat="45.85807675059023" lon="12.171662908076339"><ele>96.39999999999999</ele><time>2026-04-25T05:22:36.999Z</time></trkpt><trkpt lat="45.85805238811683" lon="12.171507883715075"><ele>95.8</ele><time>2026-04-25T05:22:38.999Z</time></trkpt><trkpt lat="45.85799893624958" lon="12.171367326277583"><ele>95.2</ele><time>2026-04-25T05:22:40.999Z</time></trkpt><trkpt lat="45.857924434359184" lon="12.171246505838761"><ele>94.6</ele><time>2026-04-25T05:22:42.999Z</time></trkpt><trkpt lat="45.857861263912795" lon="12.171122404418048"><ele>94.0</ele><time>2026-04-25T05:22:44.999Z</time></trkpt><trkpt lat="45.85780377458208" lon="12.17097599019734"><ele>94.0</ele><time>2026-04-25T05:22:46.999Z</time></trkpt><trkpt lat="45.85777047402764" lon="12.170802089561064"><ele>94.0</ele><time>2026-04-25T05:22:49Z</time></trkpt><trkpt lat="45.85772491127495" lon="12.170661060191733"><ele>94.0</ele><time>2026-04-25T05:22:51Z</time></trkpt><trkpt lat="45.85765107060728" lon="12.170533470852622"><ele>94.0</ele><time>2026-04-25T05:22:53Z</time></trkpt><trkpt lat="45.85755595940026" lon="12.170428843258833"><ele>94.0</ele><time>2026-04-25T05:22:55Z</time></trkpt><trkpt lat="45.85745814693021" lon="12.170350989988513"><ele>94.0</ele><time>2026-04-25T05:22:57Z</time></trkpt><trkpt lat="45.8573546286898" lon="12.170266200163363"><ele>94.0</ele><time>2026-04-25T05:22:59Z</time></trkpt><trkpt lat="45.85724914530275" lon="12.1701732633783"><ele>94.0</ele><time>2026-04-25T05:23:01Z</time></trkpt><trkpt lat="45.857151064249955" lon="12.170061867062815"><ele>94.0</ele><time>2026-04-25T05:23:03Z</time></trkpt><trkpt lat="45.85706824993793" lon="12.169922422120546"><ele>94.0</ele><time>2026-04-25T05:23:05Z</time></trkpt><trkpt lat="45.85703121267949" lon="12.16984468362551"><ele>94.0</ele><time>2026-04-25T05:23:06Z</time></trkpt><trkpt lat="45.856997745148114" lon="12.169757216419137"><ele>94.0</ele><time>2026-04-25T05:23:07Z</time></trkpt><trkpt lat="45.85698011722625" lon="12.16966827105053"><ele>94.0</ele><time>2026-04-25T05:23:08Z</time></trkpt><trkpt lat="45.85696792212358" lon="12.16957919052216"><ele>94.0</ele><time>2026-04-25T05:23:09Z</time></trkpt><trkpt lat="45.85694341690929" lon="12.169404724476493"><ele>93.80000000000001</ele><time>2026-04-25T05:23:11Z</time></trkpt><trkpt lat="45.85692288650847" lon="12.1693180575168"><ele>93.60000000000001</ele><time>2026-04-25T05:23:12Z</time></trkpt><trkpt lat="45.856885812789095" lon="12.169152137037678"><ele>93.4</ele><time>2026-04-25T05:23:14Z</time></trkpt><trkpt lat="45.85688588256148" lon="12.169056610043652"><ele>93.2</ele><time>2026-04-25T05:23:15Z</time></trkpt><trkpt lat="45.85687774414768" lon="12.168894784601587"><ele>93.0</ele><time>2026-04-25T05:23:17Z</time></trkpt><trkpt lat="45.856892483001694" lon="12.16873223482587"><ele>92.75</ele><time>2026-04-25T05:23:19Z</time></trkpt><trkpt lat="45.85688994126749" lon="12.168568285977996"><ele>92.5</ele><time>2026-04-25T05:23:21Z</time></trkpt><trkpt lat="45.85686910132189" lon="12.168419630354677"><ele>92.25</ele><time>2026-04-25T05:23:23Z</time></trkpt><trkpt lat="45.85682350292061" lon="12.168259348273427"><ele>92.0</ele><time>2026-04-25T05:23:25Z</time></trkpt><trkpt lat="45.85675563900988" lon="12.168119594260657"><ele>92.39999999999999</ele><time>2026-04-25T05:23:27Z</time></trkpt><trkpt lat="45.85675126341039" lon="12.167949952858404"><ele>92.8</ele><time>2026-04-25T05:23:29Z</time></trkpt><trkpt lat="45.85676239916782" lon="12.16779457233418"><ele>93.2</ele><time>2026-04-25T05:23:31Z</time></trkpt><trkpt lat="45.85676423117769" lon="12.16765041319667"><ele>93.6</ele><time>2026-04-25T05:23:33Z</time></trkpt><trkpt lat="45.85673762660934" lon="12.1675478198679"><ele>94.0</ele><time>2026-04-25T05:23:35Z</time></trkpt><trkpt lat="45.8567359529023" lon="12.167451404008297"><ele>94.0</ele><time>2026-04-25T05:23:37Z</time></trkpt><trkpt lat="45.85671186902463" lon="12.16736729370933"><ele>94.0</ele><time>2026-04-25T05:23:39Z</time></trkpt><trkpt lat="45.856703014551" lon="12.167274458949144"><ele>94.0</ele><time>2026-04-25T05:23:42Z</time></trkpt><trkpt lat="45.85667674749741" lon="12.167164692915433"><ele>94.0</ele><time>2026-04-25T05:23:45Z</time></trkpt><trkpt lat="45.85665650021918" lon="12.167067282173871"><ele>94.0</ele><time>2026-04-25T05:23:47Z</time></trkpt><trkpt lat="45.8566325331335" lon="12.166951975383803"><ele>94.0</ele><time>2026-04-25T05:23:49Z</time></trkpt><trkpt lat="45.85670933787961" lon="12.166937494926971"><ele>94.0</ele><time>2026-04-25T05:23:50Z</time></trkpt><trkpt lat="45.85670735362015" lon="12.16681507206994"><ele>93.66666666666666</ele><time>2026-04-25T05:23:52Z</time></trkpt><trkpt lat="45.85670550550966" lon="12.166701049375776"><ele>93.33333333333333</ele><time>2026-04-25T05:23:54Z</time></trkpt><trkpt lat="45.85670344382176" lon="12.166573849561278"><ele>93.0</ele><time>2026-04-25T05:23:56Z</time></trkpt><trkpt lat="45.85636682207007" lon="12.16651955727456"><ele>93.4</ele><time>2026-04-25T05:23:57Z</time></trkpt><trkpt lat="45.856331506686615" lon="12.166391807581483"><ele>93.80000000000001</ele><time>2026-04-25T05:23:58.999Z</time></trkpt><trkpt lat="45.85629509494016" lon="12.16626637136223"><ele>94.2</ele><time>2026-04-25T05:24:00.999Z</time></trkpt><trkpt lat="45.856261963047544" lon="12.166136995130767"><ele>94.6</ele><time>2026-04-25T05:24:02.999Z</time></trkpt><trkpt lat="45.85621344670077" lon="12.166010002463903"><ele>95.0</ele><time>2026-04-25T05:24:04.999Z</time></trkpt><trkpt lat="45.85617285787681" lon="12.165888276107795"><ele>95.0</ele><time>2026-04-25T05:24:06.999Z</time></trkpt><trkpt lat="45.856154405594225" lon="12.16572155994558"><ele>95.0</ele><time>2026-04-25T05:24:08.999Z</time></trkpt><trkpt lat="45.85615091772432" lon="12.165568168876774"><ele>95.0</ele><time>2026-04-25T05:24:10.999Z</time></trkpt><trkpt lat="45.85615472531031" lon="12.165409387885338"><ele>95.0</ele><time>2026-04-25T05:24:12.999Z</time></trkpt><trkpt lat="45.85613934531456" lon="12.165258116410417"><ele>95.0</ele><time>2026-04-25T05:24:14.999Z</time></trkpt><trkpt lat="45.85610060789616" lon="12.165126549570182"><ele>95.5</ele><time>2026-04-25T05:24:16.999Z</time></trkpt><trkpt lat="45.856114310073366" lon="12.16499095026371"><ele>96.0</ele><time>2026-04-25T05:24:18.999Z</time></trkpt><trkpt lat="45.856119609944116" lon="12.164858193259287"><ele>96.5</ele><time>2026-04-25T05:24:20.999Z</time></trkpt><trkpt lat="45.85609706281175" lon="12.16472571305388"><ele>97.0</ele><time>2026-04-25T05:24:22.999Z</time></trkpt><trkpt lat="45.85610829803107" lon="12.164606133883611"><ele>97.49999999999999</ele><time>2026-04-25T05:24:24.999Z</time></trkpt><trkpt lat="45.85609583253455" lon="12.164504549570845"><ele>98.0</ele><time>2026-04-25T05:24:26.999Z</time></trkpt><trkpt lat="45.85609438889355" lon="12.164382387193802"><ele>98.80000000000001</ele><time>2026-04-25T05:24:28.999Z</time></trkpt><trkpt lat="45.856105768125694" lon="12.164264389625396"><ele>99.6</ele><time>2026-04-25T05:24:30.999Z</time></trkpt><trkpt lat="45.85611402389334" lon="12.164153469146772"><ele>100.4</ele><time>2026-04-25T05:24:32.999Z</time></trkpt><trkpt lat="45.85609422636741" lon="12.164004853918806"><ele>101.19999999999999</ele><time>2026-04-25T05:24:34.999Z</time></trkpt><trkpt lat="45.856058529424836" lon="12.16388022465546"><ele>102.0</ele><time>2026-04-25T05:24:36.999Z</time></trkpt><trkpt lat="45.856034224881505" lon="12.16375111591908"><ele>102.33333333333333</ele><time>2026-04-25T05:24:38.999Z</time></trkpt><trkpt lat="45.85604410898437" lon="12.163648124216063"><ele>102.66666666666666</ele><time>2026-04-25T05:24:41.999Z</time></trkpt><trkpt lat="45.85604806853014" lon="12.163550211278492"><ele>103.0</ele><time>2026-04-25T05:24:46.999Z</time></trkpt><trkpt lat="45.85602165157734" lon="12.163401841438285"><ele>103.33333333333333</ele><time>2026-04-25T05:24:49.999Z</time></trkpt><trkpt lat="45.855979949615666" lon="12.163274170997578"><ele>103.66666666666666</ele><time>2026-04-25T05:24:51.999Z</time></trkpt><trkpt lat="45.85596448080929" lon="12.163133274977627"><ele>104.0</ele><time>2026-04-25T05:24:53.999Z</time></trkpt><trkpt lat="45.85595801283986" lon="12.163002419475292"><ele>104.4</ele><time>2026-04-25T05:24:56Z</time></trkpt><trkpt lat="45.855962166662835" lon="12.162899360451943"><ele>104.80000000000001</ele><time>2026-04-25T05:24:59Z</time></trkpt><trkpt lat="45.855920743773616" lon="12.16264127234402"><ele>105.19999999999999</ele><time>2026-04-25T05:25:00Z</time></trkpt><trkpt lat="45.8559440063033" lon="12.16255484019831"><ele>105.6</ele><time>2026-04-25T05:25:01Z</time></trkpt><trkpt lat="45.85594814804281" lon="12.162387399794316"><ele>106.0</ele><time>2026-04-25T05:25:03Z</time></trkpt><trkpt lat="45.85595890351801" lon="12.16223038874381"><ele>106.00000000000001</ele><time>2026-04-25T05:25:05Z</time></trkpt><trkpt lat="45.85595332515311" lon="12.162094872013727"><ele>106.0</ele><time>2026-04-25T05:25:07Z</time></trkpt><trkpt lat="45.855966099494196" lon="12.162001208820906"><ele>106.0</ele><time>2026-04-25T05:25:08Z</time></trkpt><trkpt lat="45.85592789025368" lon="12.161908903461882"><ele>106.0</ele><time>2026-04-25T05:25:10Z</time></trkpt><trkpt lat="45.85589011521172" lon="12.161800352160984"><ele>106.00000000000001</ele><time>2026-04-25T05:25:12Z</time></trkpt><trkpt lat="45.85584155186436" lon="12.16164475044183"><ele>106.0</ele><time>2026-04-25T05:25:14Z</time></trkpt><trkpt lat="45.85583241413512" lon="12.161551707783508"><ele>104.83333333333334</ele><time>2026-04-25T05:25:15Z</time></trkpt><trkpt lat="45.85586344107499" lon="12.161408307226013"><ele>103.66666666666667</ele><time>2026-04-25T05:25:17Z</time></trkpt><trkpt lat="45.85588636917801" lon="12.161291421882026"><ele>102.5</ele><time>2026-04-25T05:25:19Z</time></trkpt><trkpt lat="45.855878727911296" lon="12.161195734969038"><ele>101.33333333333334</ele><time>2026-04-25T05:25:21Z</time></trkpt><trkpt lat="45.855868606042925" lon="12.161092220003239"><ele>100.16666666666667</ele><time>2026-04-25T05:25:24Z</time></trkpt><trkpt lat="45.85584261503131" lon="12.160981142822715"><ele>99.0</ele><time>2026-04-25T05:25:26Z</time></trkpt><trkpt lat="45.855822078197086" lon="12.160888209171922"><ele>99.0</ele><time>2026-04-25T05:25:28Z</time></trkpt><trkpt lat="45.85577141703111" lon="12.160744382538395"><ele>99.0</ele><time>2026-04-25T05:25:31Z</time></trkpt><trkpt lat="45.85571882454459" lon="12.160672490812471"><ele>99.0</ele><time>2026-04-25T05:25:33Z</time></trkpt><trkpt lat="45.85565572022131" lon="12.160588774906925"><ele>99.0</ele><time>2026-04-25T05:25:34Z</time></trkpt><trkpt lat="45.855608903659956" lon="12.160514839224561"><ele>99.0</ele><time>2026-04-25T05:25:35Z</time></trkpt><trkpt lat="45.8555801431507" lon="12.16039769275684"><ele>99.0</ele><time>2026-04-25T05:25:36Z</time></trkpt><trkpt lat="45.85556930756325" lon="12.160294517435394"><ele>99.80000000000001</ele><time>2026-04-25T05:25:37Z</time></trkpt><trkpt lat="45.8555545280034" lon="12.160135711967154"><ele>100.60000000000001</ele><time>2026-04-25T05:25:39Z</time></trkpt><trkpt lat="45.85554517357675" lon="12.15998266799994"><ele>101.4</ele><time>2026-04-25T05:25:41Z</time></trkpt><trkpt lat="45.85554863564002" lon="12.159888575263713"><ele>102.2</ele><time>2026-04-25T05:25:43Z</time></trkpt><trkpt lat="45.85556793295602" lon="12.159737742182982"><ele>103.0</ele><time>2026-04-25T05:25:45Z</time></trkpt><trkpt lat="45.8555825372512" lon="12.159601245786142"><ele>102.83333333333334</ele><time>2026-04-25T05:25:47Z</time></trkpt><trkpt lat="45.85558365862805" lon="12.159481909066777"><ele>102.66666666666667</ele><time>2026-04-25T05:25:49Z</time></trkpt><trkpt lat="45.85559754527214" lon="12.159366981830033"><ele>102.5</ele><time>2026-04-25T05:25:51Z</time></trkpt><trkpt lat="45.85561649625335" lon="12.159237197319818"><ele>102.33333333333334</ele><time>2026-04-25T05:25:53Z</time></trkpt><trkpt lat="45.85563023862758" lon="12.159113082056928"><ele>102.16666666666667</ele><time>2026-04-25T05:25:55Z</time></trkpt><trkpt lat="45.85567777554019" lon="12.159009288112966"><ele>102.0</ele><time>2026-04-25T05:25:57Z</time></trkpt><trkpt lat="45.85569038219536" lon="12.158911516706745"><ele>102.0</ele><time>2026-04-25T05:26:00Z</time></trkpt><trkpt lat="45.85570739107748" lon="12.158811011900134"><ele>102.0</ele><time>2026-04-25T05:26:03.999Z</time></trkpt><trkpt lat="45.85576067240678" lon="12.158748314567728"><ele>102.0</ele><time>2026-04-25T05:26:08.999Z</time></trkpt><trkpt lat="45.85580510185353" lon="12.158649018483931"><ele>102.0</ele><time>2026-04-25T05:26:11.999Z</time></trkpt><trkpt lat="45.855840325223866" lon="12.158516162507143"><ele>102.0</ele><time>2026-04-25T05:26:14.999Z</time></trkpt><trkpt lat="45.85588166308379" lon="12.158424658880888"><ele>102.0</ele><time>2026-04-25T05:26:16.999Z</time></trkpt><trkpt lat="45.855930840439484" lon="12.15830735376811"><ele>103.0</ele><time>2026-04-25T05:26:18.999Z</time></trkpt><trkpt lat="45.85596152066174" lon="12.15818026912959"><ele>104.0</ele><time>2026-04-25T05:26:20.999Z</time></trkpt><trkpt lat="45.855996624932814" lon="12.158071660104541"><ele>105.0</ele><time>2026-04-25T05:26:22.999Z</time></trkpt><trkpt lat="45.85605522023055" lon="12.157991953367777"><ele>106.0</ele><time>2026-04-25T05:26:24.999Z</time></trkpt><trkpt lat="45.856123899288065" lon="12.157900849870517"><ele>107.0</ele><time>2026-04-25T05:26:26.999Z</time></trkpt><trkpt lat="45.8561322626147" lon="12.15778777406991"><ele>108.0</ele><time>2026-04-25T05:26:28.999Z</time></trkpt><trkpt lat="45.85615304173509" lon="12.157651180308351"><ele>108.0</ele><time>2026-04-25T05:26:30.999Z</time></trkpt><trkpt lat="45.856183787918866" lon="12.157522486087629"><ele>108.0</ele><time>2026-04-25T05:26:32.999Z</time></trkpt><trkpt lat="45.856223656760356" lon="12.157401838347766"><ele>108.0</ele><time>2026-04-25T05:26:34.999Z</time></trkpt><trkpt lat="45.85623938828272" lon="12.157284561039068"><ele>108.0</ele><time>2026-04-25T05:26:36.999Z</time></trkpt><trkpt lat="45.85624642853183" lon="12.157164051590035"><ele>108.0</ele><time>2026-04-25T05:26:38.999Z</time></trkpt><trkpt lat="45.856260182677644" lon="12.157060450725691"><ele>108.0</ele><time>2026-04-25T05:26:40.999Z</time></trkpt><trkpt lat="45.856263391751476" lon="12.156913861342105"><ele>108.25</ele><time>2026-04-25T05:26:43.999Z</time></trkpt><trkpt lat="45.85626495020456" lon="12.156632730897769"><ele>108.5</ele><time>2026-04-25T05:26:46.999Z</time></trkpt><trkpt lat="45.856277824819315" lon="12.156480733539048"><ele>108.75</ele><time>2026-04-25T05:26:48.999Z</time></trkpt><trkpt lat="45.856290276284085" lon="12.156280192857857"><ele>109.0</ele><time>2026-04-25T05:26:50.999Z</time></trkpt><trkpt lat="45.85630800068764" lon="12.15610160771866"><ele>109.0</ele><time>2026-04-25T05:26:52.999Z</time></trkpt><trkpt lat="45.85633909312784" lon="12.155938331456266"><ele>109.0</ele><time>2026-04-25T05:26:54.999Z</time></trkpt><trkpt lat="45.85634641794601" lon="12.15576098334351"><ele>109.0</ele><time>2026-04-25T05:26:56.999Z</time></trkpt><trkpt lat="45.85637339635103" lon="12.1556772301327"><ele>109.0</ele><time>2026-04-25T05:26:57.999Z</time></trkpt><trkpt lat="45.85639014018557" lon="12.155537922064024"><ele>109.0</ele><time>2026-04-25T05:26:59.999Z</time></trkpt><trkpt lat="45.856416584590434" lon="12.155395260193997"><ele>108.6</ele><time>2026-04-25T05:27:02Z</time></trkpt><trkpt lat="45.856432315467615" lon="12.155254046892404"><ele>108.2</ele><time>2026-04-25T05:27:04Z</time></trkpt><trkpt lat="45.85644827220814" lon="12.155100873544972"><ele>107.79999999999998</ele><time>2026-04-25T05:27:06Z</time></trkpt><trkpt lat="45.856422403081794" lon="12.154954679917337"><ele>107.39999999999999</ele><time>2026-04-25T05:27:08Z</time></trkpt><trkpt lat="45.856324568719735" lon="12.154855263455309"><ele>107.0</ele><time>2026-04-25T05:27:10Z</time></trkpt><trkpt lat="45.85633559021603" lon="12.154681362234909"><ele>107.0</ele><time>2026-04-25T05:27:12Z</time></trkpt><trkpt lat="45.856304724261626" lon="12.154545809440933"><ele>106.99999999999999</ele><time>2026-04-25T05:27:14Z</time></trkpt><trkpt lat="45.85628801369047" lon="12.154410542308586"><ele>106.99999999999999</ele><time>2026-04-25T05:27:16Z</time></trkpt><trkpt lat="45.85633854706136" lon="12.154273106815474"><ele>107.0</ele><time>2026-04-25T05:27:18Z</time></trkpt><trkpt lat="45.85635299130076" lon="12.15416733958367"><ele>107.0</ele><time>2026-04-25T05:27:25Z</time></trkpt><trkpt lat="45.85635455711515" lon="12.154042428573188"><ele>106.85714285714286</ele><time>2026-04-25T05:27:29Z</time></trkpt><trkpt lat="45.85634904741993" lon="12.153950316308986"><ele>106.71428571428572</ele><time>2026-04-25T05:27:32Z</time></trkpt><trkpt lat="45.85636609946178" lon="12.153860029653526"><ele>106.57142857142858</ele><time>2026-04-25T05:27:36Z</time></trkpt><trkpt lat="45.856391604739436" lon="12.153774201045058"><ele>106.42857142857143</ele><time>2026-04-25T05:27:38Z</time></trkpt><trkpt lat="45.856385134119456" lon="12.153673944091143"><ele>106.28571428571428</ele><time>2026-04-25T05:27:40Z</time></trkpt><trkpt lat="45.856428518199245" lon="12.153558015638541"><ele>106.14285714285715</ele><time>2026-04-25T05:27:42Z</time></trkpt><trkpt lat="45.85647816866097" lon="12.153473173930381"><ele>106.0</ele><time>2026-04-25T05:27:46Z</time></trkpt><trkpt lat="45.856502740102265" lon="12.153329896869215"><ele>105.4</ele><time>2026-04-25T05:27:50Z</time></trkpt><trkpt lat="45.85651456525343" lon="12.153195127056911"><ele>104.8</ele><time>2026-04-25T05:27:52Z</time></trkpt><trkpt lat="45.856542092255665" lon="12.153051600395376"><ele>104.2</ele><time>2026-04-25T05:27:54Z</time></trkpt><trkpt lat="45.856571194549055" lon="12.152920245535855"><ele>103.60000000000001</ele><time>2026-04-25T05:27:56Z</time></trkpt><trkpt lat="45.85662062926568" lon="12.152801216769705"><ele>103.0</ele><time>2026-04-25T05:27:58Z</time></trkpt><trkpt lat="45.85663571868883" lon="12.152682654000417"><ele>103.00000000000001</ele><time>2026-04-25T05:28:00Z</time></trkpt><trkpt lat="45.85669892946198" lon="12.152621026223063"><ele>103.0</ele><time>2026-04-25T05:28:03Z</time></trkpt><trkpt lat="45.8567700588975" lon="12.152560058103719"><ele>103.0</ele><time>2026-04-25T05:28:06.999Z</time></trkpt><trkpt lat="45.85682300369639" lon="12.152487361727891"><ele>103.0</ele><time>2026-04-25T05:28:08.999Z</time></trkpt><trkpt lat="45.856858266864364" lon="12.1523594907346"><ele>103.00000000000001</ele><time>2026-04-25T05:28:13.999Z</time></trkpt><trkpt lat="45.85684119390763" lon="12.152211957792463"><ele>103.0</ele><time>2026-04-25T05:28:16.999Z</time></trkpt><trkpt lat="45.8568851065125" lon="12.152144840715106"><ele>104.4</ele><time>2026-04-25T05:28:17.999Z</time></trkpt><trkpt lat="45.856946312379485" lon="12.151978172954509"><ele>105.80000000000001</ele><time>2026-04-25T05:28:19.999Z</time></trkpt><trkpt lat="45.85697829126396" lon="12.151884190615831"><ele>107.2</ele><time>2026-04-25T05:28:20.999Z</time></trkpt><trkpt lat="45.857033010812366" lon="12.151838055680768"><ele>108.6</ele><time>2026-04-25T05:28:21.999Z</time></trkpt><trkpt lat="45.857091231796396" lon="12.151739218158383"><ele>110.0</ele><time>2026-04-25T05:28:23.999Z</time></trkpt><trkpt lat="45.85714309923085" lon="12.151604756352821"><ele>109.83333333333333</ele><time>2026-04-25T05:28:25.999Z</time></trkpt><trkpt lat="45.85716297116637" lon="12.15150164150168"><ele>109.66666666666666</ele><time>2026-04-25T05:28:27.999Z</time></trkpt><trkpt lat="45.85718534983228" lon="12.151382458013808"><ele>109.5</ele><time>2026-04-25T05:28:29.999Z</time></trkpt><trkpt lat="45.857146088032955" lon="12.151283637116581"><ele>109.33333333333334</ele><time>2026-04-25T05:28:33.999Z</time></trkpt><trkpt lat="45.85716423983177" lon="12.151167637283281"><ele>109.16666666666667</ele><time>2026-04-25T05:28:35.999Z</time></trkpt><trkpt lat="45.857194350404185" lon="12.151084255599274"><ele>109.0</ele><time>2026-04-25T05:28:36.999Z</time></trkpt><trkpt lat="45.85724049589777" lon="12.151020556410339"><ele>109.00000000000001</ele><time>2026-04-25T05:28:38.999Z</time></trkpt><trkpt lat="45.857253218263686" lon="12.150927751400344"><ele>109.0</ele><time>2026-04-25T05:28:40.999Z</time></trkpt><trkpt lat="45.85729854493683" lon="12.150850737651622"><ele>109.0</ele><time>2026-04-25T05:28:41.999Z</time></trkpt><trkpt lat="45.857333493771485" lon="12.150711893040663"><ele>109.0</ele><time>2026-04-25T05:28:46.999Z</time></trkpt><trkpt lat="45.857379469552384" lon="12.15061330060373"><ele>109.00000000000001</ele><time>2026-04-25T05:28:50.999Z</time></trkpt><trkpt lat="45.85743069738987" lon="12.150541304419274"><ele>109.0</ele><time>2026-04-25T05:28:51.999Z</time></trkpt><trkpt lat="45.85746664072224" lon="12.150405875056963"><ele>108.6</ele><time>2026-04-25T05:28:53.999Z</time></trkpt><trkpt lat="45.85749229165912" lon="12.150306886407366"><ele>108.2</ele><time>2026-04-25T05:28:56.999Z</time></trkpt><trkpt lat="45.857540471514994" lon="12.150167959972046"><ele>107.79999999999998</ele><time>2026-04-25T05:28:58.999Z</time></trkpt><trkpt lat="45.85755174059306" lon="12.15005641837034"><ele>107.39999999999999</ele><time>2026-04-25T05:29:00.999Z</time></trkpt><trkpt lat="45.8576108980899" lon="12.149931328970641"><ele>107.0</ele><time>2026-04-25T05:29:02.999Z</time></trkpt><trkpt lat="45.857666381018994" lon="12.149826291066816"><ele>106.99999999999999</ele><time>2026-04-25T05:29:04.999Z</time></trkpt><trkpt lat="45.85771546861701" lon="12.149698705754131"><ele>107.0</ele><time>2026-04-25T05:29:07Z</time></trkpt><trkpt lat="45.85780458222404" lon="12.14960388997917"><ele>107.0</ele><time>2026-04-25T05:29:09Z</time></trkpt><trkpt lat="45.857862279881275" lon="12.149516424141716"><ele>107.0</ele><time>2026-04-25T05:29:11Z</time></trkpt><trkpt lat="45.85793203634365" lon="12.149478772732524"><ele>106.99999999999999</ele><time>2026-04-25T05:29:15Z</time></trkpt><trkpt lat="45.85800847186796" lon="12.149460785472973"><ele>107.0</ele><time>2026-04-25T05:29:19Z</time></trkpt><trkpt lat="45.85804952798535" lon="12.14938101588692"><ele>106.99999999999999</ele><time>2026-04-25T05:29:25Z</time></trkpt><trkpt lat="45.85810352519218" lon="12.149323082457647"><ele>107.0</ele><time>2026-04-25T05:29:31Z</time></trkpt><trkpt lat="45.85818469207252" lon="12.149294493203643"><ele>107.0</ele><time>2026-04-25T05:29:34Z</time></trkpt><trkpt lat="45.858251774033384" lon="12.149248228046467"><ele>107.0</ele><time>2026-04-25T05:29:36Z</time></trkpt><trkpt lat="45.858287239180754" lon="12.149147852973057"><ele>106.99999999999999</ele><time>2026-04-25T05:29:38Z</time></trkpt><trkpt lat="45.8583164707592" lon="12.149057147457725"><ele>107.0</ele><time>2026-04-25T05:29:40Z</time></trkpt><trkpt lat="45.85828812474868" lon="12.148913818395872"><ele>106.49999999999999</ele><time>2026-04-25T05:29:42Z</time></trkpt><trkpt lat="45.85823853881721" lon="12.148798822415818"><ele>106.0</ele><time>2026-04-25T05:29:44Z</time></trkpt><trkpt lat="45.858179265391705" lon="12.148765303067428"><ele>105.5</ele><time>2026-04-25T05:29:46Z</time></trkpt><trkpt lat="45.85811624587649" lon="12.148716532322963"><ele>105.0</ele><time>2026-04-25T05:29:48Z</time></trkpt><trkpt lat="45.85810048216289" lon="12.148602062799954"><ele>104.49999999999999</ele><time>2026-04-25T05:29:50Z</time></trkpt><trkpt lat="45.8581085537432" lon="12.14847295080247"><ele>104.0</ele><time>2026-04-25T05:29:52Z</time></trkpt><trkpt lat="45.85812190950024" lon="12.148355174189376"><ele>103.99999999999999</ele><time>2026-04-25T05:29:54Z</time></trkpt><trkpt lat="45.85815864482001" lon="12.148241052413233"><ele>104.0</ele><time>2026-04-25T05:29:56Z</time></trkpt><trkpt lat="45.85822515820449" lon="12.148145498252786"><ele>104.0</ele><time>2026-04-25T05:29:58Z</time></trkpt><trkpt lat="45.85829446718503" lon="12.148081377313169"><ele>104.0</ele><time>2026-04-25T05:30:00Z</time></trkpt><trkpt lat="45.85837670686196" lon="12.148045925785143"><ele>103.99999999999999</ele><time>2026-04-25T05:30:02Z</time></trkpt><trkpt lat="45.85845995660151" lon="12.147991794249153"><ele>104.0</ele><time>2026-04-25T05:30:04Z</time></trkpt><trkpt lat="45.85855078372818" lon="12.147929373269761"><ele>103.6</ele><time>2026-04-25T05:30:06Z</time></trkpt><trkpt lat="45.85862528587025" lon="12.147880123350548"><ele>103.2</ele><time>2026-04-25T05:30:08.999Z</time></trkpt><trkpt lat="45.858722940891326" lon="12.147753273767428"><ele>102.8</ele><time>2026-04-25T05:30:12.999Z</time></trkpt><trkpt lat="45.85879351566548" lon="12.147722405542867"><ele>102.39999999999999</ele><time>2026-04-25T05:30:13.999Z</time></trkpt><trkpt lat="45.858892542613624" lon="12.14767441968604"><ele>102.0</ele><time>2026-04-25T05:30:15.999Z</time></trkpt><trkpt lat="45.85900603082564" lon="12.147676918874978"><ele>102.0</ele><time>2026-04-25T05:30:17.999Z</time></trkpt><trkpt lat="45.85910880919713" lon="12.14769595768874"><ele>102.0</ele><time>2026-04-25T05:30:19.999Z</time></trkpt><trkpt lat="45.859210180353315" lon="12.147761154082476"><ele>102.0</ele><time>2026-04-25T05:30:21.999Z</time></trkpt><trkpt lat="45.859313302634014" lon="12.14778092959033"><ele>102.0</ele><time>2026-04-25T05:30:23.999Z</time></trkpt><trkpt lat="45.85937967319598" lon="12.147782757116033"><ele>102.0</ele><time>2026-04-25T05:30:27.999Z</time></trkpt><trkpt lat="45.85947462696851" lon="12.14779356996916"><ele>102.66666666666667</ele><time>2026-04-25T05:30:28.999Z</time></trkpt><trkpt lat="45.859561513921456" lon="12.147833107741778"><ele>103.33333333333334</ele><time>2026-04-25T05:30:30.999Z</time></trkpt><trkpt lat="45.85963023954297" lon="12.14786921794155"><ele>104.0</ele><time>2026-04-25T05:30:32.999Z</time></trkpt><trkpt lat="45.859702741959026" lon="12.14788443168167"><ele>104.66666666666667</ele><time>2026-04-25T05:30:34.999Z</time></trkpt><trkpt lat="45.85978946677922" lon="12.147878278688781"><ele>105.33333333333334</ele><time>2026-04-25T05:30:39.999Z</time></trkpt><trkpt lat="45.8598536744355" lon="12.147835300428165"><ele>106.0</ele><time>2026-04-25T05:30:42.999Z</time></trkpt><trkpt lat="45.85994850603731" lon="12.147844560797301"><ele>106.00000000000001</ele><time>2026-04-25T05:30:45.999Z</time></trkpt><trkpt lat="45.860022646173306" lon="12.147883400681849"><ele>106.0</ele><time>2026-04-25T05:30:48.999Z</time></trkpt><trkpt lat="45.86010443343374" lon="12.147904247359254"><ele>106.0</ele><time>2026-04-25T05:30:51.999Z</time></trkpt><trkpt lat="45.860165637187364" lon="12.14797653580475"><ele>106.0</ele><time>2026-04-25T05:30:54.999Z</time></trkpt><trkpt lat="45.86021924508134" lon="12.148091466664408"><ele>106.00000000000001</ele><time>2026-04-25T05:30:58.999Z</time></trkpt><trkpt lat="45.860249916381505" lon="12.148180492295579"><ele>106.0</ele><time>2026-04-25T05:31:02.999Z</time></trkpt><trkpt lat="45.86029105298624" lon="12.148287661757127"><ele>107.50000000000001</ele><time>2026-04-25T05:31:05.999Z</time></trkpt><trkpt lat="45.86033812514875" lon="12.148348082219975"><ele>109.0</ele><time>2026-04-25T05:31:08.999Z</time></trkpt><trkpt lat="45.86040949372368" lon="12.148422906793547"><ele>110.5</ele><time>2026-04-25T05:31:11.999Z</time></trkpt><trkpt lat="45.86047042589225" lon="12.148512453079077"><ele>112.0</ele><time>2026-04-25T05:31:16Z</time></trkpt><trkpt lat="45.86056055569539" lon="12.148549890457828"><ele>113.50000000000001</ele><time>2026-04-25T05:31:20Z</time></trkpt><trkpt lat="45.86065539629148" lon="12.148506602920172"><ele>115.0</ele><time>2026-04-25T05:31:24Z</time></trkpt><trkpt lat="45.86072964780889" lon="12.148449517001303"><ele>115.00000000000001</ele><time>2026-04-25T05:31:27Z</time></trkpt><trkpt lat="45.86081305988187" lon="12.148404230081299"><ele>115.0</ele><time>2026-04-25T05:31:30Z</time></trkpt><trkpt lat="45.86087510214491" lon="12.148369387931963"><ele>115.0</ele><time>2026-04-25T05:31:32Z</time></trkpt><trkpt lat="45.860965687374296" lon="12.148316725911398"><ele>115.0</ele><time>2026-04-25T05:31:35Z</time></trkpt><trkpt lat="45.861023530603674" lon="12.148277968924559"><ele>115.00000000000001</ele><time>2026-04-25T05:31:37Z</time></trkpt><trkpt lat="45.86109611275342" lon="12.14825351375647"><ele>115.0</ele><time>2026-04-25T05:31:40Z</time></trkpt><trkpt lat="45.861155867708014" lon="12.14821739368356"><ele>114.66666666666667</ele><time>2026-04-25T05:31:41Z</time></trkpt><trkpt lat="45.86122107389769" lon="12.148171349446663"><ele>114.33333333333334</ele><time>2026-04-25T05:31:43Z</time></trkpt><trkpt lat="45.861301397637064" lon="12.14812703842966"><ele>114.0</ele><time>2026-04-25T05:31:45Z</time></trkpt><trkpt lat="45.8613712012866" lon="12.148076695027603"><ele>113.66666666666666</ele><time>2026-04-25T05:31:47Z</time></trkpt><trkpt lat="45.861445689394294" lon="12.14803971455736"><ele>113.33333333333333</ele><time>2026-04-25T05:31:50Z</time></trkpt><trkpt lat="45.86156376586906" lon="12.147969289529193"><ele>113.0</ele><time>2026-04-25T05:31:52Z</time></trkpt><trkpt lat="45.861662005234265" lon="12.147917392942743"><ele>113.0</ele><time>2026-04-25T05:31:54Z</time></trkpt><trkpt lat="45.86175651058236" lon="12.147863019639077"><ele>113.00000000000001</ele><time>2026-04-25T05:31:56Z</time></trkpt><trkpt lat="45.8618466526319" lon="12.147803337230181"><ele>113.00000000000001</ele><time>2026-04-25T05:31:58Z</time></trkpt><trkpt lat="45.86194167166442" lon="12.14773290271046"><ele>113.0</ele><time>2026-04-25T05:32:00Z</time></trkpt><trkpt lat="45.862017142380196" lon="12.147713237569691"><ele>113.0</ele><time>2026-04-25T05:32:02Z</time></trkpt><trkpt lat="45.86200781179691" lon="12.1475268292185"><ele>112.99999999999999</ele><time>2026-04-25T05:32:03Z</time></trkpt><trkpt lat="45.862006821207046" lon="12.1473993819644"><ele>113.0</ele><time>2026-04-25T05:32:05Z</time></trkpt><trkpt lat="45.86210471007876" lon="12.147362464586331"><ele>113.0</ele><time>2026-04-25T05:32:08Z</time></trkpt><trkpt lat="45.862040104740366" lon="12.147318985052129"><ele>113.0</ele><time>2026-04-25T05:32:26.999Z</time></trkpt><trkpt lat="45.861956827861675" lon="12.147241229295025"><ele>112.99999999999999</ele><time>2026-04-25T05:32:29.999Z</time></trkpt><trkpt lat="45.861922092888705" lon="12.147131005595693"><ele>113.0</ele><time>2026-04-25T05:32:31.999Z</time></trkpt><trkpt lat="45.86189856608311" lon="12.147008773970395"><ele>112.80000000000001</ele><time>2026-04-25T05:32:33.999Z</time></trkpt><trkpt lat="45.8618763670086" lon="12.14687940641839"><ele>112.60000000000001</ele><time>2026-04-25T05:32:35.999Z</time></trkpt><trkpt lat="45.86186164620635" lon="12.146737755210987"><ele>112.39999999999999</ele><time>2026-04-25T05:32:37.999Z</time></trkpt><trkpt lat="45.86185481323873" lon="12.146595622792546"><ele>112.19999999999999</ele><time>2026-04-25T05:32:39.999Z</time></trkpt><trkpt lat="45.861898514536755" lon="12.146458571935517"><ele>112.0</ele><time>2026-04-25T05:32:41.999Z</time></trkpt><trkpt lat="45.86200352473764" lon="12.146362818354511"><ele>111.33333333333334</ele><time>2026-04-25T05:32:43.999Z</time></trkpt><trkpt lat="45.862092528419375" lon="12.14624386725386"><ele>110.66666666666667</ele><time>2026-04-25T05:32:45.999Z</time></trkpt><trkpt lat="45.86214158671621" lon="12.146186221901125"><ele>110.0</ele><time>2026-04-25T05:32:46.999Z</time></trkpt><trkpt lat="45.8621987218924" lon="12.146133543921344"><ele>109.33333333333334</ele><time>2026-04-25T05:32:47.999Z</time></trkpt><trkpt lat="45.86225672693327" lon="12.146071912966157"><ele>108.66666666666667</ele><time>2026-04-25T05:32:48.999Z</time></trkpt><trkpt lat="45.86230422209233" lon="12.145998596786514"><ele>108.0</ele><time>2026-04-25T05:32:49.999Z</time></trkpt><trkpt lat="45.86233704948887" lon="12.14591833256291"><ele>108.0</ele><time>2026-04-25T05:32:50.999Z</time></trkpt><trkpt lat="45.86239355348375" lon="12.145763277583857"><ele>108.00000000000001</ele><time>2026-04-25T05:32:52.999Z</time></trkpt><trkpt lat="45.862414855555805" lon="12.145616706496686"><ele>108.00000000000001</ele><time>2026-04-25T05:32:54.999Z</time></trkpt><trkpt lat="45.86236420391428" lon="12.145497531520455"><ele>108.0</ele><time>2026-04-25T05:32:56.999Z</time></trkpt><trkpt lat="45.8623045893763" lon="12.145462834461526"><ele>108.0</ele><time>2026-04-25T05:32:57.999Z</time></trkpt><trkpt lat="45.862210311385866" lon="12.145369479366293"><ele>107.33333333333333</ele><time>2026-04-25T05:32:59.999Z</time></trkpt><trkpt lat="45.862124679806215" lon="12.14523978464285"><ele>106.66666666666666</ele><time>2026-04-25T05:33:01.999Z</time></trkpt><trkpt lat="45.8620797870914" lon="12.145174878795725"><ele>106.0</ele><time>2026-04-25T05:33:02.999Z</time></trkpt><trkpt lat="45.862032171992446" lon="12.145111598820314"><ele>105.33333333333333</ele><time>2026-04-25T05:33:03.999Z</time></trkpt><trkpt lat="45.861986243545694" lon="12.145046071937003"><ele>104.66666666666666</ele><time>2026-04-25T05:33:04.999Z</time></trkpt><trkpt lat="45.86194201752603" lon="12.144980613528322"><ele>104.0</ele><time>2026-04-25T05:33:05.999Z</time></trkpt><trkpt lat="45.86185178732476" lon="12.144856389500287"><ele>103.5</ele><time>2026-04-25T05:33:07.999Z</time></trkpt><trkpt lat="45.861763491037244" lon="12.144749016944282"><ele>103.0</ele><time>2026-04-25T05:33:09.999Z</time></trkpt><trkpt lat="45.86167829485195" lon="12.144630636667515"><ele>102.5</ele><time>2026-04-25T05:33:11.999Z</time></trkpt><trkpt lat="45.86159842834287" lon="12.144508777219398"><ele>102.0</ele><time>2026-04-25T05:33:13.999Z</time></trkpt><trkpt lat="45.861520367532925" lon="12.144385787497969"><ele>102.0</ele><time>2026-04-25T05:33:15.999Z</time></trkpt><trkpt lat="45.861449964513675" lon="12.144252886849104"><ele>102.0</ele><time>2026-04-25T05:33:17.999Z</time></trkpt><trkpt lat="45.861366698692" lon="12.144128473226463"><ele>102.0</ele><time>2026-04-25T05:33:20Z</time></trkpt><trkpt lat="45.86135726415223" lon="12.144025561632464"><ele>102.0</ele><time>2026-04-25T05:33:21Z</time></trkpt><trkpt lat="45.861308088774464" lon="12.14396618009602"><ele>102.0</ele><time>2026-04-25T05:33:22Z</time></trkpt><trkpt lat="45.861255569000576" lon="12.143817790504237"><ele>102.0</ele><time>2026-04-25T05:33:24Z</time></trkpt><trkpt lat="45.86123350185569" lon="12.143666743765104"><ele>102.0</ele><time>2026-04-25T05:33:26Z</time></trkpt><trkpt lat="45.86121694583228" lon="12.143517716797458"><ele>102.0</ele><time>2026-04-25T05:33:28Z</time></trkpt><trkpt lat="45.861205476059986" lon="12.14336182074539"><ele>102.0</ele><time>2026-04-25T05:33:30Z</time></trkpt><trkpt lat="45.861221863988455" lon="12.143207743431907"><ele>102.0</ele><time>2026-04-25T05:33:32Z</time></trkpt><trkpt lat="45.86125552075352" lon="12.143057565687263"><ele>102.5</ele><time>2026-04-25T05:33:34Z</time></trkpt><trkpt lat="45.861308259973626" lon="12.142902673727084"><ele>103.0</ele><time>2026-04-25T05:33:36Z</time></trkpt><trkpt lat="45.861367736834325" lon="12.142763513618291"><ele>103.5</ele><time>2026-04-25T05:33:38Z</time></trkpt><trkpt lat="45.86141803974903" lon="12.142624161583043"><ele>104.0</ele><time>2026-04-25T05:33:40Z</time></trkpt><trkpt lat="45.86147179562147" lon="12.142475485160821"><ele>104.2</ele><time>2026-04-25T05:33:42Z</time></trkpt><trkpt lat="45.861527081087836" lon="12.142331160730002"><ele>104.4</ele><time>2026-04-25T05:33:44Z</time></trkpt><trkpt lat="45.86157351867536" lon="12.142186838089957"><ele>104.6</ele><time>2026-04-25T05:33:46Z</time></trkpt><trkpt lat="45.861583670739364" lon="12.142031909540357"><ele>104.8</ele><time>2026-04-25T05:33:48Z</time></trkpt><trkpt lat="45.86156874548935" lon="12.1418813238472"><ele>105.0</ele><time>2026-04-25T05:33:50Z</time></trkpt><trkpt lat="45.861528032762365" lon="12.141734419428053"><ele>105.0</ele><time>2026-04-25T05:33:52Z</time></trkpt><trkpt lat="45.861501262297075" lon="12.141586630449217"><ele>105.0</ele><time>2026-04-25T05:33:54Z</time></trkpt><trkpt lat="45.86152259234672" lon="12.141448580259482"><ele>105.0</ele><time>2026-04-25T05:33:56Z</time></trkpt><trkpt lat="45.86154069715299" lon="12.141303094447732"><ele>105.0</ele><time>2026-04-25T05:33:58Z</time></trkpt><trkpt lat="45.86151811012183" lon="12.141152945333099"><ele>105.0</ele><time>2026-04-25T05:34:00Z</time></trkpt><trkpt lat="45.861501150277455" lon="12.141024524816855"><ele>105.0</ele><time>2026-04-25T05:34:02Z</time></trkpt><trkpt lat="45.86145830125241" lon="12.14090292895474"><ele>105.0</ele><time>2026-04-25T05:34:04Z</time></trkpt><trkpt lat="45.86136756175583" lon="12.140892880219411"><ele>105.0</ele><time>2026-04-25T05:34:06Z</time></trkpt><trkpt lat="45.86129790511355" lon="12.140974198945353"><ele>105.0</ele><time>2026-04-25T05:34:08Z</time></trkpt><trkpt lat="45.861200956659964" lon="12.14104417728477"><ele>105.0</ele><time>2026-04-25T05:34:10Z</time></trkpt><trkpt lat="45.86110795082509" lon="12.141137927934064"><ele>105.0</ele><time>2026-04-25T05:34:12Z</time></trkpt><trkpt lat="45.861016880854756" lon="12.141235708130436"><ele>105.0</ele><time>2026-04-25T05:34:14Z</time></trkpt><trkpt lat="45.860928276231064" lon="12.141309581150384"><ele>105.0</ele><time>2026-04-25T05:34:16Z</time></trkpt><trkpt lat="45.86084418767655" lon="12.141377706441087"><ele>105.0</ele><time>2026-04-25T05:34:17.999Z</time></trkpt><trkpt lat="45.86074533961512" lon="12.14142416959403"><ele>105.0</ele><time>2026-04-25T05:34:19.999Z</time></trkpt><trkpt lat="45.86063638934735" lon="12.141391537966015"><ele>105.0</ele><time>2026-04-25T05:34:21.999Z</time></trkpt><trkpt lat="45.86057592953183" lon="12.14135513187889"><ele>105.0</ele><time>2026-04-25T05:34:22.999Z</time></trkpt><trkpt lat="45.86050922393587" lon="12.141334439261039"><ele>105.0</ele><time>2026-04-25T05:34:23.999Z</time></trkpt><trkpt lat="45.86044209329188" lon="12.141319821718707"><ele>105.0</ele><time>2026-04-25T05:34:24.999Z</time></trkpt><trkpt lat="45.86032695782707" lon="12.141344266799372"><ele>105.0</ele><time>2026-04-25T05:34:26.999Z</time></trkpt><trkpt lat="45.860217577027534" lon="12.141394499493416"><ele>105.0</ele><time>2026-04-25T05:34:28.999Z</time></trkpt><trkpt lat="45.860105458717776" lon="12.141441412647321"><ele>104.4</ele><time>2026-04-25T05:34:30.999Z</time></trkpt><trkpt lat="45.8600014821114" lon="12.141507648034496"><ele>103.8</ele><time>2026-04-25T05:34:32.999Z</time></trkpt><trkpt lat="45.85990051707576" lon="12.141571965024633"><ele>103.19999999999999</ele><time>2026-04-25T05:34:34.999Z</time></trkpt><trkpt lat="45.85979506483227" lon="12.14164172079274"><ele>102.6</ele><time>2026-04-25T05:34:36.999Z</time></trkpt><trkpt lat="45.85970285817249" lon="12.141702660235074"><ele>102.0</ele><time>2026-04-25T05:34:38.999Z</time></trkpt><trkpt lat="45.85963794044902" lon="12.141745564425444"><ele>101.83333333333333</ele><time>2026-04-25T05:34:40.999Z</time></trkpt><trkpt lat="45.85957148288261" lon="12.141789030903018"><ele>101.66666666666666</ele><time>2026-04-25T05:34:43.999Z</time></trkpt><trkpt lat="45.859488126697535" lon="12.141842978520321"><ele>101.5</ele><time>2026-04-25T05:34:46.999Z</time></trkpt><trkpt lat="45.8594293743961" lon="12.141918048897574"><ele>101.33333333333333</ele><time>2026-04-25T05:34:49.999Z</time></trkpt><trkpt lat="45.85935692893962" lon="12.141953729331162"><ele>101.16666666666666</ele><time>2026-04-25T05:34:52.999Z</time></trkpt><trkpt lat="45.85929564781796" lon="12.142007358118518"><ele>101.0</ele><time>2026-04-25T05:34:55.999Z</time></trkpt><trkpt lat="45.85923316817673" lon="12.1420367875589"><ele>101.49999999999999</ele><time>2026-04-25T05:34:58.999Z</time></trkpt><trkpt lat="45.85916714436513" lon="12.142058956262712"><ele>102.0</ele><time>2026-04-25T05:35:01.999Z</time></trkpt><trkpt lat="45.85909487430788" lon="12.142084862734217"><ele>102.5</ele><time>2026-04-25T05:35:11.999Z</time></trkpt><trkpt lat="45.859027630339355" lon="12.142118826430648"><ele>103.0</ele><time>2026-04-25T05:35:15.999Z</time></trkpt><trkpt lat="45.85895218055007" lon="12.142136185415996"><ele>103.49999999999999</ele><time>2026-04-25T05:35:18.999Z</time></trkpt><trkpt lat="45.85886601379138" lon="12.14210965925542"><ele>104.0</ele><time>2026-04-25T05:35:21.999Z</time></trkpt><trkpt lat="45.858789522280006" lon="12.14204755041198"><ele>103.99999999999999</ele><time>2026-04-25T05:35:25Z</time></trkpt><trkpt lat="45.85870651333774" lon="12.142010286779561"><ele>104.0</ele><time>2026-04-25T05:35:27Z</time></trkpt><trkpt lat="45.85862029847457" lon="12.141988700064932"><ele>104.0</ele><time>2026-04-25T05:35:29Z</time></trkpt><trkpt lat="45.85853021122455" lon="12.141986952113426"><ele>104.0</ele><time>2026-04-25T05:35:31Z</time></trkpt><trkpt lat="45.85843715737653" lon="12.142002721605833"><ele>103.99999999999999</ele><time>2026-04-25T05:35:33Z</time></trkpt><trkpt lat="45.85834723827259" lon="12.142018014785135"><ele>104.0</ele><time>2026-04-25T05:35:35Z</time></trkpt><trkpt lat="45.8582513766693" lon="12.142027911887801"><ele>103.4</ele><time>2026-04-25T05:35:37Z</time></trkpt><trkpt lat="45.85815923496532" lon="12.142056549624998"><ele>102.80000000000001</ele><time>2026-04-25T05:35:39Z</time></trkpt><trkpt lat="45.85805345955133" lon="12.142072874588253"><ele>102.19999999999999</ele><time>2026-04-25T05:35:41Z</time></trkpt><trkpt lat="45.85794813123956" lon="12.142073156376965"><ele>101.6</ele><time>2026-04-25T05:35:43Z</time></trkpt><trkpt lat="45.85784552892223" lon="12.142110176178194"><ele>101.0</ele><time>2026-04-25T05:35:45Z</time></trkpt><trkpt lat="45.85774082050689" lon="12.142128300787656"><ele>101.0</ele><time>2026-04-25T05:35:47Z</time></trkpt><trkpt lat="45.857645133916996" lon="12.142146193329511"><ele>101.0</ele><time>2026-04-25T05:35:49Z</time></trkpt><trkpt lat="45.85755571354955" lon="12.142162393410999"><ele>101.0</ele><time>2026-04-25T05:35:51Z</time></trkpt><trkpt lat="45.85746580861125" lon="12.14218775824253"><ele>101.0</ele><time>2026-04-25T05:35:53Z</time></trkpt><trkpt lat="45.857368384572965" lon="12.142190441217997"><ele>101.0</ele><time>2026-04-25T05:35:55Z</time></trkpt><trkpt lat="45.85727112513996" lon="12.1422370215724"><ele>100.83333333333333</ele><time>2026-04-25T05:35:57Z</time></trkpt><trkpt lat="45.857173547693925" lon="12.142251110376604"><ele>100.66666666666666</ele><time>2026-04-25T05:35:59Z</time></trkpt><trkpt lat="45.85707749626612" lon="12.142248039143526"><ele>100.5</ele><time>2026-04-25T05:36:01Z</time></trkpt><trkpt lat="45.8570131906346" lon="12.142253924733671"><ele>100.33333333333334</ele><time>2026-04-25T05:36:04Z</time></trkpt><trkpt lat="45.857007734754504" lon="12.142110191482764"><ele>100.16666666666667</ele><time>2026-04-25T05:36:06Z</time></trkpt><trkpt lat="45.85700077130509" lon="12.141998079847573"><ele>100.0</ele><time>2026-04-25T05:36:08Z</time></trkpt><trkpt lat="45.85698352762984" lon="12.141881242094355"><ele>100.00000000000001</ele><time>2026-04-25T05:36:10Z</time></trkpt><trkpt lat="45.85696829834059" lon="12.141764331771682"><ele>100.0</ele><time>2026-04-25T05:36:12Z</time></trkpt><trkpt lat="45.8569489314892" lon="12.141650086055167"><ele>100.0</ele><time>2026-04-25T05:36:14Z</time></trkpt><trkpt lat="45.85693710672258" lon="12.141532534942037"><ele>100.0</ele><time>2026-04-25T05:36:16Z</time></trkpt><trkpt lat="45.85691345518617" lon="12.141416136275575"><ele>100.00000000000001</ele><time>2026-04-25T05:36:18Z</time></trkpt><trkpt lat="45.85690827157661" lon="12.141282131750527"><ele>100.0</ele><time>2026-04-25T05:36:20Z</time></trkpt><trkpt lat="45.85689737470131" lon="12.141146629343003"><ele>100.0</ele><time>2026-04-25T05:36:21.999Z</time></trkpt><trkpt lat="45.85687756695952" lon="12.141013066634155"><ele>100.0</ele><time>2026-04-25T05:36:23.999Z</time></trkpt><trkpt lat="45.85685526433926" lon="12.140878684191929"><ele>100.0</ele><time>2026-04-25T05:36:25.999Z</time></trkpt><trkpt lat="45.85684342421976" lon="12.140737300511887"><ele>100.0</ele><time>2026-04-25T05:36:27.999Z</time></trkpt><trkpt lat="45.85681970435671" lon="12.140594769383318"><ele>100.0</ele><time>2026-04-25T05:36:29.999Z</time></trkpt><trkpt lat="45.85679601278595" lon="12.140444963472952"><ele>100.6</ele><time>2026-04-25T05:36:31.999Z</time></trkpt><trkpt lat="45.85678382191562" lon="12.140295618975262"><ele>101.2</ele><time>2026-04-25T05:36:33.999Z</time></trkpt><trkpt lat="45.8567701786627" lon="12.140161097817414"><ele>101.80000000000001</ele><time>2026-04-25T05:36:35.999Z</time></trkpt><trkpt lat="45.85675140343775" lon="12.140019408591405"><ele>102.4</ele><time>2026-04-25T05:36:37.999Z</time></trkpt><trkpt lat="45.85671666954306" lon="12.139889394420871"><ele>103.0</ele><time>2026-04-25T05:36:39.999Z</time></trkpt><trkpt lat="45.856693537119305" lon="12.139746805275427"><ele>103.00000000000001</ele><time>2026-04-25T05:36:41.999Z</time></trkpt><trkpt lat="45.85667381787766" lon="12.139600237533932"><ele>103.0</ele><time>2026-04-25T05:36:43.999Z</time></trkpt><trkpt lat="45.85664390457381" lon="12.139477951943553"><ele>103.0</ele><time>2026-04-25T05:36:45.999Z</time></trkpt><trkpt lat="45.856645000755485" lon="12.139381952369327"><ele>103.0</ele><time>2026-04-25T05:36:59.999Z</time></trkpt><trkpt lat="45.856663960717704" lon="12.139280065782833"><ele>103.00000000000001</ele><time>2026-04-25T05:37:16.999Z</time></trkpt><trkpt lat="45.856661712562385" lon="12.139172722567844"><ele>103.0</ele><time>2026-04-25T05:37:19.999Z</time></trkpt><trkpt lat="45.85665957694577" lon="12.13907266651769"><ele>102.71428571428571</ele><time>2026-04-25T05:37:22.999Z</time></trkpt><trkpt lat="45.85664848296401" lon="12.138975211907665"><ele>102.42857142857143</ele><time>2026-04-25T05:37:25.999Z</time></trkpt><trkpt lat="45.8566451581909" lon="12.138880366555947"><ele>102.14285714285714</ele><time>2026-04-25T05:37:32Z</time></trkpt><trkpt lat="45.85663510632387" lon="12.138755768741833"><ele>101.85714285714286</ele><time>2026-04-25T05:37:36Z</time></trkpt><trkpt lat="45.85662608298935" lon="12.138666151602829"><ele>101.57142857142857</ele><time>2026-04-25T05:37:38Z</time></trkpt><trkpt lat="45.85662307078813" lon="12.138568695290765"><ele>101.28571428571428</ele><time>2026-04-25T05:37:40Z</time></trkpt><trkpt lat="45.856604733497775" lon="12.138453831958106"><ele>101.0</ele><time>2026-04-25T05:37:43Z</time></trkpt><trkpt lat="45.856588361130314" lon="12.138333118975417"><ele>101.14285714285714</ele><time>2026-04-25T05:37:46Z</time></trkpt><trkpt lat="45.85658199146985" lon="12.138198911399561"><ele>101.28571428571428</ele><time>2026-04-25T05:37:49Z</time></trkpt><trkpt lat="45.856570635573505" lon="12.138108045105202"><ele>101.42857142857143</ele><time>2026-04-25T05:37:51Z</time></trkpt><trkpt lat="45.85655835997804" lon="12.138013857340017"><ele>101.57142857142857</ele><time>2026-04-25T05:37:53Z</time></trkpt><trkpt lat="45.8565491258084" lon="12.137913547769585"><ele>101.71428571428572</ele><time>2026-04-25T05:37:55Z</time></trkpt><trkpt lat="45.85654096733669" lon="12.13780638676813"><ele>101.85714285714286</ele><time>2026-04-25T05:37:57Z</time></trkpt><trkpt lat="45.85653158027501" lon="12.137704423197597"><ele>102.0</ele><time>2026-04-25T05:37:59Z</time></trkpt><trkpt lat="45.856523591477156" lon="12.13759778104318"><ele>102.0</ele><time>2026-04-25T05:38:01Z</time></trkpt><trkpt lat="45.856518798920256" lon="12.137499509726567"><ele>102.0</ele><time>2026-04-25T05:38:03Z</time></trkpt><trkpt lat="45.85651091281487" lon="12.137395024095797"><ele>102.0</ele><time>2026-04-25T05:38:05Z</time></trkpt><trkpt lat="45.85650255230949" lon="12.137301708231723"><ele>102.0</ele><time>2026-04-25T05:38:07Z</time></trkpt><trkpt lat="45.85649222771338" lon="12.137195848002786"><ele>102.0</ele><time>2026-04-25T05:38:10Z</time></trkpt><trkpt lat="45.856480426486904" lon="12.137055576995166"><ele>102.0</ele><time>2026-04-25T05:38:12Z</time></trkpt><trkpt lat="45.85644569415227" lon="12.13696800848871"><ele>101.85714285714286</ele><time>2026-04-25T05:38:14Z</time></trkpt><trkpt lat="45.85639002955499" lon="12.136922937162511"><ele>101.71428571428572</ele><time>2026-04-25T05:38:16Z</time></trkpt><trkpt lat="45.856333697516085" lon="12.136870005169792"><ele>101.57142857142857</ele><time>2026-04-25T05:38:19Z</time></trkpt><trkpt lat="45.85626141483558" lon="12.1368832136184"><ele>101.42857142857143</ele><time>2026-04-25T05:38:26Z</time></trkpt><trkpt lat="45.856178552808274" lon="12.136860276193001"><ele>101.28571428571428</ele><time>2026-04-25T05:39:15.999Z</time></trkpt><trkpt lat="45.85610753487917" lon="12.136890504155609"><ele>101.14285714285714</ele><time>2026-04-25T05:39:17.999Z</time></trkpt><trkpt lat="45.856034567783844" lon="12.1369306431488"><ele>101.0</ele><time>2026-04-25T05:39:19.999Z</time></trkpt><trkpt lat="45.855953078284166" lon="12.136990467696734"><ele>101.66666666666666</ele><time>2026-04-25T05:39:21.999Z</time></trkpt><trkpt lat="45.85586596709187" lon="12.137031797746593"><ele>102.33333333333333</ele><time>2026-04-25T05:39:23.999Z</time></trkpt><trkpt lat="45.85577827374157" lon="12.137055023003462"><ele>103.0</ele><time>2026-04-25T05:39:25.999Z</time></trkpt><trkpt lat="45.85570026189416" lon="12.137074030300933"><ele>103.66666666666666</ele><time>2026-04-25T05:39:27.999Z</time></trkpt><trkpt lat="45.855623184780534" lon="12.137062406750594"><ele>104.33333333333333</ele><time>2026-04-25T05:39:29.999Z</time></trkpt><trkpt lat="45.85556874636581" lon="12.136983801592008"><ele>105.0</ele><time>2026-04-25T05:39:31.999Z</time></trkpt><trkpt lat="45.855558375673105" lon="12.136852854680415"><ele>105.0</ele><time>2026-04-25T05:39:33.999Z</time></trkpt><trkpt lat="45.85549598015521" lon="12.136773676441736"><ele>105.0</ele><time>2026-04-25T05:39:36.999Z</time></trkpt><trkpt lat="45.85541631416839" lon="12.136736697248853"><ele>105.0</ele><time>2026-04-25T05:39:40.999Z</time></trkpt><trkpt lat="45.85532620552903" lon="12.13668162603387"><ele>105.0</ele><time>2026-04-25T05:39:43.999Z</time></trkpt><trkpt lat="45.85525913176054" lon="12.136569460261681"><ele>105.0</ele><time>2026-04-25T05:39:45.999Z</time></trkpt><trkpt lat="45.85522253209951" lon="12.136462780402852"><ele>104.5</ele><time>2026-04-25T05:39:47.999Z</time></trkpt><trkpt lat="45.855163622737166" lon="12.136350512609368"><ele>104.0</ele><time>2026-04-25T05:39:49.999Z</time></trkpt><trkpt lat="45.85513580293414" lon="12.136247942970522"><ele>103.5</ele><time>2026-04-25T05:39:51.999Z</time></trkpt><trkpt lat="45.85511440928049" lon="12.136146385000131"><ele>103.0</ele><time>2026-04-25T05:39:53.999Z</time></trkpt><trkpt lat="45.855101132571235" lon="12.136029689842506"><ele>102.5</ele><time>2026-04-25T05:39:55.999Z</time></trkpt><trkpt lat="45.855114675106876" lon="12.135934056645555"><ele>102.0</ele><time>2026-04-25T05:39:58.999Z</time></trkpt><trkpt lat="45.85513546094048" lon="12.13581408335534"><ele>101.83333333333333</ele><time>2026-04-25T05:39:59.999Z</time></trkpt><trkpt lat="45.85516347271753" lon="12.135688133380414"><ele>101.66666666666666</ele><time>2026-04-25T05:40:00.999Z</time></trkpt><trkpt lat="45.855178413398825" lon="12.135542727570058"><ele>101.5</ele><time>2026-04-25T05:40:02.999Z</time></trkpt><trkpt lat="45.8551697964397" lon="12.135399554604438"><ele>101.33333333333333</ele><time>2026-04-25T05:40:04.999Z</time></trkpt><trkpt lat="45.85516123393428" lon="12.13527970199286"><ele>101.16666666666666</ele><time>2026-04-25T05:40:06.999Z</time></trkpt><trkpt lat="45.85517379641039" lon="12.13518145638431"><ele>101.0</ele><time>2026-04-25T05:40:08.999Z</time></trkpt><trkpt lat="45.85525079823139" lon="12.135115190083406"><ele>101.0</ele><time>2026-04-25T05:40:10.999Z</time></trkpt><trkpt lat="45.85533792188919" lon="12.135061230842872"><ele>101.0</ele><time>2026-04-25T05:40:12.999Z</time></trkpt><trkpt lat="45.855400426880244" lon="12.134955967761595"><ele>101.0</ele><time>2026-04-25T05:40:14.999Z</time></trkpt><trkpt lat="45.85538194446048" lon="12.13481554198993"><ele>101.0</ele><time>2026-04-25T05:40:16.999Z</time></trkpt><trkpt lat="45.85537424240178" lon="12.134699399963878"><ele>101.0</ele><time>2026-04-25T05:40:18.999Z</time></trkpt><trkpt lat="45.855327222225206" lon="12.134588494062335"><ele>101.0</ele><time>2026-04-25T05:40:20.999Z</time></trkpt><trkpt lat="45.855302147176424" lon="12.134446350176676"><ele>101.0</ele><time>2026-04-25T05:40:22.999Z</time></trkpt><trkpt lat="45.85525646203729" lon="12.134336050822983"><ele>101.0</ele><time>2026-04-25T05:40:24.999Z</time></trkpt><trkpt lat="45.855219893826366" lon="12.13420493573313"><ele>101.0</ele><time>2026-04-25T05:40:26.999Z</time></trkpt><trkpt lat="45.8551836947346" lon="12.134078505388432"><ele>101.0</ele><time>2026-04-25T05:40:28.999Z</time></trkpt><trkpt lat="45.855142318061816" lon="12.13396432737189"><ele>101.0</ele><time>2026-04-25T05:40:30.999Z</time></trkpt><trkpt lat="45.85510132460725" lon="12.13384123619672"><ele>101.0</ele><time>2026-04-25T05:40:32.999Z</time></trkpt><trkpt lat="45.85505686711263" lon="12.133717751350094"><ele>101.0</ele><time>2026-04-25T05:40:34.999Z</time></trkpt><trkpt lat="45.855019986181446" lon="12.133594368739166"><ele>101.0</ele><time>2026-04-25T05:40:36.999Z</time></trkpt><trkpt lat="45.85497954071538" lon="12.13348387952118"><ele>101.0</ele><time>2026-04-25T05:40:38.999Z</time></trkpt><trkpt lat="45.85502347768502" lon="12.133375002251912"><ele>101.0</ele><time>2026-04-25T05:40:41.999Z</time></trkpt><trkpt lat="45.8550851144496" lon="12.133352673866987"><ele>101.0</ele><time>2026-04-25T05:40:43.999Z</time></trkpt><trkpt lat="45.8552493032077" lon="12.133224330700491"><ele>101.0</ele><time>2026-04-25T05:40:45.999Z</time></trkpt><trkpt lat="45.85534990034296" lon="12.133184187800389"><ele>101.0</ele><time>2026-04-25T05:40:47.999Z</time></trkpt><trkpt lat="45.85539829521504" lon="12.133077751851367"><ele>101.0</ele><time>2026-04-25T05:40:49.999Z</time></trkpt><trkpt lat="45.85534081787484" lon="12.132975590489174"><ele>101.6</ele><time>2026-04-25T05:40:51.999Z</time></trkpt><trkpt lat="45.85529752035381" lon="12.13284692438495"><ele>102.19999999999999</ele><time>2026-04-25T05:40:53.999Z</time></trkpt><trkpt lat="45.85526091660605" lon="12.132709382911873"><ele>102.80000000000001</ele><time>2026-04-25T05:40:55.999Z</time></trkpt><trkpt lat="45.85522110161066" lon="12.132581954723475"><ele>103.4</ele><time>2026-04-25T05:40:57.999Z</time></trkpt><trkpt lat="45.85518162137614" lon="12.132453378742849"><ele>104.0</ele><time>2026-04-25T05:40:59.999Z</time></trkpt><trkpt lat="45.855130141340375" lon="12.132319846728391"><ele>104.4</ele><time>2026-04-25T05:41:01.999Z</time></trkpt><trkpt lat="45.85508659134284" lon="12.132181701850275"><ele>104.80000000000001</ele><time>2026-04-25T05:41:03.999Z</time></trkpt><trkpt lat="45.85504897545626" lon="12.13205269367902"><ele>105.19999999999999</ele><time>2026-04-25T05:41:05.999Z</time></trkpt><trkpt lat="45.855003502270655" lon="12.131902451654106"><ele>105.6</ele><time>2026-04-25T05:41:07.999Z</time></trkpt><trkpt lat="45.8549547185728" lon="12.131756002724009"><ele>106.0</ele><time>2026-04-25T05:41:09.999Z</time></trkpt><trkpt lat="45.85494395553163" lon="12.131666247222343"><ele>105.8</ele><time>2026-04-25T05:41:10.999Z</time></trkpt><trkpt lat="45.85490573409861" lon="12.131522004681965"><ele>105.6</ele><time>2026-04-25T05:41:12.999Z</time></trkpt><trkpt lat="45.85487982246173" lon="12.131370899393122"><ele>105.4</ele><time>2026-04-25T05:41:14.999Z</time></trkpt><trkpt lat="45.85497446145488" lon="12.131288216680348"><ele>105.2</ele><time>2026-04-25T05:41:16.999Z</time></trkpt><trkpt lat="45.85507266769376" lon="12.131252818906209"><ele>105.0</ele><time>2026-04-25T05:41:18.999Z</time></trkpt><trkpt lat="45.855170099715615" lon="12.131180209954438"><ele>105.25</ele><time>2026-04-25T05:41:20.999Z</time></trkpt><trkpt lat="45.855284171387964" lon="12.131111350658598"><ele>105.5</ele><time>2026-04-25T05:41:24.999Z</time></trkpt><trkpt lat="45.85544437133997" lon="12.130921063103148"><ele>105.75</ele><time>2026-04-25T05:41:26.999Z</time></trkpt><trkpt lat="45.85552796712739" lon="12.130827664185285"><ele>106.0</ele><time>2026-04-25T05:41:28.999Z</time></trkpt><trkpt lat="45.85558974027121" lon="12.130703670612379"><ele>106.0</ele><time>2026-04-25T05:41:30.999Z</time></trkpt><trkpt lat="45.8556031492106" lon="12.130571417610787"><ele>106.0</ele><time>2026-04-25T05:41:32.999Z</time></trkpt><trkpt lat="45.8555772209887" lon="12.130427964979065"><ele>106.0</ele><time>2026-04-25T05:41:34.999Z</time></trkpt><trkpt lat="45.85551654745968" lon="12.130294992337937"><ele>106.0</ele><time>2026-04-25T05:41:36.999Z</time></trkpt><trkpt lat="45.855471364878376" lon="12.130168191977264"><ele>106.0</ele><time>2026-04-25T05:41:38.999Z</time></trkpt><trkpt lat="45.855421061539005" lon="12.13003958431761"><ele>106.0</ele><time>2026-04-25T05:41:40.999Z</time></trkpt><trkpt lat="45.85538152952924" lon="12.129904599402996"><ele>106.0</ele><time>2026-04-25T05:41:42.999Z</time></trkpt><trkpt lat="45.85531846846912" lon="12.129792414465381"><ele>106.0</ele><time>2026-04-25T05:41:44.999Z</time></trkpt><trkpt lat="45.855278388747074" lon="12.129664988406647"><ele>106.0</ele><time>2026-04-25T05:41:46.999Z</time></trkpt><trkpt lat="45.85522238183401" lon="12.129523039256881"><ele>106.0</ele><time>2026-04-25T05:41:48.999Z</time></trkpt><trkpt lat="45.85517165404889" lon="12.12938948669899"><ele>106.0</ele><time>2026-04-25T05:41:50.999Z</time></trkpt><trkpt lat="45.855120382951455" lon="12.129248666056284"><ele>106.0</ele><time>2026-04-25T05:41:52.999Z</time></trkpt><trkpt lat="45.85506459239868" lon="12.129106396403735"><ele>106.0</ele><time>2026-04-25T05:41:54.999Z</time></trkpt><trkpt lat="45.855025052331754" lon="12.128959355080744"><ele>106.0</ele><time>2026-04-25T05:41:56.999Z</time></trkpt><trkpt lat="45.85497735601262" lon="12.128832381296396"><ele>106.0</ele><time>2026-04-25T05:41:58.999Z</time></trkpt><trkpt lat="45.85491895399104" lon="12.128714036576744"><ele>106.0</ele><time>2026-04-25T05:42:01.999Z</time></trkpt><trkpt lat="45.85489840988514" lon="12.128626951878562"><ele>106.0</ele><time>2026-04-25T05:42:05.999Z</time></trkpt><trkpt lat="45.854779308876196" lon="12.128677712506368"><ele>106.0</ele><time>2026-04-25T05:42:06.999Z</time></trkpt><trkpt lat="45.85470677257233" lon="12.128748900665235"><ele>106.0</ele><time>2026-04-25T05:42:08.999Z</time></trkpt><trkpt lat="45.85460045963943" lon="12.128789865857188"><ele>106.0</ele><time>2026-04-25T05:42:10.999Z</time></trkpt><trkpt lat="45.85450398751551" lon="12.128852688229792"><ele>106.0</ele><time>2026-04-25T05:42:12.999Z</time></trkpt><trkpt lat="45.854405798398716" lon="12.128910949905105"><ele>106.0</ele><time>2026-04-25T05:42:14.999Z</time></trkpt><trkpt lat="45.85430908026305" lon="12.128972062466726"><ele>106.0</ele><time>2026-04-25T05:42:16.999Z</time></trkpt><trkpt lat="45.85420621067471" lon="12.129031948445613"><ele>106.0</ele><time>2026-04-25T05:42:18.999Z</time></trkpt><trkpt lat="45.85409838106524" lon="12.12909730562906"><ele>106.0</ele><time>2026-04-25T05:42:20.999Z</time></trkpt><trkpt lat="45.853988257642165" lon="12.129171630573694"><ele>106.0</ele><time>2026-04-25T05:42:22.999Z</time></trkpt><trkpt lat="45.853887664955856" lon="12.1292532410605"><ele>106.0</ele><time>2026-04-25T05:42:24.999Z</time></trkpt><trkpt lat="45.85383042042634" lon="12.129291938780526"><ele>106.0</ele><time>2026-04-25T05:42:25.999Z</time></trkpt><trkpt lat="45.85372148440681" lon="12.12936271013177"><ele>106.0</ele><time>2026-04-25T05:42:27.999Z</time></trkpt><trkpt lat="45.85360975802716" lon="12.129412798863473"><ele>106.0</ele><time>2026-04-25T05:42:29.999Z</time></trkpt><trkpt lat="45.853511179397564" lon="12.129499168017652"><ele>105.5</ele><time>2026-04-25T05:42:31.999Z</time></trkpt><trkpt lat="45.853398647850845" lon="12.129563697573593"><ele>105.0</ele><time>2026-04-25T05:42:33.999Z</time></trkpt><trkpt lat="45.85329056268699" lon="12.129610715822126"><ele>104.5</ele><time>2026-04-25T05:42:35.999Z</time></trkpt><trkpt lat="45.85317848981974" lon="12.129675071655031"><ele>104.0</ele><time>2026-04-25T05:42:37.999Z</time></trkpt><trkpt lat="45.853069031708074" lon="12.129727506354048"><ele>104.0</ele><time>2026-04-25T05:42:39.999Z</time></trkpt><trkpt lat="45.85295862391407" lon="12.129782521985991"><ele>104.0</ele><time>2026-04-25T05:42:41.999Z</time></trkpt><trkpt lat="45.8528467563538" lon="12.129839597745397"><ele>104.0</ele><time>2026-04-25T05:42:43.999Z</time></trkpt><trkpt lat="45.85273839865061" lon="12.129893504415682"><ele>104.0</ele><time>2026-04-25T05:42:45.999Z</time></trkpt><trkpt lat="45.852627242849984" lon="12.1299482424963"><ele>103.80000000000001</ele><time>2026-04-25T05:42:47.999Z</time></trkpt><trkpt lat="45.85253153301381" lon="12.130003937780986"><ele>103.60000000000001</ele><time>2026-04-25T05:42:49.999Z</time></trkpt><trkpt lat="45.85244140366379" lon="12.130036840736802"><ele>103.4</ele><time>2026-04-25T05:42:51.999Z</time></trkpt><trkpt lat="45.852328215354035" lon="12.129978111089605"><ele>103.2</ele><time>2026-04-25T05:42:53.999Z</time></trkpt><trkpt lat="45.85229928471295" lon="12.129851908331764"><ele>103.0</ele><time>2026-04-25T05:42:55.999Z</time></trkpt><trkpt lat="45.85225762426446" lon="12.129718319438096"><ele>103.0</ele><time>2026-04-25T05:42:57.999Z</time></trkpt><trkpt lat="45.852172454349464" lon="12.129648414317069"><ele>103.0</ele><time>2026-04-25T05:42:59.999Z</time></trkpt><trkpt lat="45.85207054533814" lon="12.129611902470591"><ele>103.0</ele><time>2026-04-25T05:43:01.999Z</time></trkpt><trkpt lat="45.85195733404334" lon="12.129566635506736"><ele>103.0</ele><time>2026-04-25T05:43:03.999Z</time></trkpt><trkpt lat="45.85184148293336" lon="12.12952008515816"><ele>103.0</ele><time>2026-04-25T05:43:05.999Z</time></trkpt><trkpt lat="45.85172903623906" lon="12.129479100322817"><ele>102.75</ele><time>2026-04-25T05:43:07.999Z</time></trkpt><trkpt lat="45.85161042511413" lon="12.12943231823294"><ele>102.5</ele><time>2026-04-25T05:43:09.999Z</time></trkpt><trkpt lat="45.85149477451398" lon="12.129375967980552"><ele>102.25</ele><time>2026-04-25T05:43:11.999Z</time></trkpt><trkpt lat="45.85138476833619" lon="12.129319053099598"><ele>102.0</ele><time>2026-04-25T05:43:13.999Z</time></trkpt><trkpt lat="45.85127308828443" lon="12.129265425214744"><ele>102.0</ele><time>2026-04-25T05:43:15.999Z</time></trkpt><trkpt lat="45.85117999890387" lon="12.129244607969415"><ele>102.0</ele><time>2026-04-25T05:43:17.999Z</time></trkpt><trkpt lat="45.851100133750684" lon="12.129254478536811"><ele>102.0</ele><time>2026-04-25T05:43:19.999Z</time></trkpt><trkpt lat="45.851051237723745" lon="12.12934437815285"><ele>102.0</ele><time>2026-04-25T05:43:21.999Z</time></trkpt><trkpt lat="45.85105941757382" lon="12.129496707557358"><ele>102.0</ele><time>2026-04-25T05:43:23.999Z</time></trkpt><trkpt lat="45.85104185521768" lon="12.129614286384717"><ele>102.0</ele><time>2026-04-25T05:43:27.999Z</time></trkpt><trkpt lat="45.85098801355095" lon="12.129679701339981"><ele>102.0</ele><time>2026-04-25T05:43:29.999Z</time></trkpt><trkpt lat="45.850927287569824" lon="12.129737854603446"><ele>102.0</ele><time>2026-04-25T05:43:30.999Z</time></trkpt><trkpt lat="45.850843542933454" lon="12.129702642736428"><ele>102.0</ele><time>2026-04-25T05:43:32.999Z</time></trkpt><trkpt lat="45.8508139184922" lon="12.129582238143994"><ele>102.0</ele><time>2026-04-25T05:43:34.999Z</time></trkpt><trkpt lat="45.85077753787808" lon="12.129462106755643"><ele>102.0</ele><time>2026-04-25T05:43:36.999Z</time></trkpt><trkpt lat="45.85075531368916" lon="12.129354016734421"><ele>102.0</ele><time>2026-04-25T05:43:39.999Z</time></trkpt><trkpt lat="45.85069444196646" lon="12.129123364339344"><ele>102.8</ele><time>2026-04-25T05:43:41.999Z</time></trkpt><trkpt lat="45.850657490466304" lon="12.128984054340762"><ele>103.6</ele><time>2026-04-25T05:43:43.999Z</time></trkpt><trkpt lat="45.850644876801674" lon="12.128839761754534"><ele>104.39999999999999</ele><time>2026-04-25T05:43:45.999Z</time></trkpt><trkpt lat="45.850656668291464" lon="12.128740337685949"><ele>105.19999999999999</ele><time>2026-04-25T05:43:46.999Z</time></trkpt><trkpt lat="45.85069430843325" lon="12.128615669127234"><ele>106.0</ele><time>2026-04-25T05:43:48.999Z</time></trkpt><trkpt lat="45.85070356940661" lon="12.128469027691956"><ele>106.0</ele><time>2026-04-25T05:43:50.999Z</time></trkpt><trkpt lat="45.85067210704848" lon="12.128301866930638"><ele>106.0</ele><time>2026-04-25T05:43:52.999Z</time></trkpt><trkpt lat="45.85063736352642" lon="12.128142982415483"><ele>106.0</ele><time>2026-04-25T05:43:54.999Z</time></trkpt><trkpt lat="45.850607838599814" lon="12.127982763736933"><ele>106.0</ele><time>2026-04-25T05:43:56.999Z</time></trkpt><trkpt lat="45.85058117821275" lon="12.127832435576531"><ele>105.8</ele><time>2026-04-25T05:43:58.999Z</time></trkpt><trkpt lat="45.850532088379374" lon="12.127682288111265"><ele>105.6</ele><time>2026-04-25T05:44:00.999Z</time></trkpt><trkpt lat="45.85046045268079" lon="12.127546334465315"><ele>105.4</ele><time>2026-04-25T05:44:02.999Z</time></trkpt><trkpt lat="45.85039103975017" lon="12.1274333920259"><ele>105.2</ele><time>2026-04-25T05:44:04.999Z</time></trkpt><trkpt lat="45.850333284698614" lon="12.127309935802518"><ele>105.0</ele><time>2026-04-25T05:44:06.999Z</time></trkpt><trkpt lat="45.85032557494257" lon="12.127217439614235"><ele>104.8</ele><time>2026-04-25T05:44:07.999Z</time></trkpt><trkpt lat="45.85033960973568" lon="12.127057723691587"><ele>104.6</ele><time>2026-04-25T05:44:09.999Z</time></trkpt><trkpt lat="45.85034586738274" lon="12.126900167744052"><ele>104.4</ele><time>2026-04-25T05:44:11.999Z</time></trkpt><trkpt lat="45.850350444993055" lon="12.126742055876086"><ele>104.2</ele><time>2026-04-25T05:44:13.999Z</time></trkpt><trkpt lat="45.8503568946972" lon="12.126584613981738"><ele>104.0</ele><time>2026-04-25T05:44:15.999Z</time></trkpt><trkpt lat="45.85035045247954" lon="12.126415747680467"><ele>104.0</ele><time>2026-04-25T05:44:17.999Z</time></trkpt><trkpt lat="45.8503630521095" lon="12.126254506634321"><ele>104.0</ele><time>2026-04-25T05:44:19.999Z</time></trkpt><trkpt lat="45.850368335352634" lon="12.126088206489174"><ele>104.0</ele><time>2026-04-25T05:44:21.999Z</time></trkpt><trkpt lat="45.850370202617015" lon="12.12592419567952"><ele>104.0</ele><time>2026-04-25T05:44:23.999Z</time></trkpt><trkpt lat="45.85035541068198" lon="12.125760786653341"><ele>104.25</ele><time>2026-04-25T05:44:25.999Z</time></trkpt><trkpt lat="45.85035331072056" lon="12.125589756596113"><ele>104.5</ele><time>2026-04-25T05:44:27.999Z</time></trkpt><trkpt lat="45.85031093638914" lon="12.125433226760785"><ele>104.75</ele><time>2026-04-25T05:44:29.999Z</time></trkpt><trkpt lat="45.85029479588262" lon="12.125284236359546"><ele>105.0</ele><time>2026-04-25T05:44:31.999Z</time></trkpt><trkpt lat="45.85025652358425" lon="12.125123676049286"><ele>105.0</ele><time>2026-04-25T05:44:33.999Z</time></trkpt><trkpt lat="45.8502088497601" lon="12.124971429192763"><ele>105.0</ele><time>2026-04-25T05:44:35.999Z</time></trkpt><trkpt lat="45.850115100001254" lon="12.124864075237653"><ele>105.0</ele><time>2026-04-25T05:44:37.999Z</time></trkpt><trkpt lat="45.85005510955698" lon="12.124834035390693"><ele>105.0</ele><time>2026-04-25T05:44:38.999Z</time></trkpt><trkpt lat="45.84994376578246" lon="12.124772330865252"><ele>105.0</ele><time>2026-04-25T05:44:40.999Z</time></trkpt><trkpt lat="45.84984629893002" lon="12.1247036240304"><ele>105.0</ele><time>2026-04-25T05:44:42.999Z</time></trkpt><trkpt lat="45.84973792321136" lon="12.124644553211006"><ele>105.0</ele><time>2026-04-25T05:44:44.999Z</time></trkpt><trkpt lat="45.84963108410959" lon="12.12462402494363"><ele>105.0</ele><time>2026-04-25T05:44:46.999Z</time></trkpt><trkpt lat="45.849555888052684" lon="12.124541338031817"><ele>105.0</ele><time>2026-04-25T05:44:48.999Z</time></trkpt><trkpt lat="45.84959285811952" lon="12.12437461673373"><ele>105.0</ele><time>2026-04-25T05:44:50.999Z</time></trkpt><trkpt lat="45.84955313563588" lon="12.124223083396487"><ele>105.0</ele><time>2026-04-25T05:44:52.999Z</time></trkpt><trkpt lat="45.84951607824813" lon="12.124077144555404"><ele>105.0</ele><time>2026-04-25T05:44:54.999Z</time></trkpt><trkpt lat="45.84951100004606" lon="12.12398145651931"><ele>105.0</ele><time>2026-04-25T05:44:55.999Z</time></trkpt><trkpt lat="45.84945528063708" lon="12.12384455563385"><ele>105.0</ele><time>2026-04-25T05:44:57.999Z</time></trkpt><trkpt lat="45.8494289420137" lon="12.123681357883402"><ele>105.0</ele><time>2026-04-25T05:44:59.999Z</time></trkpt><trkpt lat="45.84937839886058" lon="12.123534841236964"><ele>105.0</ele><time>2026-04-25T05:45:01.999Z</time></trkpt><trkpt lat="45.84933739147029" lon="12.123379215636547"><ele>105.0</ele><time>2026-04-25T05:45:03.999Z</time></trkpt><trkpt lat="45.849288351148004" lon="12.123231407425784"><ele>105.0</ele><time>2026-04-25T05:45:05.999Z</time></trkpt><trkpt lat="45.849257683855015" lon="12.123077671551565"><ele>105.0</ele><time>2026-04-25T05:45:07.999Z</time></trkpt><trkpt lat="45.849232991078054" lon="12.12292295203837"><ele>105.4</ele><time>2026-04-25T05:45:09.999Z</time></trkpt><trkpt lat="45.849184954808095" lon="12.122772204111861"><ele>105.8</ele><time>2026-04-25T05:45:11.999Z</time></trkpt><trkpt lat="45.84915304131274" lon="12.12262350719716"><ele>106.19999999999999</ele><time>2026-04-25T05:45:13.999Z</time></trkpt><trkpt lat="45.849116472843036" lon="12.12247684405745"><ele>106.6</ele><time>2026-04-25T05:45:15.999Z</time></trkpt><trkpt lat="45.84908685609905" lon="12.1223226344563"><ele>107.0</ele><time>2026-04-25T05:45:17.999Z</time></trkpt><trkpt lat="45.8490543533045" lon="12.12217265398367"><ele>107.5</ele><time>2026-04-25T05:45:19.999Z</time></trkpt><trkpt lat="45.84901131479237" lon="12.122019293727826"><ele>108.0</ele><time>2026-04-25T05:45:21.999Z</time></trkpt><trkpt lat="45.84896335775585" lon="12.121875347760003"><ele>108.5</ele><time>2026-04-25T05:45:23.999Z</time></trkpt><trkpt lat="45.848913717951554" lon="12.121728850188076"><ele>109.0</ele><time>2026-04-25T05:45:25.999Z</time></trkpt><trkpt lat="45.84886941344473" lon="12.121578451710278"><ele>109.0</ele><time>2026-04-25T05:45:27.999Z</time></trkpt><trkpt lat="45.84881345644963" lon="12.121431272087525"><ele>109.0</ele><time>2026-04-25T05:45:29.999Z</time></trkpt><trkpt lat="45.848755302076924" lon="12.121286779181276"><ele>109.0</ele><time>2026-04-25T05:45:31.999Z</time></trkpt><trkpt lat="45.848687051737784" lon="12.121149146934394"><ele>109.0</ele><time>2026-04-25T05:45:33.999Z</time></trkpt><trkpt lat="45.848632983670974" lon="12.121017480358633"><ele>109.0</ele><time>2026-04-25T05:45:35.999Z</time></trkpt><trkpt lat="45.84858929182109" lon="12.120875904534117"><ele>109.0</ele><time>2026-04-25T05:45:37.999Z</time></trkpt><trkpt lat="45.84855142671182" lon="12.120731633522944"><ele>109.0</ele><time>2026-04-25T05:45:39.999Z</time></trkpt><trkpt lat="45.848524148697905" lon="12.120583881225082"><ele>109.0</ele><time>2026-04-25T05:45:41.999Z</time></trkpt><trkpt lat="45.848480684125235" lon="12.120434819091667"><ele>109.0</ele><time>2026-04-25T05:45:43.999Z</time></trkpt><trkpt lat="45.848437720940574" lon="12.120284296140612"><ele>109.0</ele><time>2026-04-25T05:45:45.999Z</time></trkpt><trkpt lat="45.84839360627656" lon="12.12013582778548"><ele>109.0</ele><time>2026-04-25T05:45:47.999Z</time></trkpt><trkpt lat="45.84833670493278" lon="12.119979306817106"><ele>109.0</ele><time>2026-04-25T05:45:49.999Z</time></trkpt><trkpt lat="45.848306781902636" lon="12.119897347301087"><ele>109.0</ele><time>2026-04-25T05:45:50.999Z</time></trkpt><trkpt lat="45.84827978723488" lon="12.11981360080189"><ele>109.0</ele><time>2026-04-25T05:45:51.999Z</time></trkpt><trkpt lat="45.84821922612293" lon="12.119658687033578"><ele>109.00000000000001</ele><time>2026-04-25T05:45:53.999Z</time></trkpt><trkpt lat="45.84818220050608" lon="12.11958548623759"><ele>109.0</ele><time>2026-04-25T05:45:54.999Z</time></trkpt><trkpt lat="45.84814381702618" lon="12.119513507014641"><ele>109.0</ele><time>2026-04-25T05:45:55.999Z</time></trkpt><trkpt lat="45.848098053477585" lon="12.11944429534859"><ele>109.0</ele><time>2026-04-25T05:45:56.999Z</time></trkpt><trkpt lat="45.84801214674667" lon="12.119321693908022"><ele>109.00000000000001</ele><time>2026-04-25T05:45:58.999Z</time></trkpt><trkpt lat="45.84796075003222" lon="12.11926444156591"><ele>109.0</ele><time>2026-04-25T05:45:59.999Z</time></trkpt><trkpt lat="45.847873223420464" lon="12.119151380498089"><ele>109.0</ele><time>2026-04-25T05:46:01.999Z</time></trkpt><trkpt lat="45.847791926593814" lon="12.119043454576703"><ele>109.0</ele><time>2026-04-25T05:46:03.999Z</time></trkpt><trkpt lat="45.84771391483964" lon="12.118921947296043"><ele>109.0</ele><time>2026-04-25T05:46:05.999Z</time></trkpt><trkpt lat="45.84766533488312" lon="12.118771228693655"><ele>109.0</ele><time>2026-04-25T05:46:07.999Z</time></trkpt><trkpt lat="45.84762477044144" lon="12.118602852525067"><ele>109.0</ele><time>2026-04-25T05:46:09.999Z</time></trkpt><trkpt lat="45.84757130241034" lon="12.118443374104922"><ele>109.0</ele><time>2026-04-25T05:46:11.999Z</time></trkpt><trkpt lat="45.84751562923744" lon="12.118290117815452"><ele>109.0</ele><time>2026-04-25T05:46:13.999Z</time></trkpt><trkpt lat="45.847477779739755" lon="12.118135471902933"><ele>109.0</ele><time>2026-04-25T05:46:15.999Z</time></trkpt><trkpt lat="45.84743233564136" lon="12.117983095235727"><ele>109.25</ele><time>2026-04-25T05:46:18Z</time></trkpt><trkpt lat="45.84738787209798" lon="12.1178310190868"><ele>109.5</ele><time>2026-04-25T05:46:20Z</time></trkpt><trkpt lat="45.84733052814516" lon="12.117687571981747"><ele>109.75</ele><time>2026-04-25T05:46:22Z</time></trkpt><trkpt lat="45.847257939945464" lon="12.117564760254398"><ele>110.0</ele><time>2026-04-25T05:46:24Z</time></trkpt><trkpt lat="45.84714773354093" lon="12.117486487658566"><ele>110.0</ele><time>2026-04-25T05:46:26Z</time></trkpt><trkpt lat="45.8470241807423" lon="12.117487692841452"><ele>110.0</ele><time>2026-04-25T05:46:28Z</time></trkpt><trkpt lat="45.846960643082085" lon="12.117493811030526"><ele>110.0</ele><time>2026-04-25T05:46:29Z</time></trkpt><trkpt lat="45.84683621788841" lon="12.117489481911385"><ele>110.0</ele><time>2026-04-25T05:46:31Z</time></trkpt><trkpt lat="45.84671211194631" lon="12.117463426944571"><ele>110.0</ele><time>2026-04-25T05:46:33Z</time></trkpt><trkpt lat="45.84659008492985" lon="12.117420092490466"><ele>109.85714285714285</ele><time>2026-04-25T05:46:35Z</time></trkpt><trkpt lat="45.84652505228446" lon="12.117398814442199"><ele>109.71428571428571</ele><time>2026-04-25T05:46:36Z</time></trkpt><trkpt lat="45.84646365139337" lon="12.117376250808027"><ele>109.57142857142857</ele><time>2026-04-25T05:46:37Z</time></trkpt><trkpt lat="45.84640171088413" lon="12.117355927652262"><ele>109.42857142857142</ele><time>2026-04-25T05:46:38Z</time></trkpt><trkpt lat="45.846338354879705" lon="12.117325194486972"><ele>109.28571428571429</ele><time>2026-04-25T05:46:39Z</time></trkpt><trkpt lat="45.84627488782575" lon="12.117289696302274"><ele>109.14285714285714</ele><time>2026-04-25T05:46:40Z</time></trkpt><trkpt lat="45.84622204225539" lon="12.117233305992269"><ele>109.0</ele><time>2026-04-25T05:46:41Z</time></trkpt><trkpt lat="45.84617058038233" lon="12.117179982486846"><ele>109.0</ele><time>2026-04-25T05:46:42Z</time></trkpt><trkpt lat="45.846083498671106" lon="12.11705272821003"><ele>109.0</ele><time>2026-04-25T05:46:44Z</time></trkpt><trkpt lat="45.8459949040841" lon="12.116933206713789"><ele>109.0</ele><time>2026-04-25T05:46:46Z</time></trkpt><trkpt lat="45.845905660051116" lon="12.116808611544556"><ele>109.0</ele><time>2026-04-25T05:46:48Z</time></trkpt><trkpt lat="45.84581526471732" lon="12.116691073888134"><ele>109.2</ele><time>2026-04-25T05:46:50Z</time></trkpt><trkpt lat="45.84572993657803" lon="12.116566948962749"><ele>109.4</ele><time>2026-04-25T05:46:52Z</time></trkpt><trkpt lat="45.84565257440752" lon="12.116426894898083"><ele>109.6</ele><time>2026-04-25T05:46:54Z</time></trkpt><trkpt lat="45.84557606447486" lon="12.116285765843957"><ele>109.8</ele><time>2026-04-25T05:46:56Z</time></trkpt><trkpt lat="45.845541862209494" lon="12.116209749369114"><ele>110.0</ele><time>2026-04-25T05:46:57Z</time></trkpt><trkpt lat="45.84548311431744" lon="12.116067000597345"><ele>110.0</ele><time>2026-04-25T05:46:59Z</time></trkpt><trkpt lat="45.84542606804642" lon="12.115915697025786"><ele>110.0</ele><time>2026-04-25T05:47:01Z</time></trkpt><trkpt lat="45.84539135397404" lon="12.115758974728621"><ele>110.0</ele><time>2026-04-25T05:47:03Z</time></trkpt><trkpt lat="45.84535278962677" lon="12.115621550857032"><ele>110.0</ele><time>2026-04-25T05:47:05Z</time></trkpt><trkpt lat="45.84530534672936" lon="12.115489218624113"><ele>110.0</ele><time>2026-04-25T05:47:07Z</time></trkpt><trkpt lat="45.845280277056766" lon="12.115389670874048"><ele>110.49999999999999</ele><time>2026-04-25T05:47:09Z</time></trkpt><trkpt lat="45.84530158145045" lon="12.115297083970432"><ele>111.0</ele><time>2026-04-25T05:47:13Z</time></trkpt><trkpt lat="45.84538905273369" lon="12.115264832662161"><ele>111.5</ele><time>2026-04-25T05:47:16Z</time></trkpt><trkpt lat="45.84546262852186" lon="12.115255661047499"><ele>112.0</ele><time>2026-04-25T05:47:18Z</time></trkpt><trkpt lat="45.8455569432387" lon="12.115244793873615"><ele>112.49999999999999</ele><time>2026-04-25T05:47:20Z</time></trkpt><trkpt lat="45.84563668331894" lon="12.115244881713949"><ele>113.0</ele><time>2026-04-25T05:47:22Z</time></trkpt><trkpt lat="45.845720204616335" lon="12.115233390337936"><ele>112.99999999999999</ele><time>2026-04-25T05:47:24Z</time></trkpt><trkpt lat="45.845801368341476" lon="12.115225235158881"><ele>113.0</ele><time>2026-04-25T05:47:26Z</time></trkpt><trkpt lat="45.845884899779506" lon="12.115219485098681"><ele>113.0</ele><time>2026-04-25T05:47:28Z</time></trkpt><trkpt lat="45.84597272615138" lon="12.115198360691489"><ele>113.0</ele><time>2026-04-25T05:47:30Z</time></trkpt><trkpt lat="45.84604511232473" lon="12.115184386211551"><ele>112.99999999999999</ele><time>2026-04-25T05:47:33Z</time></trkpt><trkpt lat="45.84610797748254" lon="12.11517778920827"><ele>113.0</ele><time>2026-04-25T05:47:42Z</time></trkpt><trkpt lat="45.84613499937419" lon="12.115066787244256"><ele>112.49999999999999</ele><time>2026-04-25T05:47:51Z</time></trkpt><trkpt lat="45.84613838997865" lon="12.114964083892357"><ele>112.0</ele><time>2026-04-25T05:47:53Z</time></trkpt><trkpt lat="45.84611712683467" lon="12.11484742582118"><ele>111.5</ele><time>2026-04-25T05:47:55Z</time></trkpt><trkpt lat="45.846101976931955" lon="12.114734285787634"><ele>111.0</ele><time>2026-04-25T05:47:57Z</time></trkpt><trkpt lat="45.84609757137736" lon="12.114630991467813"><ele>110.49999999999999</ele><time>2026-04-25T05:47:59Z</time></trkpt><trkpt lat="45.84608380097455" lon="12.114527818270009"><ele>110.0</ele><time>2026-04-25T05:48:00.999Z</time></trkpt><trkpt lat="45.84606719589964" lon="12.114413980112346"><ele>109.99999999999999</ele><time>2026-04-25T05:48:02.999Z</time></trkpt><trkpt lat="45.84605805503431" lon="12.114287791509213"><ele>110.0</ele><time>2026-04-25T05:48:04.999Z</time></trkpt><trkpt lat="45.846051413002286" lon="12.114168425411476"><ele>110.0</ele><time>2026-04-25T05:48:06.999Z</time></trkpt><trkpt lat="45.846035178813075" lon="12.114079080033795"><ele>110.0</ele><time>2026-04-25T05:48:08.999Z</time></trkpt><trkpt lat="45.846021257670095" lon="12.11396818218001"><ele>109.99999999999999</ele><time>2026-04-25T05:48:10.999Z</time></trkpt><trkpt lat="45.84601114831575" lon="12.113833020883064"><ele>110.0</ele><time>2026-04-25T05:48:13Z</time></trkpt><trkpt lat="45.846011116014274" lon="12.113710658531092"><ele>109.99999999999999</ele><time>2026-04-25T05:48:16Z</time></trkpt><trkpt lat="45.84600589083062" lon="12.113610741496364"><ele>110.0</ele><time>2026-04-25T05:48:18Z</time></trkpt><trkpt lat="45.845997341156135" lon="12.113488844167973"><ele>110.0</ele><time>2026-04-25T05:48:20Z</time></trkpt><trkpt lat="45.84601416818333" lon="12.113397961735352"><ele>110.0</ele><time>2026-04-25T05:48:23Z</time></trkpt><trkpt lat="45.84603691061435" lon="12.113277278013669"><ele>110.0</ele><time>2026-04-25T05:48:24Z</time></trkpt><trkpt lat="45.84600845532888" lon="12.113186455777528"><ele>109.99999999999999</ele><time>2026-04-25T05:48:27Z</time></trkpt><trkpt lat="45.84602301553245" lon="12.113093913687049"><ele>110.0</ele><time>2026-04-25T05:48:29Z</time></trkpt><trkpt lat="45.846053500343025" lon="12.112973617037406"><ele>110.16666666666666</ele><time>2026-04-25T05:48:30Z</time></trkpt><trkpt lat="45.846093331691314" lon="12.112897172376398"><ele>110.33333333333333</ele><time>2026-04-25T05:48:32Z</time></trkpt><trkpt lat="45.84607749873506" lon="12.112790898133822"><ele>110.5</ele><time>2026-04-25T05:48:34Z</time></trkpt><trkpt lat="45.8461217263467" lon="12.11271610335244"><ele>110.66666666666666</ele><time>2026-04-25T05:48:36Z</time></trkpt><trkpt lat="45.84614675267364" lon="12.112566019579182"><ele>110.83333333333333</ele><time>2026-04-25T05:48:39Z</time></trkpt><trkpt lat="45.846145772475964" lon="12.112465818596931"><ele>111.0</ele><time>2026-04-25T05:48:41Z</time></trkpt><trkpt lat="45.846367018126585" lon="12.111805984961192"><ele>111.0</ele><time>2026-04-25T05:48:44Z</time></trkpt><trkpt lat="45.84636388107511" lon="12.111652007379435"><ele>111.0</ele><time>2026-04-25T05:48:46Z</time></trkpt><trkpt lat="45.84634263316263" lon="12.1115216190508"><ele>111.0</ele><time>2026-04-25T05:48:48Z</time></trkpt><trkpt lat="45.84634485748187" lon="12.111403820432807"><ele>111.0</ele><time>2026-04-25T05:48:50Z</time></trkpt><trkpt lat="45.846408394036295" lon="12.111299780324488"><ele>111.0</ele><time>2026-04-25T05:48:52Z</time></trkpt><trkpt lat="45.84649541016966" lon="12.111227621137864"><ele>111.0</ele><time>2026-04-25T05:48:55Z</time></trkpt><trkpt lat="45.8465949428275" lon="12.111141090696586"><ele>111.0</ele><time>2026-04-25T05:48:57Z</time></trkpt><trkpt lat="45.84669323578854" lon="12.11106217479106"><ele>111.0</ele><time>2026-04-25T05:48:59Z</time></trkpt><trkpt lat="45.84677974404561" lon="12.110970367808976"><ele>111.0</ele><time>2026-04-25T05:49:01Z</time></trkpt><trkpt lat="45.846878056834065" lon="12.110909178923459"><ele>111.0</ele><time>2026-04-25T05:49:03Z</time></trkpt><trkpt lat="45.84697038792448" lon="12.110875861089216"><ele>112.0</ele><time>2026-04-25T05:49:05Z</time></trkpt></trkseg></trk></gpx>